Wetterdaten: Dienstag, 30.05.2017
Datum Zeit Temp. A. Pool Temp. Feuchte A. Luftdruck Regen Wind Richtung Richtung Sonnenschein ET UV Solar Taupunkt Windchill Windben Empfang
30.05.2017 00:00 18,8 C 25,0 C 75 % 1011,6 hPa 0,0 l/m 0,4 km/h (0 Bft) O 86 0 min 0,000 mm 0,0 UV-I 0 W/m 14,3 C 18,8 C 3,2 km/h (1 Bft) 97,87 %
30.05.2017 00:02 18,7 C 25,0 C 75 % 1011,6 hPa 0,0 l/m 0,0 km/h (0 Bft) O 86 0 min 0,000 mm 0,0 UV-I 0 W/m 14,2 C 18,7 C 0,0 km/h (0 Bft) 97,62 %
30.05.2017 00:04 18,7 C 25,0 C 76 % 1011,6 hPa 0,0 l/m 0,9 km/h (0 Bft) O 86 0 min 0,000 mm 0,0 UV-I 0 W/m 14,4 C 18,7 C 3,2 km/h (1 Bft) 100,00 %
30.05.2017 00:06 18,7 C 25,0 C 76 % 1011,6 hPa 0,0 l/m 1,0 km/h (0 Bft) O 86 0 min 0,000 mm 0,0 UV-I 0 W/m 14,4 C 18,7 C 3,2 km/h (1 Bft) 100,00 %
30.05.2017 00:08 18,7 C 25,0 C 76 % 1011,6 hPa 0,0 l/m 0,0 km/h (0 Bft) O 86 0 min 0,000 mm 0,0 UV-I 0 W/m 14,4 C 18,7 C 0,0 km/h (0 Bft) 100,00 %
30.05.2017 00:10 18,7 C 25,0 C 76 % 1011,6 hPa 0,0 l/m 2,2 km/h (1 Bft) O 86 0 min 0,000 mm 0,0 UV-I 0 W/m 14,4 C 18,7 C 3,2 km/h (1 Bft) 96,00 %
30.05.2017 00:12 18,7 C 25,0 C 76 % 1011,7 hPa 0,0 l/m 1,1 km/h (1 Bft) O 86 0 min 0,000 mm 0,0 UV-I 0 W/m 14,4 C 18,7 C 3,2 km/h (1 Bft) 97,56 %
30.05.2017 00:14 18,6 C 25,0 C 76 % 1011,7 hPa 0,0 l/m 2,6 km/h (1 Bft) O 86 0 min 0,000 mm 0,0 UV-I 0 W/m 14,3 C 18,6 C 4,8 km/h (1 Bft) 100,00 %
30.05.2017 00:16 18,4 C 25,0 C 77 % 1011,7 hPa 0,0 l/m 0,5 km/h (0 Bft) O 86 0 min 0,000 mm 0,0 UV-I 0 W/m 14,3 C 18,4 C 3,2 km/h (1 Bft) 98,11 %
30.05.2017 00:18 18,4 C 25,0 C 77 % 1011,7 hPa 0,0 l/m 0,2 km/h (0 Bft) O 86 0 min 0,000 mm 0,0 UV-I 0 W/m 14,3 C 18,4 C 1,6 km/h (1 Bft) 100,00 %
30.05.2017 00:20 18,3 C 25,0 C 78 % 1011,8 hPa 0,0 l/m 0,7 km/h (0 Bft) O 86 0 min 0,000 mm 0,0 UV-I 0 W/m 14,4 C 18,3 C 1,6 km/h (1 Bft) 97,87 %
30.05.2017 00:22 18,1 C 25,0 C 77 % 1011,7 hPa 0,0 l/m 0,8 km/h (0 Bft) O 86 0 min 0,000 mm 0,0 UV-I 0 W/m 14,0 C 18,1 C 3,2 km/h (1 Bft) 97,87 %
30.05.2017 00:24 18,0 C 25,0 C 78 % 1011,7 hPa 0,0 l/m 0,0 km/h (0 Bft) O 86 0 min 0,000 mm 0,0 UV-I 0 W/m 14,1 C 18,0 C 0,0 km/h (0 Bft) 98,00 %
30.05.2017 00:26 17,9 C 25,0 C 78 % 1011,6 hPa 0,0 l/m 1,1 km/h (1 Bft) O 86 0 min 0,000 mm 0,0 UV-I 0 W/m 14,0 C 17,9 C 3,2 km/h (1 Bft) 96,00 %
30.05.2017 00:28 17,9 C 25,0 C 78 % 1011,6 hPa 0,0 l/m 1,5 km/h (1 Bft) O 86 0 min 0,000 mm 0,0 UV-I 0 W/m 14,0 C 17,9 C 3,2 km/h (1 Bft) 98,00 %
30.05.2017 00:30 17,9 C 25,0 C 78 % 1011,6 hPa 0,0 l/m 0,6 km/h (0 Bft) O 86 0 min 0,000 mm 0,0 UV-I 0 W/m 14,0 C 17,9 C 1,6 km/h (1 Bft) 97,37 %
30.05.2017 00:32 17,8 C 25,0 C 78 % 1011,6 hPa 0,0 l/m 2,0 km/h (1 Bft) O 86 0 min 0,000 mm 0,0 UV-I 0 W/m 13,9 C 17,8 C 3,2 km/h (1 Bft) 98,00 %
30.05.2017 00:34 17,8 C 25,0 C 78 % 1011,7 hPa 0,0 l/m 2,0 km/h (1 Bft) O 86 0 min 0,000 mm 0,0 UV-I 0 W/m 13,9 C 17,8 C 3,2 km/h (1 Bft) 97,87 %
30.05.2017 00:36 17,8 C 25,0 C 78 % 1011,6 hPa 0,0 l/m 1,6 km/h (1 Bft) O 86 0 min 0,000 mm 0,0 UV-I 0 W/m 13,9 C 17,8 C 3,2 km/h (1 Bft) 98,11 %
30.05.2017 00:38 17,8 C 25,0 C 78 % 1011,7 hPa 0,0 l/m 0,3 km/h (0 Bft) O 86 0 min 0,000 mm 0,0 UV-I 0 W/m 13,9 C 17,8 C 1,6 km/h (1 Bft) 100,00 %
30.05.2017 00:40 17,8 C 25,0 C 78 % 1011,7 hPa 0,0 l/m 0,0 km/h (0 Bft) O 86 0 min 0,000 mm 0,0 UV-I 0 W/m 13,9 C 17,8 C 1,6 km/h (1 Bft) 98,21 %
30.05.2017 00:42 17,7 C 25,0 C 77 % 1011,7 hPa 0,0 l/m 1,5 km/h (1 Bft) O 86 0 min 0,000 mm 0,0 UV-I 0 W/m 13,6 C 17,7 C 3,2 km/h (1 Bft) 100,00 %
30.05.2017 00:44 17,7 C 25,0 C 77 % 1011,7 hPa 0,0 l/m 1,0 km/h (0 Bft) O 86 0 min 0,000 mm 0,0 UV-I 0 W/m 13,6 C 17,7 C 3,2 km/h (1 Bft) 98,00 %
30.05.2017 00:46 17,6 C 25,0 C 77 % 1011,7 hPa 0,0 l/m 1,3 km/h (1 Bft) O 86 0 min 0,000 mm 0,0 UV-I 0 W/m 13,5 C 17,6 C 3,2 km/h (1 Bft) 98,00 %
30.05.2017 00:48 17,6 C 25,0 C 78 % 1011,8 hPa 0,0 l/m 3,5 km/h (1 Bft) O-SO 112 0 min 0,000 mm 0,0 UV-I 0 W/m 13,7 C 17,6 C 4,8 km/h (1 Bft) 100,00 %
30.05.2017 00:50 17,7 C 25,0 C 77 % 1011,7 hPa 0,0 l/m 3,6 km/h (1 Bft) O-SO 119 0 min 0,000 mm 0,0 UV-I 0 W/m 13,6 C 17,7 C 4,8 km/h (1 Bft) 100,00 %
30.05.2017 00:52 17,7 C 24,4 C 77 % 1011,7 hPa 0,0 l/m 4,2 km/h (1 Bft) O-SO 119 0 min 0,000 mm 0,0 UV-I 0 W/m 13,6 C 17,7 C 4,8 km/h (1 Bft) 97,78 %
30.05.2017 00:54 17,6 C 24,4 C 77 % 1011,8 hPa 0,0 l/m 3,1 km/h (1 Bft) O-SO 119 0 min 0,000 mm 0,0 UV-I 0 W/m 13,5 C 17,6 C 4,8 km/h (1 Bft) 97,56 %
30.05.2017 00:56 17,6 C 24,4 C 77 % 1011,7 hPa 0,0 l/m 3,9 km/h (1 Bft) O-SO 119 0 min 0,000 mm 0,0 UV-I 0 W/m 13,5 C 17,6 C 4,8 km/h (1 Bft) 97,87 %
30.05.2017 00:58 17,4 C 25,0 C 78 % 1011,7 hPa 0,0 l/m 3,4 km/h (1 Bft) O-SO 119 0 min 0,000 mm 0,0 UV-I 0 W/m 13,5 C 17,4 C 4,8 km/h (1 Bft) 96,00 %
30.05.2017 01:00 17,4 C 25,0 C 78 % 1011,7 hPa 0,0 l/m 0,6 km/h (0 Bft) O-SO 119 0 min 0,000 mm 0,0 UV-I 0 W/m 13,5 C 17,4 C 3,2 km/h (1 Bft) 97,87 %
30.05.2017 01:02 17,4 C 25,0 C 78 % 1011,8 hPa 0,0 l/m 0,8 km/h (0 Bft) O-SO 119 0 min 0,000 mm 0,0 UV-I 0 W/m 13,5 C 17,4 C 4,8 km/h (1 Bft) 98,00 %
30.05.2017 01:04 17,3 C 24,4 C 77 % 1011,7 hPa 0,0 l/m 1,8 km/h (1 Bft) O-SO 119 0 min 0,000 mm 0,0 UV-I 0 W/m 13,2 C 17,3 C 4,8 km/h (1 Bft) 100,00 %
30.05.2017 01:06 17,2 C 24,4 C 77 % 1011,7 hPa 0,0 l/m 0,7 km/h (0 Bft) O-SO 119 0 min 0,000 mm 0,0 UV-I 0 W/m 13,1 C 17,2 C 1,6 km/h (1 Bft) 98,11 %
30.05.2017 01:08 17,2 C 24,4 C 76 % 1011,7 hPa 0,0 l/m 1,5 km/h (1 Bft) O-SO 119 0 min 0,000 mm 0,0 UV-I 0 W/m 12,9 C 17,2 C 4,8 km/h (1 Bft) 100,00 %
30.05.2017 01:10 17,3 C 24,4 C 75 % 1011,7 hPa 0,0 l/m 0,8 km/h (0 Bft) O-SO 119 0 min 0,000 mm 0,0 UV-I 0 W/m 12,8 C 17,3 C 3,2 km/h (1 Bft) 97,56 %
30.05.2017 01:12 17,3 C 24,4 C 75 % 1011,7 hPa 0,0 l/m 0,6 km/h (0 Bft) O-SO 119 0 min 0,000 mm 0,0 UV-I 0 W/m 12,8 C 17,3 C 1,6 km/h (1 Bft) 100,00 %
30.05.2017 01:14 17,4 C 24,4 C 74 % 1011,8 hPa 0,0 l/m 0,5 km/h (0 Bft) O-SO 119 0 min 0,000 mm 0,0 UV-I 0 W/m 12,7 C 17,4 C 1,6 km/h (1 Bft) 97,87 %
30.05.2017 01:16 17,5 C 24,4 C 75 % 1011,8 hPa 0,0 l/m 0,0 km/h (0 Bft) O-SO 119 0 min 0,000 mm 0,0 UV-I 0 W/m 13,0 C 17,5 C 0,0 km/h (0 Bft) 98,00 %
30.05.2017 01:18 17,6 C 24,4 C 74 % 1011,8 hPa 0,0 l/m 0,0 km/h (0 Bft) O-SO 119 0 min 0,000 mm 0,0 UV-I 0 W/m 12,9 C 17,6 C 0,0 km/h (0 Bft) 95,12 %
30.05.2017 01:20 17,5 C 24,4 C 74 % 1011,8 hPa 0,0 l/m 0,0 km/h (0 Bft) O-SO 119 0 min 0,000 mm 0,0 UV-I 0 W/m 12,8 C 17,5 C 0,0 km/h (0 Bft) 98,04 %
30.05.2017 01:22 17,5 C 24,4 C 75 % 1011,9 hPa 0,0 l/m 1,3 km/h (1 Bft) O-SO 119 0 min 0,000 mm 0,0 UV-I 0 W/m 13,0 C 17,5 C 3,2 km/h (1 Bft) 94,44 %
30.05.2017 01:24 17,4 C 24,4 C 74 % 1011,9 hPa 0,0 l/m 2,1 km/h (1 Bft) O-SO 119 0 min 0,000 mm 0,0 UV-I 0 W/m 12,7 C 17,4 C 3,2 km/h (1 Bft) 96,23 %
30.05.2017 01:26 17,3 C 24,4 C 75 % 1012,0 hPa 0,0 l/m 3,7 km/h (1 Bft) O-SO 119 0 min 0,000 mm 0,0 UV-I 0 W/m 12,8 C 17,3 C 4,8 km/h (1 Bft) 98,00 %
30.05.2017 01:28 17,1 C 24,4 C 76 % 1012,0 hPa 0,0 l/m 4,3 km/h (1 Bft) O-SO 120 0 min 0,000 mm 0,0 UV-I 0 W/m 12,8 C 17,1 C 6,4 km/h (2 Bft) 94,00 %
30.05.2017 01:30 16,9 C 24,4 C 76 % 1012,1 hPa 0,0 l/m 2,1 km/h (1 Bft) O-SO 120 0 min 0,000 mm 0,0 UV-I 0 W/m 12,6 C 16,9 C 3,2 km/h (1 Bft) 97,87 %
30.05.2017 01:32 16,8 C 24,4 C 76 % 1012,0 hPa 0,0 l/m 2,5 km/h (1 Bft) O-SO 120 0 min 0,000 mm 0,0 UV-I 0 W/m 12,5 C 16,8 C 3,2 km/h (1 Bft) 94,74 %
30.05.2017 01:34 16,8 C 24,4 C 76 % 1012,0 hPa 0,0 l/m 2,2 km/h (1 Bft) O-SO 120 0 min 0,000 mm 0,0 UV-I 0 W/m 12,5 C 16,8 C 3,2 km/h (1 Bft) 96,23 %
30.05.2017 01:36 16,7 C 24,4 C 77 % 1012,1 hPa 0,0 l/m 0,2 km/h (0 Bft) O-SO 120 0 min 0,000 mm 0,0 UV-I 0 W/m 12,6 C 16,7 C 1,6 km/h (1 Bft) 96,00 %
30.05.2017 01:38 16,7 C 24,4 C 77 % 1012,0 hPa 0,0 l/m 0,6 km/h (0 Bft) O-SO 120 0 min 0,000 mm 0,0 UV-I 0 W/m 12,6 C 16,7 C 1,6 km/h (1 Bft) 97,87 %
30.05.2017 01:40 16,6 C 24,4 C 76 % 1012,0 hPa 0,0 l/m 0,2 km/h (0 Bft) O-SO 120 0 min 0,000 mm 0,0 UV-I 0 W/m 12,3 C 16,6 C 1,6 km/h (1 Bft) 97,87 %
30.05.2017 01:42 16,6 C 24,4 C 75 % 1012,0 hPa 0,0 l/m 0,5 km/h (0 Bft) O-SO 120 0 min 0,000 mm 0,0 UV-I 0 W/m 12,1 C 16,6 C 1,6 km/h (1 Bft) 97,37 %
30.05.2017 01:44 16,6 C 24,4 C 74 % 1012,0 hPa 0,0 l/m 1,2 km/h (1 Bft) O-SO 120 0 min 0,000 mm 0,0 UV-I 0 W/m 11,9 C 16,6 C 1,6 km/h (1 Bft) 96,23 %
30.05.2017 01:46 16,8 C 24,4 C 73 % 1012,0 hPa 0,0 l/m 1,3 km/h (1 Bft) O-SO 120 0 min 0,000 mm 0,0 UV-I 0 W/m 11,9 C 16,8 C 3,2 km/h (1 Bft) 95,12 %
30.05.2017 01:48 16,9 C 24,4 C 70 % 1012,0 hPa 0,0 l/m 3,1 km/h (1 Bft) O-SO 120 0 min 0,000 mm 0,0 UV-I 0 W/m 11,4 C 16,9 C 4,8 km/h (1 Bft) 96,00 %
30.05.2017 01:50 17,1 C 24,4 C 70 % 1012,0 hPa 0,0 l/m 3,6 km/h (1 Bft) O-SO 120 0 min 0,000 mm 0,0 UV-I 0 W/m 11,6 C 17,1 C 4,8 km/h (1 Bft) 100,00 %
30.05.2017 01:52 17,2 C 24,4 C 70 % 1012,0 hPa 0,0 l/m 3,3 km/h (1 Bft) O-SO 120 0 min 0,000 mm 0,0 UV-I 0 W/m 11,7 C 17,2 C 4,8 km/h (1 Bft) 97,56 %
30.05.2017 01:54 17,2 C 24,4 C 69 % 1012,0 hPa 0,0 l/m 3,8 km/h (1 Bft) O-SO 120 0 min 0,000 mm 0,0 UV-I 0 W/m 11,5 C 17,2 C 4,8 km/h (1 Bft) 98,11 %
30.05.2017 01:56 17,2 C 24,4 C 68 % 1012,0 hPa 0,0 l/m 3,1 km/h (1 Bft) O-SO 120 0 min 0,000 mm 0,0 UV-I 0 W/m 11,2 C 17,2 C 4,8 km/h (1 Bft) 95,74 %
30.05.2017 01:58 17,1 C 24,4 C 70 % 1012,0 hPa 0,0 l/m 2,3 km/h (1 Bft) O-SO 120 0 min 0,000 mm 0,0 UV-I 0 W/m 11,6 C 17,1 C 4,8 km/h (1 Bft) 98,00 %
30.05.2017 02:00 16,9 C 24,4 C 71 % 1012,0 hPa 0,0 l/m 2,2 km/h (1 Bft) O-SO 120 0 min 0,025 mm 0,0 UV-I 0 W/m 11,6 C 16,9 C 3,2 km/h (1 Bft) 98,00 %
30.05.2017 02:02 16,8 C 24,4 C 71 % 1011,9 hPa 0,0 l/m 2,5 km/h (1 Bft) O-SO 120 0 min 0,000 mm 0,0 UV-I 0 W/m 11,5 C 16,8 C 3,2 km/h (1 Bft) 95,74 %
30.05.2017 02:04 16,8 C 24,4 C 71 % 1012,0 hPa 0,0 l/m 3,0 km/h (1 Bft) O-SO 120 0 min 0,000 mm 0,0 UV-I 0 W/m 11,5 C 16,8 C 4,8 km/h (1 Bft) 100,00 %
30.05.2017 02:06 16,8 C 24,4 C 71 % 1011,9 hPa 0,0 l/m 2,5 km/h (1 Bft) O-SO 120 0 min 0,000 mm 0,0 UV-I 0 W/m 11,5 C 16,8 C 4,8 km/h (1 Bft) 98,11 %
30.05.2017 02:08 16,8 C 24,4 C 71 % 1011,9 hPa 0,0 l/m 3,5 km/h (1 Bft) O-SO 121 0 min 0,000 mm 0,0 UV-I 0 W/m 11,5 C 16,8 C 6,4 km/h (2 Bft) 98,00 %
30.05.2017 02:10 16,7 C 24,4 C 71 % 1011,9 hPa 0,0 l/m 3,4 km/h (1 Bft) O-SO 121 0 min 0,000 mm 0,0 UV-I 0 W/m 11,4 C 16,7 C 4,8 km/h (1 Bft) 97,37 %
30.05.2017 02:12 16,7 C 24,4 C 70 % 1011,9 hPa 0,0 l/m 2,8 km/h (1 Bft) O-SO 121 0 min 0,000 mm 0,0 UV-I 0 W/m 11,2 C 16,7 C 4,8 km/h (1 Bft) 100,00 %
30.05.2017 02:14 16,7 C 24,4 C 71 % 1011,9 hPa 0,0 l/m 2,4 km/h (1 Bft) O-SO 122 0 min 0,000 mm 0,0 UV-I 0 W/m 11,4 C 16,7 C 4,8 km/h (1 Bft) 97,87 %
30.05.2017 02:16 16,7 C 24,4 C 69 % 1012,0 hPa 0,0 l/m 3,1 km/h (1 Bft) O-SO 122 0 min 0,000 mm 0,0 UV-I 0 W/m 11,0 C 16,7 C 4,8 km/h (1 Bft) 96,00 %
30.05.2017 02:18 16,7 C 24,4 C 69 % 1012,0 hPa 0,0 l/m 3,2 km/h (1 Bft) O-SO 122 0 min 0,000 mm 0,0 UV-I 0 W/m 11,0 C 16,7 C 4,8 km/h (1 Bft) 95,45 %
30.05.2017 02:20 16,8 C 24,4 C 69 % 1012,0 hPa 0,0 l/m 3,6 km/h (1 Bft) O-SO 123 0 min 0,000 mm 0,0 UV-I 0 W/m 11,1 C 16,8 C 4,8 km/h (1 Bft) 96,23 %
30.05.2017 02:22 16,8 C 24,4 C 69 % 1012,0 hPa 0,0 l/m 2,2 km/h (1 Bft) O-SO 123 0 min 0,000 mm 0,0 UV-I 0 W/m 11,1 C 16,8 C 4,8 km/h (1 Bft) 96,00 %
30.05.2017 02:24 16,8 C 24,4 C 69 % 1012,0 hPa 0,0 l/m 1,7 km/h (1 Bft) O-SO 123 0 min 0,000 mm 0,0 UV-I 0 W/m 11,1 C 16,8 C 3,2 km/h (1 Bft) 95,74 %
30.05.2017 02:26 16,8 C 24,4 C 68 % 1012,0 hPa 0,0 l/m 0,9 km/h (0 Bft) O-SO 123 0 min 0,000 mm 0,0 UV-I 0 W/m 10,9 C 16,8 C 1,6 km/h (1 Bft) 95,74 %
30.05.2017 02:28 16,8 C 24,4 C 69 % 1012,0 hPa 0,0 l/m 0,8 km/h (0 Bft) O-SO 123 0 min 0,000 mm 0,0 UV-I 0 W/m 11,1 C 16,8 C 3,2 km/h (1 Bft) 97,37 %
30.05.2017 02:30 16,8 C 24,4 C 68 % 1012,0 hPa 0,0 l/m 0,2 km/h (0 Bft) O-SO 123 0 min 0,000 mm 0,0 UV-I 0 W/m 10,9 C 16,8 C 1,6 km/h (1 Bft) 96,00 %
30.05.2017 02:32 16,8 C 24,4 C 69 % 1012,0 hPa 0,0 l/m 0,3 km/h (0 Bft) O-SO 123 0 min 0,000 mm 0,0 UV-I 0 W/m 11,1 C 16,8 C 1,6 km/h (1 Bft) 98,00 %
30.05.2017 02:34 16,8 C 24,4 C 68 % 1012,0 hPa 0,0 l/m 0,2 km/h (0 Bft) O-SO 123 0 min 0,000 mm 0,0 UV-I 0 W/m 10,9 C 16,8 C 1,6 km/h (1 Bft) 95,12 %
30.05.2017 02:36 16,8 C 24,4 C 68 % 1012,0 hPa 0,0 l/m 0,0 km/h (0 Bft) O-SO 123 0 min 0,000 mm 0,0 UV-I 0 W/m 10,9 C 16,8 C 1,6 km/h (1 Bft) 97,87 %
30.05.2017 02:38 16,9 C 24,4 C 69 % 1012,0 hPa 0,0 l/m 0,6 km/h (0 Bft) O-SO 123 0 min 0,000 mm 0,0 UV-I 0 W/m 11,2 C 16,9 C 3,2 km/h (1 Bft) 93,62 %
30.05.2017 02:40 16,9 C 24,4 C 69 % 1012,0 hPa 0,0 l/m 0,1 km/h (0 Bft) O-SO 123 0 min 0,000 mm 0,0 UV-I 0 W/m 11,2 C 16,9 C 1,6 km/h (1 Bft) 98,00 %
30.05.2017 02:42 16,9 C 24,4 C 68 % 1012,0 hPa 0,0 l/m 0,2 km/h (0 Bft) O-SO 123 0 min 0,000 mm 0,0 UV-I 0 W/m 11,0 C 16,9 C 1,6 km/h (1 Bft) 95,83 %
30.05.2017 02:44 16,9 C 24,4 C 68 % 1012,0 hPa 0,0 l/m 0,2 km/h (0 Bft) O-SO 123 0 min 0,000 mm 0,0 UV-I 0 W/m 11,0 C 16,9 C 1,6 km/h (1 Bft) 97,87 %
30.05.2017 02:46 16,9 C 24,4 C 68 % 1012,0 hPa 0,0 l/m 1,0 km/h (0 Bft) O-SO 123 0 min 0,000 mm 0,0 UV-I 0 W/m 11,0 C 16,9 C 1,6 km/h (1 Bft) 95,45 %
30.05.2017 02:48 16,9 C 24,4 C 69 % 1012,0 hPa 0,0 l/m 1,3 km/h (1 Bft) O-SO 123 0 min 0,000 mm 0,0 UV-I 0 W/m 11,2 C 16,9 C 1,6 km/h (1 Bft) 98,00 %
30.05.2017 02:50 16,9 C 24,4 C 71 % 1012,0 hPa 0,0 l/m 1,9 km/h (1 Bft) O-SO 123 0 min 0,000 mm 0,0 UV-I 0 W/m 11,6 C 16,9 C 3,2 km/h (1 Bft) 95,74 %
30.05.2017 02:52 16,7 C 24,4 C 71 % 1012,0 hPa 0,0 l/m 3,6 km/h (1 Bft) O-SO 123 0 min 0,000 mm 0,0 UV-I 0 W/m 11,4 C 16,7 C 4,8 km/h (1 Bft) 95,74 %
30.05.2017 02:54 16,4 C 24,4 C 73 % 1012,0 hPa 0,0 l/m 2,6 km/h (1 Bft) O-SO 123 0 min 0,000 mm 0,0 UV-I 0 W/m 11,5 C 16,4 C 4,8 km/h (1 Bft) 97,87 %
30.05.2017 02:56 16,1 C 24,4 C 74 % 1012,0 hPa 0,0 l/m 1,3 km/h (1 Bft) O-SO 123 0 min 0,000 mm 0,0 UV-I 0 W/m 11,5 C 16,1 C 3,2 km/h (1 Bft) 97,56 %
30.05.2017 02:58 15,9 C 24,4 C 75 % 1011,9 hPa 0,0 l/m 0,8 km/h (0 Bft) O-SO 123 0 min 0,000 mm 0,0 UV-I 0 W/m 11,5 C 15,9 C 1,6 km/h (1 Bft) 98,00 %
30.05.2017 03:00 15,8 C 24,4 C 75 % 1011,9 hPa 0,0 l/m 1,2 km/h (1 Bft) O-SO 123 0 min 0,026 mm 0,0 UV-I 0 W/m 11,4 C 15,8 C 3,2 km/h (1 Bft) 96,00 %
30.05.2017 03:02 15,9 C 24,4 C 74 % 1011,9 hPa 0,0 l/m 0,4 km/h (0 Bft) O-SO 123 0 min 0,000 mm 0,0 UV-I 0 W/m 11,3 C 15,9 C 3,2 km/h (1 Bft) 97,14 %
30.05.2017 03:04 16,1 C 24,4 C 74 % 1011,8 hPa 0,0 l/m 1,4 km/h (1 Bft) O-SO 123 0 min 0,000 mm 0,0 UV-I 0 W/m 11,5 C 16,1 C 3,2 km/h (1 Bft) 95,12 %
30.05.2017 03:06 16,2 C 24,4 C 73 % 1011,8 hPa 0,0 l/m 2,2 km/h (1 Bft) O-SO 123 0 min 0,000 mm 0,0 UV-I 0 W/m 11,4 C 16,2 C 4,8 km/h (1 Bft) 95,38 %
30.05.2017 03:08 16,3 C 24,4 C 73 % 1011,8 hPa 0,0 l/m 1,4 km/h (1 Bft) O-SO 123 0 min 0,000 mm 0,0 UV-I 0 W/m 11,4 C 16,3 C 3,2 km/h (1 Bft) 95,12 %
30.05.2017 03:10 16,3 C 24,4 C 72 % 1011,8 hPa 0,0 l/m 2,5 km/h (1 Bft) SO 125 0 min 0,000 mm 0,0 UV-I 0 W/m 11,2 C 16,3 C 4,8 km/h (1 Bft) 98,00 %
30.05.2017 03:12 16,5 C 24,4 C 72 % 1011,8 hPa 0,0 l/m 1,1 km/h (1 Bft) SO 125 0 min 0,000 mm 0,0 UV-I 0 W/m 11,4 C 16,5 C 1,6 km/h (1 Bft) 96,00 %
30.05.2017 03:14 16,5 C 24,4 C 71 % 1011,8 hPa 0,0 l/m 1,4 km/h (1 Bft) SO 125 0 min 0,000 mm 0,0 UV-I 0 W/m 11,2 C 16,5 C 3,2 km/h (1 Bft) 97,37 %
30.05.2017 03:16 16,6 C 24,4 C 70 % 1011,8 hPa 0,0 l/m 2,9 km/h (1 Bft) SO 125 0 min 0,000 mm 0,0 UV-I 0 W/m 11,1 C 16,6 C 4,8 km/h (1 Bft) 96,23 %
30.05.2017 03:18 16,7 C 24,4 C 70 % 1011,8 hPa 0,0 l/m 2,5 km/h (1 Bft) SO 125 0 min 0,000 mm 0,0 UV-I 0 W/m 11,2 C 16,7 C 3,2 km/h (1 Bft) 97,44 %
30.05.2017 03:20 16,8 C 24,4 C 69 % 1011,8 hPa 0,0 l/m 2,1 km/h (1 Bft) SO 125 0 min 0,000 mm 0,0 UV-I 0 W/m 11,1 C 16,8 C 3,2 km/h (1 Bft) 96,23 %
30.05.2017 03:22 16,9 C 24,4 C 70 % 1011,8 hPa 0,0 l/m 2,4 km/h (1 Bft) SO 125 0 min 0,000 mm 0,0 UV-I 0 W/m 11,4 C 16,9 C 3,2 km/h (1 Bft) 96,15 %
30.05.2017 03:24 16,9 C 24,4 C 69 % 1011,8 hPa 0,0 l/m 2,2 km/h (1 Bft) SO 125 0 min 0,000 mm 0,0 UV-I 0 W/m 11,2 C 16,9 C 3,2 km/h (1 Bft) 97,44 %
30.05.2017 03:26 16,8 C 24,4 C 70 % 1011,8 hPa 0,0 l/m 1,5 km/h (1 Bft) SO 125 0 min 0,000 mm 0,0 UV-I 0 W/m 11,3 C 16,8 C 3,2 km/h (1 Bft) 95,74 %
30.05.2017 03:28 16,7 C 24,4 C 71 % 1011,8 hPa 0,0 l/m 0,0 km/h (0 Bft) SO 125 0 min 0,000 mm 0,0 UV-I 0 W/m 11,4 C 16,7 C 1,6 km/h (1 Bft) 94,34 %
30.05.2017 03:30 16,7 C 24,4 C 72 % 1011,8 hPa 0,0 l/m 0,4 km/h (0 Bft) SO 125 0 min 0,000 mm 0,0 UV-I 0 W/m 11,6 C 16,7 C 1,6 km/h (1 Bft) 100,00 %
30.05.2017 03:32 16,7 C 24,4 C 71 % 1011,7 hPa 0,0 l/m 0,5 km/h (0 Bft) SO 125 0 min 0,000 mm 0,0 UV-I 0 W/m 11,4 C 16,7 C 1,6 km/h (1 Bft) 96,23 %
30.05.2017 03:34 16,7 C 24,4 C 71 % 1011,8 hPa 0,0 l/m 0,6 km/h (0 Bft) SO 125 0 min 0,000 mm 0,0 UV-I 0 W/m 11,4 C 16,7 C 1,6 km/h (1 Bft) 94,34 %
30.05.2017 03:36 16,7 C 24,4 C 70 % 1011,8 hPa 0,0 l/m 0,1 km/h (0 Bft) SO 125 0 min 0,000 mm 0,0 UV-I 0 W/m 11,2 C 16,7 C 1,6 km/h (1 Bft) 92,11 %
30.05.2017 03:38 16,8 C 24,4 C 71 % 1011,8 hPa 0,0 l/m 0,0 km/h (0 Bft) SO 125 0 min 0,000 mm 0,0 UV-I 0 W/m 11,5 C 16,8 C 0,0 km/h (0 Bft) 98,00 %
30.05.2017 03:40 16,7 C 24,4 C 71 % 1011,8 hPa 0,0 l/m 0,1 km/h (0 Bft) SO 125 0 min 0,000 mm 0,0 UV-I 0 W/m 11,4 C 16,7 C 1,6 km/h (1 Bft) 91,43 %
30.05.2017 03:42 16,7 C 24,4 C 70 % 1011,7 hPa 0,0 l/m 1,1 km/h (1 Bft) SO 125 0 min 0,000 mm 0,0 UV-I 0 W/m 11,2 C 16,7 C 3,2 km/h (1 Bft) 98,39 %
30.05.2017 03:44 16,8 C 24,4 C 70 % 1011,7 hPa 0,0 l/m 1,4 km/h (1 Bft) SO 125 0 min 0,000 mm 0,0 UV-I 0 W/m 11,3 C 16,8 C 3,2 km/h (1 Bft) 97,56 %
30.05.2017 03:46 16,8 C 24,4 C 70 % 1011,7 hPa 0,0 l/m 0,3 km/h (0 Bft) SO 125 0 min 0,000 mm 0,0 UV-I 0 W/m 11,3 C 16,8 C 1,6 km/h (1 Bft) 96,00 %
30.05.2017 03:48 16,8 C 24,4 C 70 % 1011,6 hPa 0,0 l/m 0,3 km/h (0 Bft) SO 125 0 min 0,000 mm 0,0 UV-I 0 W/m 11,3 C 16,8 C 1,6 km/h (1 Bft) 93,62 %
30.05.2017 03:50 16,8 C 24,4 C 70 % 1011,7 hPa 0,0 l/m 0,1 km/h (0 Bft) SO 125 0 min 0,000 mm 0,0 UV-I 0 W/m 11,3 C 16,8 C 1,6 km/h (1 Bft) 97,37 %
30.05.2017 03:52 16,8 C 24,4 C 70 % 1011,6 hPa 0,0 l/m 1,1 km/h (1 Bft) SO 125 0 min 0,000 mm 0,0 UV-I 0 W/m 11,3 C 16,8 C 3,2 km/h (1 Bft) 100,00 %
30.05.2017 03:54 16,7 C 24,4 C 70 % 1011,7 hPa 0,0 l/m 3,1 km/h (1 Bft) SO 125 0 min 0,000 mm 0,0 UV-I 0 W/m 11,2 C 16,7 C 4,8 km/h (1 Bft) 96,00 %
30.05.2017 03:56 16,7 C 24,4 C 69 % 1011,7 hPa 0,0 l/m 3,3 km/h (1 Bft) SO 125 0 min 0,000 mm 0,0 UV-I 0 W/m 11,0 C 16,7 C 4,8 km/h (1 Bft) 98,00 %
30.05.2017 03:58 16,7 C 24,4 C 69 % 1011,6 hPa 0,0 l/m 3,6 km/h (1 Bft) SO 125 0 min 0,000 mm 0,0 UV-I 0 W/m 11,0 C 16,7 C 4,8 km/h (1 Bft) 97,56 %
30.05.2017 04:00 16,7 C 24,4 C 71 % 1011,6 hPa 0,0 l/m 2,6 km/h (1 Bft) SO 125 0 min 0,025 mm 0,0 UV-I 0 W/m 11,4 C 16,7 C 4,8 km/h (1 Bft) 98,11 %
30.05.2017 04:02 16,6 C 24,4 C 71 % 1011,6 hPa 0,0 l/m 1,4 km/h (1 Bft) SO 125 0 min 0,000 mm 0,0 UV-I 0 W/m 11,3 C 16,6 C 1,6 km/h (1 Bft) 95,24 %
30.05.2017 04:04 16,5 C 24,4 C 71 % 1011,6 hPa 0,0 l/m 1,4 km/h (1 Bft) SO 125 0 min 0,000 mm 0,0 UV-I 0 W/m 11,2 C 16,5 C 3,2 km/h (1 Bft) 98,00 %
30.05.2017 04:06 16,4 C 23,9 C 72 % 1011,6 hPa 0,0 l/m 1,8 km/h (1 Bft) SO 125 0 min 0,000 mm 0,0 UV-I 0 W/m 11,3 C 16,4 C 4,8 km/h (1 Bft) 98,00 %
30.05.2017 04:08 16,3 C 23,9 C 72 % 1011,6 hPa 0,0 l/m 2,8 km/h (1 Bft) SO 125 0 min 0,000 mm 0,0 UV-I 0 W/m 11,2 C 16,3 C 3,2 km/h (1 Bft) 95,74 %
30.05.2017 04:10 16,3 C 23,9 C 72 % 1011,7 hPa 0,0 l/m 3,1 km/h (1 Bft) SO 125 0 min 0,000 mm 0,0 UV-I 0 W/m 11,2 C 16,3 C 4,8 km/h (1 Bft) 100,00 %
30.05.2017 04:12 16,4 C 23,9 C 71 % 1011,6 hPa 0,0 l/m 3,6 km/h (1 Bft) SO 125 0 min 0,000 mm 0,0 UV-I 0 W/m 11,1 C 16,4 C 4,8 km/h (1 Bft) 97,87 %
30.05.2017 04:14 16,3 C 23,9 C 72 % 1011,7 hPa 0,0 l/m 3,5 km/h (1 Bft) SO 125 0 min 0,000 mm 0,0 UV-I 0 W/m 11,2 C 16,3 C 4,8 km/h (1 Bft) 97,37 %
30.05.2017 04:16 16,3 C 23,9 C 72 % 1011,7 hPa 0,0 l/m 2,3 km/h (1 Bft) SO 125 0 min 0,000 mm 0,0 UV-I 0 W/m 11,2 C 16,3 C 3,2 km/h (1 Bft) 98,11 %
30.05.2017 04:18 16,3 C 23,9 C 72 % 1011,7 hPa 0,0 l/m 1,7 km/h (1 Bft) SO 125 0 min 0,000 mm 0,0 UV-I 0 W/m 11,2 C 16,3 C 4,8 km/h (1 Bft) 98,00 %
30.05.2017 04:20 16,3 C 23,9 C 72 % 1011,7 hPa 0,0 l/m 1,5 km/h (1 Bft) SO 125 0 min 0,000 mm 0,0 UV-I 0 W/m 11,2 C 16,3 C 3,2 km/h (1 Bft) 97,37 %
30.05.2017 04:22 16,3 C 23,9 C 71 % 1011,6 hPa 0,0 l/m 0,9 km/h (0 Bft) SO 125 0 min 0,000 mm 0,0 UV-I 0 W/m 11,0 C 16,3 C 3,2 km/h (1 Bft) 97,87 %
30.05.2017 04:24 16,3 C 23,9 C 71 % 1011,6 hPa 0,0 l/m 1,0 km/h (0 Bft) SO 125 0 min 0,000 mm 0,0 UV-I 0 W/m 11,0 C 16,3 C 3,2 km/h (1 Bft) 100,00 %
30.05.2017 04:26 16,4 C 23,9 C 70 % 1011,7 hPa 0,0 l/m 0,6 km/h (0 Bft) SO 125 0 min 0,000 mm 0,0 UV-I 0 W/m 10,9 C 16,4 C 1,6 km/h (1 Bft) 97,87 %
30.05.2017 04:28 16,4 C 23,9 C 69 % 1011,7 hPa 0,0 l/m 0,8 km/h (0 Bft) SO 125 0 min 0,000 mm 0,0 UV-I 0 W/m 10,7 C 16,4 C 3,2 km/h (1 Bft) 98,00 %
30.05.2017 04:30 16,5 C 23,9 C 70 % 1011,7 hPa 0,0 l/m 0,3 km/h (0 Bft) SO 125 0 min 0,000 mm 0,0 UV-I 0 W/m 11,0 C 16,5 C 1,6 km/h (1 Bft) 97,37 %
30.05.2017 04:32 16,4 C 23,9 C 69 % 1011,7 hPa 0,0 l/m 0,3 km/h (0 Bft) SO 125 0 min 0,000 mm 0,0 UV-I 0 W/m 10,7 C 16,4 C 1,6 km/h (1 Bft) 98,28 %
30.05.2017 04:34 16,5 C 23,9 C 69 % 1011,7 hPa 0,0 l/m 0,0 km/h (0 Bft) SO 125 0 min 0,000 mm 0,0 UV-I 0 W/m 10,8 C 16,5 C 0,0 km/h (0 Bft) 100,00 %
30.05.2017 04:36 16,4 C 23,9 C 70 % 1011,8 hPa 0,0 l/m 0,0 km/h (0 Bft) SO 125 0 min 0,000 mm 0,0 UV-I 0 W/m 10,9 C 16,4 C 0,0 km/h (0 Bft) 98,00 %
30.05.2017 04:38 16,3 C 23,9 C 71 % 1011,8 hPa 0,0 l/m 0,0 km/h (0 Bft) SO 125 0 min 0,000 mm 0,0 UV-I 0 W/m 11,0 C 16,3 C 0,0 km/h (0 Bft) 97,87 %
30.05.2017 04:40 16,3 C 23,9 C 71 % 1011,8 hPa 0,0 l/m 0,0 km/h (0 Bft) SO 125 0 min 0,000 mm 0,0 UV-I 0 W/m 11,0 C 16,3 C 0,0 km/h (0 Bft) 100,00 %
30.05.2017 04:42 16,3 C 23,9 C 72 % 1011,8 hPa 0,0 l/m 0,0 km/h (0 Bft) SO 125 0 min 0,000 mm 0,0 UV-I 0 W/m 11,2 C 16,3 C 0,0 km/h (0 Bft) 98,00 %
30.05.2017 04:44 16,3 C 23,9 C 72 % 1011,8 hPa 0,0 l/m 0,1 km/h (0 Bft) SO 125 0 min 0,000 mm 0,0 UV-I 0 W/m 11,2 C 16,3 C 1,6 km/h (1 Bft) 100,00 %
30.05.2017 04:46 16,2 C 23,9 C 73 % 1011,8 hPa 0,0 l/m 1,6 km/h (1 Bft) SO 125 0 min 0,000 mm 0,0 UV-I 0 W/m 11,4 C 16,2 C 3,2 km/h (1 Bft) 97,37 %
30.05.2017 04:48 16,0 C 23,9 C 74 % 1011,7 hPa 0,0 l/m 1,6 km/h (1 Bft) SO 125 0 min 0,000 mm 0,0 UV-I 0 W/m 11,4 C 16,0 C 3,2 km/h (1 Bft) 95,74 %
30.05.2017 04:50 15,8 C 23,9 C 74 % 1011,8 hPa 0,0 l/m 0,0 km/h (0 Bft) SO 125 0 min 0,000 mm 0,0 UV-I 0 W/m 11,2 C 15,8 C 0,0 km/h (0 Bft) 98,00 %
30.05.2017 04:52 15,8 C 23,9 C 74 % 1011,8 hPa 0,0 l/m 0,1 km/h (0 Bft) SO 125 0 min 0,000 mm 0,0 UV-I 0 W/m 11,2 C 15,8 C 1,6 km/h (1 Bft) 100,00 %
30.05.2017 04:54 15,7 C 23,9 C 76 % 1011,8 hPa 0,0 l/m 0,5 km/h (0 Bft) SO 125 0 min 0,000 mm 0,0 UV-I 3 W/m 11,5 C 15,7 C 1,6 km/h (1 Bft) 100,00 %
30.05.2017 04:56 15,7 C 23,9 C 75 % 1011,8 hPa 0,0 l/m 0,0 km/h (0 Bft) SO 125 0 min 0,000 mm 0,0 UV-I 5 W/m 11,3 C 15,7 C 1,6 km/h (1 Bft) 100,00 %
30.05.2017 04:58 15,6 C 23,9 C 76 % 1011,8 hPa 0,0 l/m 1,4 km/h (1 Bft) SO 125 0 min 0,000 mm 0,0 UV-I 5 W/m 11,4 C 15,6 C 3,2 km/h (1 Bft) 100,00 %
30.05.2017 05:00 15,6 C 23,9 C 76 % 1011,8 hPa 0,0 l/m 2,9 km/h (1 Bft) SO 125 0 min 0,000 mm 0,0 UV-I 5 W/m 11,4 C 15,6 C 3,2 km/h (1 Bft) 97,37 %
30.05.2017 05:02 15,6 C 23,9 C 75 % 1011,8 hPa 0,0 l/m 2,1 km/h (1 Bft) SO 125 0 min 0,000 mm 0,0 UV-I 5 W/m 11,2 C 15,6 C 3,2 km/h (1 Bft) 98,00 %
30.05.2017 05:04 15,5 C 23,9 C 75 % 1011,8 hPa 0,0 l/m 1,5 km/h (1 Bft) SO 125 0 min 0,000 mm 0,0 UV-I 5 W/m 11,1 C 15,5 C 3,2 km/h (1 Bft) 97,87 %
30.05.2017 05:06 15,4 C 23,9 C 75 % 1011,8 hPa 0,0 l/m 0,7 km/h (0 Bft) SO 125 0 min 0,000 mm 0,0 UV-I 7 W/m 11,0 C 15,4 C 1,6 km/h (1 Bft) 100,00 %
30.05.2017 05:08 15,4 C 23,9 C 76 % 1011,8 hPa 0,0 l/m 0,5 km/h (0 Bft) SO 125 0 min 0,000 mm 0,0 UV-I 7 W/m 11,2 C 15,4 C 1,6 km/h (1 Bft) 97,87 %
30.05.2017 05:10 15,3 C 23,9 C 77 % 1011,8 hPa 0,0 l/m 0,4 km/h (0 Bft) SO 125 0 min 0,000 mm 0,0 UV-I 7 W/m 11,3 C 15,3 C 1,6 km/h (1 Bft) 100,00 %
30.05.2017 05:12 15,3 C 23,9 C 77 % 1011,8 hPa 0,0 l/m 0,0 km/h (0 Bft) SO 125 0 min 0,000 mm 0,0 UV-I 8 W/m 11,3 C 15,3 C 1,6 km/h (1 Bft) 95,12 %
30.05.2017 05:14 15,2 C 23,9 C 78 % 1011,8 hPa 0,0 l/m 0,0 km/h (0 Bft) SO 125 0 min 0,000 mm 0,0 UV-I 9 W/m 11,4 C 15,2 C 0,0 km/h (0 Bft) 100,00 %
30.05.2017 05:16 15,2 C 23,9 C 78 % 1011,7 hPa 0,0 l/m 0,0 km/h (0 Bft) SO 125 0 min 0,000 mm 0,0 UV-I 11 W/m 11,4 C 15,2 C 0,0 km/h (0 Bft) 97,87 %
30.05.2017 05:18 15,2 C 23,9 C 77 % 1011,8 hPa 0,0 l/m 0,0 km/h (0 Bft) SO 125 0 min 0,000 mm 0,0 UV-I 11 W/m 11,2 C 15,2 C 0,0 km/h (0 Bft) 97,44 %
30.05.2017 05:20 15,2 C 23,9 C 77 % 1011,8 hPa 0,0 l/m 0,9 km/h (0 Bft) SO 125 0 min 0,000 mm 0,0 UV-I 12 W/m 11,2 C 15,2 C 3,2 km/h (1 Bft) 98,11 %
30.05.2017 05:22 15,2 C 23,9 C 78 % 1011,8 hPa 0,0 l/m 3,3 km/h (1 Bft) SO 125 2 min 0,000 mm 0,0 UV-I 12 W/m 11,4 C 15,2 C 4,8 km/h (1 Bft) 92,00 %
30.05.2017 05:24 15,1 C 23,9 C 78 % 1011,8 hPa 0,0 l/m 1,8 km/h (1 Bft) SO 125 2 min 0,000 mm 0,0 UV-I 14 W/m 11,3 C 15,1 C 3,2 km/h (1 Bft) 92,11 %
30.05.2017 05:26 15,0 C 23,9 C 78 % 1011,9 hPa 0,0 l/m 1,5 km/h (1 Bft) SO 125 2 min 0,000 mm 0,0 UV-I 15 W/m 11,2 C 15,0 C 3,2 km/h (1 Bft) 94,00 %
30.05.2017 05:28 14,9 C 23,9 C 78 % 1011,9 hPa 0,0 l/m 2,6 km/h (1 Bft) SO 125 2 min 0,000 mm 0,0 UV-I 17 W/m 11,1 C 14,9 C 4,8 km/h (1 Bft) 96,23 %
30.05.2017 05:30 14,9 C 23,9 C 78 % 1011,8 hPa 0,0 l/m 3,4 km/h (1 Bft) SO 126 0 min 0,000 mm 0,0 UV-I 19 W/m 11,1 C 14,9 C 4,8 km/h (1 Bft) 95,74 %
30.05.2017 05:32 14,9 C 23,9 C 78 % 1011,8 hPa 0,0 l/m 1,9 km/h (1 Bft) SO 126 0 min 0,000 mm 0,0 UV-I 20 W/m 11,1 C 14,9 C 3,2 km/h (1 Bft) 97,87 %
30.05.2017 05:34 15,0 C 23,9 C 78 % 1011,9 hPa 0,0 l/m 0,5 km/h (0 Bft) SO 126 0 min 0,000 mm 0,0 UV-I 21 W/m 11,2 C 15,0 C 1,6 km/h (1 Bft) 97,37 %
30.05.2017 05:36 15,0 C 23,9 C 78 % 1011,9 hPa 0,0 l/m 0,4 km/h (0 Bft) SO 126 0 min 0,000 mm 0,0 UV-I 23 W/m 11,2 C 15,0 C 1,6 km/h (1 Bft) 95,74 %
30.05.2017 05:38 15,1 C 23,9 C 78 % 1011,9 hPa 0,0 l/m 0,7 km/h (0 Bft) SO 126 0 min 0,000 mm 0,0 UV-I 27 W/m 11,3 C 15,1 C 1,6 km/h (1 Bft) 95,74 %
30.05.2017 05:40 15,2 C 23,9 C 76 % 1011,9 hPa 0,0 l/m 0,7 km/h (0 Bft) SO 126 0 min 0,000 mm 0,0 UV-I 28 W/m 11,0 C 15,2 C 3,2 km/h (1 Bft) 98,11 %
30.05.2017 05:42 15,3 C 23,9 C 76 % 1012,0 hPa 0,0 l/m 1,5 km/h (1 Bft) SO 126 0 min 0,000 mm 0,0 UV-I 28 W/m 11,1 C 15,3 C 3,2 km/h (1 Bft) 97,14 %
30.05.2017 05:44 15,4 C 23,9 C 76 % 1012,0 hPa 0,0 l/m 0,3 km/h (0 Bft) SO 126 0 min 0,000 mm 0,0 UV-I 31 W/m 11,2 C 15,4 C 1,6 km/h (1 Bft) 96,61 %
30.05.2017 05:46 15,4 C 23,9 C 76 % 1012,0 hPa 0,0 l/m 0,0 km/h (0 Bft) SO 126 0 min 0,000 mm 0,0 UV-I 34 W/m 11,2 C 15,4 C 0,0 km/h (0 Bft) 95,74 %
30.05.2017 05:48 15,3 C 23,9 C 76 % 1012,0 hPa 0,0 l/m 0,0 km/h (0 Bft) SO 126 0 min 0,000 mm 0,0 UV-I 36 W/m 11,1 C 15,3 C 0,0 km/h (0 Bft) 95,74 %
30.05.2017 05:50 15,3 C 23,9 C 76 % 1012,0 hPa 0,0 l/m 0,1 km/h (0 Bft) SO 126 0 min 0,000 mm 0,0 UV-I 37 W/m 11,1 C 15,3 C 1,6 km/h (1 Bft) 97,87 %
30.05.2017 05:52 15,3 C 23,9 C 76 % 1012,0 hPa 0,0 l/m 1,2 km/h (1 Bft) SO 126 0 min 0,000 mm 0,0 UV-I 37 W/m 11,1 C 15,3 C 3,2 km/h (1 Bft) 97,44 %
30.05.2017 05:54 15,3 C 23,9 C 76 % 1011,9 hPa 0,0 l/m 1,4 km/h (1 Bft) SO 126 0 min 0,000 mm 0,0 UV-I 38 W/m 11,1 C 15,3 C 1,6 km/h (1 Bft) 100,00 %
30.05.2017 05:56 15,3 C 23,9 C 76 % 1012,0 hPa 0,0 l/m 2,6 km/h (1 Bft) SO 126 0 min 0,000 mm 0,0 UV-I 44 W/m 11,1 C 15,3 C 3,2 km/h (1 Bft) 98,00 %
30.05.2017 05:58 15,3 C 23,9 C 76 % 1011,9 hPa 0,0 l/m 2,1 km/h (1 Bft) SO 126 0 min 0,000 mm 0,0 UV-I 52 W/m 11,1 C 15,3 C 4,8 km/h (1 Bft) 98,08 %
30.05.2017 06:00 15,2 C 23,9 C 77 % 1012,0 hPa 0,0 l/m 0,1 km/h (0 Bft) SO 126 0 min 0,026 mm 0,0 UV-I 59 W/m 11,2 C 15,2 C 1,6 km/h (1 Bft) 89,74 %
30.05.2017 06:02 15,1 C 23,9 C 77 % 1012,0 hPa 0,0 l/m 0,0 km/h (0 Bft) SO 126 0 min 0,000 mm 0,0 UV-I 61 W/m 11,1 C 15,1 C 0,0 km/h (0 Bft) 94,34 %
30.05.2017 06:04 15,1 C 23,9 C 77 % 1012,0 hPa 0,0 l/m 0,4 km/h (0 Bft) SO 126 0 min 0,000 mm 0,0 UV-I 55 W/m 11,1 C 15,1 C 1,6 km/h (1 Bft) 94,74 %
30.05.2017 06:06 15,2 C 23,9 C 77 % 1012,0 hPa 0,0 l/m 0,0 km/h (0 Bft) SO 126 0 min 0,000 mm 0,0 UV-I 53 W/m 11,2 C 15,2 C 1,6 km/h (1 Bft) 93,62 %
30.05.2017 06:08 15,1 C 23,9 C 78 % 1012,1 hPa 0,0 l/m 0,0 km/h (0 Bft) SO 126 0 min 0,000 mm 0,0 UV-I 48 W/m 11,3 C 15,1 C 0,0 km/h (0 Bft) 96,00 %
30.05.2017 06:10 15,1 C 23,9 C 78 % 1012,1 hPa 0,0 l/m 0,0 km/h (0 Bft) SO 126 0 min 0,000 mm 0,0 UV-I 49 W/m 11,3 C 15,1 C 0,0 km/h (0 Bft) 97,73 %
30.05.2017 06:12 15,1 C 23,9 C 81 % 1012,1 hPa 0,0 l/m 0,0 km/h (0 Bft) SO 126 0 min 0,000 mm 0,0 UV-I 53 W/m 11,9 C 15,1 C 0,0 km/h (0 Bft) 96,00 %
30.05.2017 06:14 14,9 C 23,9 C 81 % 1012,1 hPa 0,0 l/m 0,0 km/h (0 Bft) SO 126 0 min 0,000 mm 0,0 UV-I 59 W/m 11,7 C 14,9 C 0,0 km/h (0 Bft) 96,23 %
30.05.2017 06:16 14,9 C 23,9 C 81 % 1012,1 hPa 0,0 l/m 0,6 km/h (0 Bft) SO 126 0 min 0,000 mm 0,0 UV-I 64 W/m 11,7 C 14,9 C 1,6 km/h (1 Bft) 97,87 %
30.05.2017 06:18 14,8 C 23,9 C 80 % 1012,1 hPa 0,0 l/m 1,9 km/h (1 Bft) SO 126 0 min 0,000 mm 0,0 UV-I 57 W/m 11,4 C 14,8 C 3,2 km/h (1 Bft) 97,56 %
30.05.2017 06:20 14,9 C 23,9 C 80 % 1012,1 hPa 0,0 l/m 1,9 km/h (1 Bft) SO 126 0 min 0,000 mm 0,0 UV-I 56 W/m 11,5 C 14,9 C 3,2 km/h (1 Bft) 91,49 %
30.05.2017 06:22 15,0 C 23,9 C 80 % 1012,2 hPa 0,0 l/m 0,4 km/h (0 Bft) SO 126 0 min 0,000 mm 0,0 UV-I 58 W/m 11,6 C 15,0 C 1,6 km/h (1 Bft) 91,49 %
30.05.2017 06:24 15,2 C 23,9 C 79 % 1012,2 hPa 0,0 l/m 0,0 km/h (0 Bft) SO 126 0 min 0,000 mm 0,0 UV-I 63 W/m 11,6 C 15,2 C 1,6 km/h (1 Bft) 94,00 %
30.05.2017 06:26 15,3 C 23,9 C 80 % 1012,2 hPa 0,0 l/m 0,4 km/h (0 Bft) SO 126 0 min 0,000 mm 0,0 UV-I 67 W/m 11,9 C 15,3 C 3,2 km/h (1 Bft) 95,74 %
30.05.2017 06:28 15,4 C 23,9 C 80 % 1012,2 hPa 0,0 l/m 1,1 km/h (1 Bft) SO 126 0 min 0,000 mm 0,0 UV-I 93 W/m 12,0 C 15,4 C 1,6 km/h (1 Bft) 97,37 %
30.05.2017 06:30 15,6 C 23,9 C 78 % 1012,2 hPa 0,0 l/m 1,3 km/h (1 Bft) SO 126 0 min 0,000 mm 0,0 UV-I 99 W/m 11,8 C 15,6 C 3,2 km/h (1 Bft) 96,00 %
30.05.2017 06:32 15,7 C 23,9 C 78 % 1012,3 hPa 0,0 l/m 2,0 km/h (1 Bft) SO 126 2 min 0,000 mm 0,0 UV-I 107 W/m 11,9 C 15,7 C 3,2 km/h (1 Bft) 96,00 %
30.05.2017 06:34 15,9 C 23,9 C 77 % 1012,2 hPa 0,0 l/m 0,9 km/h (0 Bft) SO 126 2 min 0,000 mm 0,0 UV-I 113 W/m 11,9 C 15,9 C 1,6 km/h (1 Bft) 92,00 %
30.05.2017 06:36 15,9 C 23,9 C 77 % 1012,3 hPa 0,0 l/m 1,2 km/h (1 Bft) SO 126 2 min 0,000 mm 0,0 UV-I 113 W/m 11,9 C 15,9 C 3,2 km/h (1 Bft) 93,62 %
30.05.2017 06:38 16,0 C 23,9 C 78 % 1012,2 hPa 0,0 l/m 3,0 km/h (1 Bft) SO 126 0 min 0,000 mm 0,0 UV-I 107 W/m 12,2 C 16,0 C 4,8 km/h (1 Bft) 94,87 %
30.05.2017 06:40 15,9 C 23,9 C 78 % 1012,3 hPa 0,0 l/m 3,4 km/h (1 Bft) SO 126 0 min 0,000 mm 0,0 UV-I 91 W/m 12,1 C 15,9 C 4,8 km/h (1 Bft) 91,49 %
30.05.2017 06:42 15,9 C 23,9 C 77 % 1012,3 hPa 0,0 l/m 3,1 km/h (1 Bft) SO 126 0 min 0,000 mm 0,0 UV-I 82 W/m 11,9 C 15,9 C 4,8 km/h (1 Bft) 94,00 %
30.05.2017 06:44 15,9 C 23,9 C 77 % 1012,2 hPa 0,0 l/m 2,4 km/h (1 Bft) SO 126 0 min 0,000 mm 0,0 UV-I 86 W/m 11,9 C 15,9 C 3,2 km/h (1 Bft) 96,23 %
30.05.2017 06:46 15,9 C 23,9 C 77 % 1012,3 hPa 0,0 l/m 1,6 km/h (1 Bft) SO 126 0 min 0,000 mm 0,0 UV-I 100 W/m 11,9 C 15,9 C 3,2 km/h (1 Bft) 92,11 %
30.05.2017 06:48 16,1 C 23,9 C 76 % 1012,4 hPa 0,0 l/m 1,9 km/h (1 Bft) SO 126 2 min 0,000 mm 0,0 UV-I 139 W/m 11,9 C 16,1 C 3,2 km/h (1 Bft) 97,87 %
30.05.2017 06:50 16,2 C 23,9 C 76 % 1012,5 hPa 0,0 l/m 2,3 km/h (1 Bft) SO 126 2 min 0,000 mm 0,0 UV-I 163 W/m 12,0 C 16,2 C 4,8 km/h (1 Bft) 100,00 %
30.05.2017 06:52 16,3 C 23,9 C 76 % 1012,5 hPa 0,0 l/m 3,1 km/h (1 Bft) S-SO 164 2 min 0,000 mm 0,0 UV-I 147 W/m 12,1 C 16,3 C 6,4 km/h (2 Bft) 100,00 %
30.05.2017 06:54 16,5 C 23,9 C 75 % 1012,6 hPa 0,0 l/m 4,0 km/h (1 Bft) W-SW 239 0 min 0,000 mm 0,0 UV-I 109 W/m 12,1 C 16,5 C 8,0 km/h (2 Bft) 96,92 %
30.05.2017 06:56 16,6 C 23,9 C 76 % 1012,6 hPa 0,0 l/m 4,4 km/h (1 Bft) W-SW 242 0 min 0,000 mm 0,0 UV-I 129 W/m 12,3 C 16,6 C 6,4 km/h (2 Bft) 97,73 %
30.05.2017 06:58 16,7 C 23,9 C 76 % 1012,7 hPa 0,0 l/m 4,5 km/h (1 Bft) SW 232 0 min 0,000 mm 0,0 UV-I 131 W/m 12,4 C 16,7 C 6,4 km/h (2 Bft) 96,23 %
30.05.2017 07:00 16,6 C 23,9 C 77 % 1012,7 hPa 0,0 l/m 5,1 km/h (1 Bft) SW 219 0 min 0,000 mm 0,0 UV-I 132 W/m 12,5 C 16,6 C 6,4 km/h (2 Bft) 98,00 %
30.05.2017 07:02 16,6 C 23,9 C 76 % 1012,8 hPa 0,0 l/m 6,8 km/h (2 Bft) SW 229 0 min 0,050 mm 0,0 UV-I 141 W/m 12,3 C 16,4 C 11,3 km/h (2 Bft) 100,00 %
30.05.2017 07:04 16,7 C 23,9 C 76 % 1012,8 hPa 0,0 l/m 8,8 km/h (2 Bft) S-SW 209 0 min 0,000 mm 0,0 UV-I 150 W/m 12,4 C 15,5 C 11,3 km/h (2 Bft) 100,00 %
30.05.2017 07:06 16,8 C 23,9 C 75 % 1012,8 hPa 0,0 l/m 7,3 km/h (2 Bft) SW 230 0 min 0,000 mm 0,0 UV-I 155 W/m 12,3 C 16,3 C 9,7 km/h (2 Bft) 100,00 %
30.05.2017 07:08 16,9 C 23,9 C 75 % 1012,8 hPa 0,0 l/m 7,4 km/h (2 Bft) S 188 2 min 0,000 mm 0,0 UV-I 161 W/m 12,4 C 16,4 C 11,3 km/h (2 Bft) 98,51 %
30.05.2017 07:10 17,1 C 23,9 C 75 % 1012,9 hPa 0,0 l/m 7,2 km/h (2 Bft) SW 234 2 min 0,000 mm 0,0 UV-I 168 W/m 12,6 C 16,7 C 9,7 km/h (2 Bft) 89,29 %
30.05.2017 07:12 17,2 C 23,9 C 75 % 1012,9 hPa 0,0 l/m 6,5 km/h (2 Bft) SW 226 2 min 0,000 mm 0,0 UV-I 171 W/m 12,7 C 17,2 C 9,7 km/h (2 Bft) 94,87 %
30.05.2017 07:14 17,2 C 23,9 C 74 % 1012,9 hPa 0,0 l/m 6,4 km/h (2 Bft) S 191 2 min 0,000 mm 0,0 UV-I 172 W/m 12,5 C 17,2 C 11,3 km/h (2 Bft) 92,31 %
30.05.2017 07:16 17,3 C 23,9 C 75 % 1012,9 hPa 0,0 l/m 5,2 km/h (1 Bft) S-SW 208 2 min 0,000 mm 0,0 UV-I 177 W/m 12,8 C 17,3 C 8,0 km/h (2 Bft) 97,92 %
30.05.2017 07:18 17,4 C 23,9 C 74 % 1012,9 hPa 0,0 l/m 5,0 km/h (1 Bft) SW 227 2 min 0,000 mm 0,1 UV-I 181 W/m 12,7 C 17,4 C 9,7 km/h (2 Bft) 97,37 %
30.05.2017 07:20 17,5 C 23,9 C 74 % 1012,8 hPa 0,0 l/m 3,6 km/h (1 Bft) SW 224 0 min 0,000 mm 0,5 UV-I 171 W/m 12,8 C 17,5 C 4,8 km/h (1 Bft) 97,73 %
30.05.2017 07:22 17,6 C 23,9 C 74 % 1012,8 hPa 0,0 l/m 4,1 km/h (1 Bft) S-SW 200 0 min 0,000 mm 0,5 UV-I 150 W/m 12,9 C 17,6 C 6,4 km/h (2 Bft) 96,43 %
30.05.2017 07:24 17,7 C 23,9 C 73 % 1012,8 hPa 0,0 l/m 2,4 km/h (1 Bft) S 182 0 min 0,000 mm 0,5 UV-I 136 W/m 12,8 C 17,7 C 6,4 km/h (2 Bft) 97,87 %
30.05.2017 07:26 17,7 C 23,9 C 73 % 1012,7 hPa 0,0 l/m 2,2 km/h (1 Bft) S 182 0 min 0,000 mm 0,5 UV-I 128 W/m 12,8 C 17,7 C 4,8 km/h (1 Bft) 96,00 %
30.05.2017 07:28 17,8 C 23,9 C 72 % 1012,7 hPa 0,0 l/m 1,5 km/h (1 Bft) S 182 0 min 0,000 mm 0,5 UV-I 126 W/m 12,7 C 17,8 C 3,2 km/h (1 Bft) 91,43 %
30.05.2017 07:30 17,8 C 23,9 C 72 % 1012,7 hPa 0,0 l/m 0,6 km/h (0 Bft) S 182 0 min 0,000 mm 0,5 UV-I 129 W/m 12,7 C 17,8 C 3,2 km/h (1 Bft) 92,00 %
30.05.2017 07:32 17,9 C 23,9 C 72 % 1012,8 hPa 0,0 l/m 5,0 km/h (1 Bft) S-SW 201 0 min 0,000 mm 0,5 UV-I 135 W/m 12,8 C 17,9 C 8,0 km/h (2 Bft) 96,00 %
30.05.2017 07:34 18,0 C 23,9 C 73 % 1012,8 hPa 0,0 l/m 5,7 km/h (1 Bft) S-SW 204 0 min 0,000 mm 0,5 UV-I 137 W/m 13,1 C 18,0 C 9,7 km/h (2 Bft) 95,74 %
30.05.2017 07:36 18,0 C 23,9 C 73 % 1012,9 hPa 0,0 l/m 6,3 km/h (2 Bft) S-SW 197 0 min 0,000 mm 0,5 UV-I 136 W/m 13,1 C 18,0 C 8,0 km/h (2 Bft) 96,00 %
30.05.2017 07:38 18,0 C 23,9 C 73 % 1012,8 hPa 0,0 l/m 5,8 km/h (2 Bft) S-SW 208 0 min 0,000 mm 0,5 UV-I 134 W/m 13,1 C 18,0 C 8,0 km/h (2 Bft) 95,74 %
30.05.2017 07:40 18,0 C 23,9 C 74 % 1012,9 hPa 0,0 l/m 4,7 km/h (1 Bft) S-SW 209 0 min 0,000 mm 0,5 UV-I 135 W/m 13,3 C 18,0 C 8,0 km/h (2 Bft) 94,74 %
30.05.2017 07:42 18,1 C 23,9 C 74 % 1012,8 hPa 0,0 l/m 4,6 km/h (1 Bft) S-SW 209 0 min 0,000 mm 0,6 UV-I 145 W/m 13,4 C 18,1 C 6,4 km/h (2 Bft) 96,23 %
30.05.2017 07:44 18,1 C 23,9 C 73 % 1012,9 hPa 0,0 l/m 5,8 km/h (2 Bft) W-SW 240 0 min 0,000 mm 0,6 UV-I 154 W/m 13,2 C 18,1 C 8,0 km/h (2 Bft) 94,00 %
30.05.2017 07:46 18,2 C 23,9 C 73 % 1012,9 hPa 0,0 l/m 4,3 km/h (1 Bft) W-SW 240 0 min 0,000 mm 0,6 UV-I 161 W/m 13,3 C 18,2 C 6,4 km/h (2 Bft) 94,74 %
30.05.2017 07:48 18,2 C 23,9 C 73 % 1012,9 hPa 0,0 l/m 5,6 km/h (1 Bft) W 265 0 min 0,000 mm 0,6 UV-I 171 W/m 13,3 C 18,2 C 8,0 km/h (2 Bft) 95,74 %
30.05.2017 07:50 18,3 C 23,9 C 73 % 1012,9 hPa 0,0 l/m 6,4 km/h (2 Bft) SW 236 0 min 0,000 mm 0,6 UV-I 183 W/m 13,4 C 18,3 C 11,3 km/h (2 Bft) 92,00 %
30.05.2017 07:52 18,3 C 23,9 C 73 % 1012,9 hPa 0,0 l/m 7,8 km/h (2 Bft) W-SW 247 0 min 0,000 mm 0,7 UV-I 194 W/m 13,4 C 17,7 C 11,3 km/h (2 Bft) 94,87 %
30.05.2017 07:54 18,4 C 23,9 C 73 % 1012,9 hPa 0,0 l/m 7,9 km/h (2 Bft) SW 219 0 min 0,000 mm 0,7 UV-I 200 W/m 13,5 C 17,7 C 11,3 km/h (2 Bft) 98,31 %
30.05.2017 07:56 18,4 C 23,9 C 73 % 1012,9 hPa 0,0 l/m 7,6 km/h (2 Bft) SW 235 0 min 0,000 mm 0,7 UV-I 200 W/m 13,5 C 17,8 C 11,3 km/h (2 Bft) 95,12 %
30.05.2017 07:58 18,5 C 23,9 C 72 % 1012,9 hPa 0,0 l/m 5,2 km/h (1 Bft) W-SW 240 0 min 0,000 mm 0,7 UV-I 202 W/m 13,4 C 18,5 C 8,0 km/h (2 Bft) 98,00 %
30.05.2017 08:00 18,6 C 23,9 C 72 % 1012,9 hPa 0,0 l/m 7,1 km/h (2 Bft) W-SW 244 0 min 0,102 mm 0,8 UV-I 227 W/m 13,4 C 18,3 C 14,5 km/h (3 Bft) 96,23 %
30.05.2017 08:02 18,7 C 23,9 C 72 % 1012,9 hPa 0,0 l/m 7,8 km/h (2 Bft) SW 221 2 min 0,000 mm 0,9 UV-I 315 W/m 13,5 C 18,1 C 14,5 km/h (3 Bft) 97,56 %
30.05.2017 08:04 18,9 C 23,9 C 71 % 1013,0 hPa 0,0 l/m 7,2 km/h (2 Bft) W-SW 243 2 min 0,000 mm 0,9 UV-I 374 W/m 13,5 C 18,5 C 11,3 km/h (2 Bft) 98,11 %
30.05.2017 08:06 19,1 C 23,9 C 70 % 1013,0 hPa 0,0 l/m 3,8 km/h (1 Bft) W-SW 239 2 min 0,000 mm 1,1 UV-I 439 W/m 13,5 C 19,1 C 8,0 km/h (2 Bft) 97,56 %
30.05.2017 08:08 19,2 C 23,9 C 70 % 1013,0 hPa 0,0 l/m 2,8 km/h (1 Bft) W-SW 252 2 min 0,000 mm 1,1 UV-I 489 W/m 13,6 C 19,2 C 6,4 km/h (2 Bft) 97,87 %
30.05.2017 08:10 19,4 C 23,9 C 69 % 1013,0 hPa 0,0 l/m 2,3 km/h (1 Bft) W 269 2 min 0,000 mm 1,2 UV-I 456 W/m 13,6 C 19,4 C 4,8 km/h (1 Bft) 97,56 %
30.05.2017 08:12 19,6 C 23,9 C 71 % 1013,0 hPa 0,0 l/m 1,1 km/h (1 Bft) W 270 2 min 0,000 mm 1,2 UV-I 444 W/m 14,2 C 19,6 C 3,2 km/h (1 Bft) 100,00 %
30.05.2017 08:14 19,7 C 23,9 C 69 % 1013,0 hPa 0,0 l/m 3,6 km/h (1 Bft) W-NW 291 2 min 0,000 mm 1,2 UV-I 423 W/m 13,8 C 19,7 C 4,8 km/h (1 Bft) 93,62 %
30.05.2017 08:16 19,8 C 23,9 C 69 % 1013,0 hPa 0,0 l/m 4,9 km/h (1 Bft) W-NW 285 2 min 0,000 mm 1,1 UV-I 313 W/m 13,9 C 19,8 C 9,7 km/h (2 Bft) 100,00 %
30.05.2017 08:18 19,9 C 23,9 C 69 % 1013,0 hPa 0,0 l/m 2,1 km/h (1 Bft) W 265 2 min 0,000 mm 1,2 UV-I 329 W/m 14,0 C 19,9 C 4,8 km/h (1 Bft) 100,00 %
30.05.2017 08:20 19,9 C 23,9 C 67 % 1013,0 hPa 0,0 l/m 4,2 km/h (1 Bft) W 280 2 min 0,000 mm 1,2 UV-I 304 W/m 13,6 C 19,9 C 9,7 km/h (2 Bft) 100,00 %
30.05.2017 08:22 20,1 C 23,9 C 69 % 1013,0 hPa 0,0 l/m 4,6 km/h (1 Bft) W 264 2 min 0,000 mm 1,3 UV-I 387 W/m 14,2 C 20,1 C 9,7 km/h (2 Bft) 97,56 %
30.05.2017 08:24 20,2 C 23,9 C 67 % 1013,0 hPa 0,0 l/m 5,9 km/h (2 Bft) W-SW 242 0 min 0,000 mm 1,2 UV-I 259 W/m 13,9 C 20,2 C 9,7 km/h (2 Bft) 98,00 %
30.05.2017 08:26 20,3 C 23,9 C 67 % 1013,1 hPa 0,0 l/m 6,0 km/h (2 Bft) SW 234 0 min 0,000 mm 1,3 UV-I 247 W/m 14,0 C 20,3 C 11,3 km/h (2 Bft) 100,00 %
30.05.2017 08:28 20,4 C 23,9 C 64 % 1013,1 hPa 0,0 l/m 7,1 km/h (2 Bft) W-SW 248 2 min 0,000 mm 1,3 UV-I 331 W/m 13,4 C 20,1 C 11,3 km/h (2 Bft) 94,34 %
30.05.2017 08:30 20,6 C 23,9 C 65 % 1013,1 hPa 0,0 l/m 7,5 km/h (2 Bft) W 265 2 min 0,000 mm 1,5 UV-I 469 W/m 13,8 C 20,2 C 11,3 km/h (2 Bft) 100,00 %
30.05.2017 08:32 20,7 C 23,9 C 63 % 1013,1 hPa 0,0 l/m 7,1 km/h (2 Bft) W 264 2 min 0,000 mm 1,5 UV-I 476 W/m 13,4 C 20,4 C 11,3 km/h (2 Bft) 97,62 %
30.05.2017 08:34 20,9 C 23,9 C 62 % 1013,1 hPa 0,0 l/m 6,0 km/h (2 Bft) W 270 2 min 0,000 mm 1,5 UV-I 422 W/m 13,3 C 20,9 C 11,3 km/h (2 Bft) 100,00 %
30.05.2017 08:36 21,0 C 23,9 C 63 % 1013,1 hPa 0,0 l/m 10,8 km/h (2 Bft) W-SW 253 2 min 0,000 mm 1,6 UV-I 480 W/m 13,7 C 19,5 C 14,5 km/h (3 Bft) 95,24 %
30.05.2017 08:38 21,1 C 23,9 C 63 % 1013,1 hPa 0,0 l/m 8,9 km/h (2 Bft) W-SW 256 2 min 0,000 mm 1,6 UV-I 481 W/m 13,8 C 20,2 C 14,5 km/h (3 Bft) 97,56 %
30.05.2017 08:40 21,2 C 23,9 C 62 % 1013,2 hPa 0,0 l/m 7,1 km/h (2 Bft) SW 234 2 min 0,000 mm 1,6 UV-I 477 W/m 13,6 C 20,9 C 9,7 km/h (2 Bft) 100,00 %
30.05.2017 08:42 21,3 C 23,9 C 63 % 1013,2 hPa 0,0 l/m 4,3 km/h (1 Bft) NW 308 2 min 0,000 mm 1,7 UV-I 475 W/m 14,0 C 21,3 C 8,0 km/h (2 Bft) 98,00 %
30.05.2017 08:44 21,4 C 23,9 C 63 % 1013,2 hPa 0,0 l/m 5,9 km/h (2 Bft) W-SW 252 2 min 0,000 mm 1,7 UV-I 474 W/m 14,1 C 21,4 C 11,3 km/h (2 Bft) 97,87 %
30.05.2017 08:46 21,5 C 23,9 C 63 % 1013,1 hPa 0,0 l/m 6,9 km/h (2 Bft) W-SW 242 2 min 0,000 mm 1,7 UV-I 478 W/m 14,2 C 21,3 C 12,9 km/h (3 Bft) 100,00 %
30.05.2017 08:48 21,6 C 23,9 C 62 % 1013,1 hPa 0,0 l/m 6,9 km/h (2 Bft) S-SW 208 2 min 0,000 mm 1,8 UV-I 486 W/m 14,0 C 21,4 C 12,9 km/h (3 Bft) 93,62 %
30.05.2017 08:50 21,7 C 23,9 C 61 % 1013,1 hPa 0,0 l/m 5,9 km/h (2 Bft) W-SW 252 2 min 0,000 mm 1,8 UV-I 490 W/m 13,8 C 21,7 C 14,5 km/h (3 Bft) 98,11 %
30.05.2017 08:52 21,8 C 23,9 C 62 % 1013,1 hPa 0,0 l/m 6,2 km/h (2 Bft) S-SW 207 2 min 0,000 mm 1,9 UV-I 497 W/m 14,2 C 21,8 C 9,7 km/h (2 Bft) 97,73 %
30.05.2017 08:54 21,9 C 23,9 C 61 % 1013,1 hPa 0,0 l/m 4,4 km/h (1 Bft) W-SW 244 2 min 0,000 mm 1,9 UV-I 504 W/m 14,0 C 21,9 C 9,7 km/h (2 Bft) 98,00 %
30.05.2017 08:56 22,0 C 23,9 C 61 % 1013,1 hPa 0,0 l/m 6,5 km/h (2 Bft) W 264 2 min 0,000 mm 2,0 UV-I 511 W/m 14,1 C 22,0 C 11,3 km/h (2 Bft) 100,00 %
30.05.2017 08:58 22,1 C 23,9 C 64 % 1013,2 hPa 0,0 l/m 4,3 km/h (1 Bft) W 269 2 min 0,000 mm 2,0 UV-I 516 W/m 15,0 C 22,1 C 8,0 km/h (2 Bft) 97,37 %
30.05.2017 09:00 22,2 C 23,9 C 61 % 1013,2 hPa 0,0 l/m 6,2 km/h (2 Bft) W-SW 249 2 min 0,279 mm 2,1 UV-I 521 W/m 14,3 C 22,2 C 11,3 km/h (2 Bft) 96,00 %
30.05.2017 09:02 22,2 C 23,9 C 59 % 1013,2 hPa 0,0 l/m 7,4 km/h (2 Bft) W 273 2 min 0,000 mm 2,1 UV-I 534 W/m 13,8 C 21,9 C 11,3 km/h (2 Bft) 98,11 %
30.05.2017 09:04 22,2 C 23,9 C 59 % 1013,1 hPa 0,0 l/m 11,0 km/h (2 Bft) W-NW 298 2 min 0,000 mm 2,1 UV-I 544 W/m 13,8 C 20,8 C 16,1 km/h (3 Bft) 93,33 %
30.05.2017 09:06 22,3 C 23,9 C 59 % 1013,1 hPa 0,0 l/m 7,7 km/h (2 Bft) SW 232 2 min 0,000 mm 2,2 UV-I 549 W/m 13,9 C 21,9 C 14,5 km/h (3 Bft) 97,26 %
30.05.2017 09:08 22,3 C 23,9 C 58 % 1013,1 hPa 0,0 l/m 8,3 km/h (2 Bft) W 265 2 min 0,000 mm 2,2 UV-I 553 W/m 13,6 C 21,7 C 12,9 km/h (3 Bft) 97,62 %
30.05.2017 09:10 22,4 C 23,9 C 58 % 1013,2 hPa 0,0 l/m 6,4 km/h (2 Bft) W-NW 302 2 min 0,000 mm 2,3 UV-I 556 W/m 13,7 C 22,4 C 11,3 km/h (2 Bft) 96,08 %
30.05.2017 09:12 22,6 C 23,9 C 60 % 1013,1 hPa 0,0 l/m 5,4 km/h (1 Bft) W 262 2 min 0,000 mm 2,3 UV-I 561 W/m 14,4 C 22,6 C 11,3 km/h (2 Bft) 95,74 %
30.05.2017 09:14 22,7 C 23,9 C 58 % 1013,1 hPa 0,0 l/m 9,5 km/h (2 Bft) W-SW 255 2 min 0,000 mm 2,3 UV-I 566 W/m 14,0 C 21,8 C 12,9 km/h (3 Bft) 94,23 %
30.05.2017 09:16 22,8 C 23,9 C 59 % 1013,2 hPa 0,0 l/m 6,3 km/h (2 Bft) SW 236 2 min 0,000 mm 2,4 UV-I 573 W/m 14,4 C 22,8 C 11,3 km/h (2 Bft) 97,44 %
30.05.2017 09:18 22,8 C 23,9 C 58 % 1013,1 hPa 0,0 l/m 5,3 km/h (1 Bft) W-SW 248 2 min 0,000 mm 2,5 UV-I 580 W/m 14,1 C 22,8 C 12,9 km/h (3 Bft) 98,11 %
30.05.2017 09:20 22,9 C 23,9 C 59 % 1013,1 hPa 0,0 l/m 7,3 km/h (2 Bft) W-SW 252 2 min 0,000 mm 2,5 UV-I 584 W/m 14,5 C 22,6 C 12,9 km/h (3 Bft) 96,00 %
30.05.2017 09:22 23,1 C 23,9 C 58 % 1013,1 hPa 0,0 l/m 7,9 km/h (2 Bft) W-SW 256 2 min 0,000 mm 2,5 UV-I 587 W/m 14,4 C 22,6 C 12,9 km/h (3 Bft) 97,14 %
30.05.2017 09:24 23,2 C 23,9 C 58 % 1013,1 hPa 0,0 l/m 7,2 km/h (2 Bft) W 266 2 min 0,000 mm 2,6 UV-I 591 W/m 14,5 C 23,0 C 12,9 km/h (3 Bft) 94,34 %
30.05.2017 09:26 23,2 C 23,9 C 58 % 1013,1 hPa 0,0 l/m 7,2 km/h (2 Bft) W-SW 253 2 min 0,000 mm 2,6 UV-I 599 W/m 14,5 C 23,0 C 14,5 km/h (3 Bft) 97,87 %
30.05.2017 09:28 23,3 C 23,9 C 58 % 1013,1 hPa 0,0 l/m 9,0 km/h (2 Bft) W-SW 251 2 min 0,000 mm 2,7 UV-I 604 W/m 14,6 C 22,5 C 16,1 km/h (3 Bft) 96,15 %
30.05.2017 09:30 23,3 C 23,9 C 57 % 1013,1 hPa 0,0 l/m 7,5 km/h (2 Bft) W-SW 257 2 min 0,000 mm 2,7 UV-I 607 W/m 14,3 C 23,0 C 12,9 km/h (3 Bft) 94,37 %
30.05.2017 09:32 23,5 C 23,9 C 57 % 1013,1 hPa 0,0 l/m 2,8 km/h (1 Bft) W 271 2 min 0,000 mm 2,8 UV-I 608 W/m 14,5 C 23,5 C 6,4 km/h (2 Bft) 90,91 %
30.05.2017 09:34 23,6 C 23,9 C 58 % 1013,1 hPa 0,0 l/m 6,4 km/h (2 Bft) W-NW 296 2 min 0,000 mm 2,8 UV-I 612 W/m 14,8 C 23,6 C 11,3 km/h (2 Bft) 95,45 %
30.05.2017 09:36 23,7 C 23,9 C 56 % 1013,1 hPa 0,0 l/m 3,7 km/h (1 Bft) W 265 2 min 0,000 mm 2,8 UV-I 617 W/m 14,4 C 23,7 C 6,4 km/h (2 Bft) 96,00 %
30.05.2017 09:38 23,7 C 23,9 C 57 % 1013,1 hPa 0,0 l/m 3,7 km/h (1 Bft) W-NW 288 2 min 0,000 mm 2,9 UV-I 621 W/m 14,7 C 23,7 C 6,4 km/h (2 Bft) 92,00 %
30.05.2017 09:40 23,8 C 23,9 C 56 % 1013,1 hPa 0,0 l/m 6,7 km/h (2 Bft) W-SW 248 2 min 0,000 mm 2,9 UV-I 622 W/m 14,5 C 23,7 C 11,3 km/h (2 Bft) 87,23 %
30.05.2017 09:42 23,8 C 23,9 C 56 % 1013,1 hPa 0,0 l/m 2,7 km/h (1 Bft) W-SW 256 2 min 0,000 mm 3,0 UV-I 624 W/m 14,5 C 23,8 C 6,4 km/h (2 Bft) 95,45 %
30.05.2017 09:44 23,9 C 23,9 C 55 % 1013,1 hPa 0,0 l/m 6,2 km/h (2 Bft) W-SW 258 2 min 0,000 mm 3,0 UV-I 629 W/m 14,3 C 23,9 C 11,3 km/h (2 Bft) 90,91 %
30.05.2017 09:46 23,9 C 23,9 C 57 % 1013,1 hPa 0,0 l/m 6,2 km/h (2 Bft) W-SW 239 2 min 0,000 mm 3,1 UV-I 635 W/m 14,9 C 23,9 C 11,3 km/h (2 Bft) 94,00 %
30.05.2017 09:48 24,0 C 23,9 C 57 % 1013,1 hPa 0,0 l/m 6,9 km/h (2 Bft) SW 224 2 min 0,000 mm 3,1 UV-I 643 W/m 14,9 C 23,9 C 11,3 km/h (2 Bft) 92,31 %
30.05.2017 09:50 24,1 C 23,9 C 56 % 1013,0 hPa 0,0 l/m 6,7 km/h (2 Bft) SW 227 2 min 0,000 mm 3,1 UV-I 650 W/m 14,8 C 24,0 C 12,9 km/h (3 Bft) 92,45 %
30.05.2017 09:52 24,2 C 23,9 C 56 % 1013,1 hPa 0,0 l/m 7,4 km/h (2 Bft) W-SW 255 2 min 0,000 mm 3,2 UV-I 654 W/m 14,9 C 23,9 C 12,9 km/h (3 Bft) 96,00 %
30.05.2017 09:54 24,2 C 23,9 C 54 % 1013,0 hPa 0,0 l/m 7,6 km/h (2 Bft) W 259 2 min 0,000 mm 3,2 UV-I 657 W/m 14,3 C 23,9 C 12,9 km/h (3 Bft) 93,62 %
30.05.2017 09:56 24,2 C 23,9 C 56 % 1013,0 hPa 0,0 l/m 8,9 km/h (2 Bft) W 270 2 min 0,000 mm 3,3 UV-I 662 W/m 14,9 C 23,5 C 14,5 km/h (3 Bft) 97,87 %
30.05.2017 09:58 24,3 C 23,9 C 56 % 1013,0 hPa 0,0 l/m 3,1 km/h (1 Bft) N 355 2 min 0,000 mm 3,3 UV-I 670 W/m 14,9 C 24,3 C 12,9 km/h (3 Bft) 94,74 %
30.05.2017 10:00 24,4 C 23,9 C 57 % 1013,0 hPa 0,0 l/m 6,8 km/h (2 Bft) W 264 2 min 0,407 mm 3,4 UV-I 679 W/m 15,3 C 24,3 C 9,7 km/h (2 Bft) 98,11 %
30.05.2017 10:02 24,4 C 23,9 C 54 % 1013,0 hPa 0,0 l/m 9,5 km/h (2 Bft) W 271 2 min 0,000 mm 3,5 UV-I 684 W/m 14,5 C 23,6 C 14,5 km/h (3 Bft) 92,00 %
30.05.2017 10:04 24,4 C 23,9 C 55 % 1013,1 hPa 0,0 l/m 9,5 km/h (2 Bft) W 263 2 min 0,000 mm 3,5 UV-I 688 W/m 14,8 C 23,6 C 16,1 km/h (3 Bft) 92,68 %
30.05.2017 10:06 24,6 C 23,9 C 54 % 1013,0 hPa 0,0 l/m 5,8 km/h (2 Bft) W 267 2 min 0,000 mm 3,5 UV-I 690 W/m 14,7 C 24,6 C 12,9 km/h (3 Bft) 94,34 %
30.05.2017 10:08 24,7 C 23,9 C 54 % 1012,9 hPa 0,0 l/m 3,4 km/h (1 Bft) W-NW 282 2 min 0,000 mm 3,6 UV-I 694 W/m 14,8 C 24,7 C 6,4 km/h (2 Bft) 92,68 %
30.05.2017 10:10 24,8 C 23,9 C 56 % 1012,9 hPa 0,0 l/m 5,9 km/h (2 Bft) W 265 2 min 0,000 mm 3,7 UV-I 696 W/m 15,4 C 24,8 C 14,5 km/h (3 Bft) 98,00 %
30.05.2017 10:12 24,8 C 23,9 C 55 % 1012,9 hPa 0,0 l/m 9,8 km/h (2 Bft) W 273 2 min 0,000 mm 3,7 UV-I 700 W/m 15,1 C 24,0 C 16,1 km/h (3 Bft) 93,62 %
30.05.2017 10:14 24,8 C 23,9 C 53 % 1012,9 hPa 0,0 l/m 7,9 km/h (2 Bft) W-NW 286 2 min 0,000 mm 3,7 UV-I 703 W/m 14,6 C 24,4 C 12,9 km/h (3 Bft) 92,11 %
30.05.2017 10:16 24,9 C 23,9 C 53 % 1012,9 hPa 0,0 l/m 3,3 km/h (1 Bft) N-NW 329 2 min 0,000 mm 3,8 UV-I 705 W/m 14,6 C 24,9 C 6,4 km/h (2 Bft) 98,11 %
30.05.2017 10:18 25,0 C 23,9 C 52 % 1012,9 hPa 0,0 l/m 6,1 km/h (2 Bft) W-SW 258 2 min 0,000 mm 3,8 UV-I 710 W/m 14,4 C 25,0 C 11,3 km/h (2 Bft) 92,68 %
30.05.2017 10:20 25,0 C 23,9 C 53 % 1012,9 hPa 0,0 l/m 4,1 km/h (1 Bft) W-SW 243 2 min 0,000 mm 3,9 UV-I 715 W/m 14,7 C 25,0 C 6,4 km/h (2 Bft) 94,64 %
30.05.2017 10:22 25,1 C 23,9 C 55 % 1012,8 hPa 0,0 l/m 1,5 km/h (1 Bft) W-NW 294 2 min 0,000 mm 4,0 UV-I 717 W/m 15,4 C 25,1 C 4,8 km/h (1 Bft) 92,11 %
30.05.2017 10:24 25,1 C 23,9 C 53 % 1012,8 hPa 0,0 l/m 3,5 km/h (1 Bft) W-SW 247 2 min 0,000 mm 4,0 UV-I 721 W/m 14,8 C 25,1 C 9,7 km/h (2 Bft) 95,83 %
30.05.2017 10:26 25,1 C 23,9 C 54 % 1012,8 hPa 0,0 l/m 7,2 km/h (2 Bft) SW 219 2 min 0,000 mm 4,0 UV-I 728 W/m 15,1 C 24,9 C 11,3 km/h (2 Bft) 98,08 %
30.05.2017 10:28 25,1 C 23,9 C 54 % 1012,9 hPa 0,0 l/m 7,3 km/h (2 Bft) W 274 2 min 0,000 mm 4,1 UV-I 729 W/m 15,1 C 24,9 C 12,9 km/h (3 Bft) 94,44 %
30.05.2017 10:30 25,1 C 23,9 C 53 % 1012,9 hPa 0,0 l/m 5,3 km/h (1 Bft) W 265 2 min 0,000 mm 4,1 UV-I 730 W/m 14,8 C 25,1 C 11,3 km/h (2 Bft) 95,08 %
30.05.2017 10:32 25,2 C 23,9 C 54 % 1012,9 hPa 0,0 l/m 4,9 km/h (1 Bft) W 280 2 min 0,000 mm 4,1 UV-I 729 W/m 15,2 C 25,2 C 11,3 km/h (2 Bft) 97,92 %
30.05.2017 10:34 25,4 C 23,9 C 53 % 1012,9 hPa 0,0 l/m 4,1 km/h (1 Bft) W-NW 292 2 min 0,000 mm 4,2 UV-I 734 W/m 15,1 C 25,4 C 6,4 km/h (2 Bft) 90,24 %
30.05.2017 10:36 25,4 C 23,9 C 52 % 1012,9 hPa 0,0 l/m 8,6 km/h (2 Bft) W-SW 244 2 min 0,000 mm 4,2 UV-I 736 W/m 14,8 C 24,9 C 12,9 km/h (3 Bft) 96,23 %
30.05.2017 10:38 25,4 C 23,9 C 53 % 1012,9 hPa 0,0 l/m 6,3 km/h (2 Bft) W-SW 250 2 min 0,000 mm 4,2 UV-I 737 W/m 15,1 C 25,4 C 11,3 km/h (2 Bft) 95,74 %
30.05.2017 10:40 25,4 C 23,9 C 53 % 1012,9 hPa 0,0 l/m 3,3 km/h (1 Bft) NW 306 2 min 0,000 mm 4,3 UV-I 738 W/m 15,1 C 25,4 C 8,0 km/h (2 Bft) 95,12 %
30.05.2017 10:42 25,4 C 23,9 C 58 % 1012,9 hPa 0,0 l/m 5,9 km/h (2 Bft) W-SW 250 2 min 0,000 mm 4,3 UV-I 739 W/m 16,5 C 25,4 C 11,3 km/h (2 Bft) 95,45 %
30.05.2017 10:44 25,5 C 23,9 C 53 % 1012,9 hPa 0,0 l/m 8,7 km/h (2 Bft) W 262 2 min 0,000 mm 4,4 UV-I 746 W/m 15,2 C 25,0 C 14,5 km/h (3 Bft) 98,00 %
30.05.2017 10:46 25,4 C 23,9 C 52 % 1012,9 hPa 0,0 l/m 7,2 km/h (2 Bft) SW 235 2 min 0,000 mm 4,4 UV-I 751 W/m 14,8 C 25,2 C 14,5 km/h (3 Bft) 97,56 %
30.05.2017 10:48 25,4 C 24,4 C 53 % 1012,9 hPa 0,0 l/m 3,9 km/h (1 Bft) W 267 2 min 0,000 mm 4,5 UV-I 753 W/m 15,1 C 25,4 C 8,0 km/h (2 Bft) 98,00 %
30.05.2017 10:50 25,5 C 24,4 C 53 % 1012,9 hPa 0,0 l/m 3,7 km/h (1 Bft) SW 217 2 min 0,000 mm 4,5 UV-I 757 W/m 15,2 C 25,5 C 8,0 km/h (2 Bft) 100,00 %
30.05.2017 10:52 25,7 C 24,4 C 59 % 1013,0 hPa 0,0 l/m 4,4 km/h (1 Bft) W-NW 286 2 min 0,000 mm 4,6 UV-I 762 W/m 17,1 C 25,7 C 12,9 km/h (3 Bft) 95,74 %
30.05.2017 10:54 25,9 C 24,4 C 53 % 1012,9 hPa 0,0 l/m 5,4 km/h (1 Bft) W-SW 245 2 min 0,000 mm 4,6 UV-I 769 W/m 15,6 C 25,9 C 11,3 km/h (2 Bft) 100,00 %
30.05.2017 10:56 25,9 C 24,4 C 51 % 1013,0 hPa 0,0 l/m 5,4 km/h (1 Bft) W-NW 301 2 min 0,000 mm 4,6 UV-I 776 W/m 15,0 C 25,9 C 11,3 km/h (2 Bft) 96,00 %
30.05.2017 10:58 25,8 C 24,4 C 51 % 1013,0 hPa 0,0 l/m 3,3 km/h (1 Bft) W-SW 247 2 min 0,000 mm 4,7 UV-I 786 W/m 14,9 C 25,8 C 6,4 km/h (2 Bft) 97,56 %
30.05.2017 11:00 25,8 C 24,4 C 52 % 1013,0 hPa 0,0 l/m 9,0 km/h (2 Bft) SW 232 2 min 0,508 mm 4,8 UV-I 789 W/m 15,2 C 25,2 C 17,7 km/h (3 Bft) 100,00 %
30.05.2017 11:02 25,9 C 24,4 C 51 % 1013,0 hPa 0,0 l/m 5,1 km/h (1 Bft) W-SW 258 2 min 0,000 mm 4,8 UV-I 791 W/m 15,0 C 25,9 C 14,5 km/h (3 Bft) 98,00 %
30.05.2017 11:04 26,0 C 24,4 C 51 % 1013,0 hPa 0,0 l/m 8,8 km/h (2 Bft) S-SW 211 2 min 0,000 mm 4,9 UV-I 791 W/m 15,1 C 25,5 C 12,9 km/h (3 Bft) 100,00 %
30.05.2017 11:06 26,0 C 24,4 C 52 % 1013,0 hPa 0,0 l/m 5,7 km/h (1 Bft) W-SW 252 2 min 0,000 mm 4,9 UV-I 794 W/m 15,4 C 26,0 C 9,7 km/h (2 Bft) 100,00 %
30.05.2017 11:08 26,1 C 24,4 C 51 % 1013,0 hPa 0,0 l/m 9,0 km/h (2 Bft) S-SW 211 2 min 0,000 mm 4,9 UV-I 793 W/m 15,2 C 25,6 C 14,5 km/h (3 Bft) 96,36 %
30.05.2017 11:10 26,1 C 24,4 C 53 % 1012,9 hPa 0,0 l/m 3,2 km/h (1 Bft) NW 308 2 min 0,000 mm 4,9 UV-I 797 W/m 15,8 C 26,1 C 4,8 km/h (1 Bft) 91,49 %
30.05.2017 11:12 26,2 C 24,4 C 53 % 1012,9 hPa 0,0 l/m 1,8 km/h (1 Bft) W-NW 293 2 min 0,000 mm 5,0 UV-I 802 W/m 15,8 C 26,2 C 3,2 km/h (1 Bft) 100,00 %
30.05.2017 11:14 26,2 C 24,4 C 52 % 1012,9 hPa 0,0 l/m 4,4 km/h (1 Bft) W 260 2 min 0,000 mm 5,0 UV-I 804 W/m 15,6 C 26,2 C 11,3 km/h (2 Bft) 96,23 %
30.05.2017 11:16 26,1 C 24,4 C 52 % 1012,9 hPa 0,0 l/m 4,7 km/h (1 Bft) W 281 2 min 0,000 mm 5,1 UV-I 809 W/m 15,5 C 26,1 C 11,3 km/h (2 Bft) 97,37 %
30.05.2017 11:18 26,2 C 24,4 C 51 % 1013,0 hPa 0,0 l/m 7,1 km/h (2 Bft) W-SW 250 2 min 0,000 mm 5,1 UV-I 812 W/m 15,2 C 26,1 C 12,9 km/h (3 Bft) 92,45 %
30.05.2017 11:20 26,2 C 24,4 C 51 % 1012,9 hPa 0,0 l/m 5,3 km/h (1 Bft) W 274 2 min 0,000 mm 5,2 UV-I 815 W/m 15,2 C 26,2 C 11,3 km/h (2 Bft) 98,11 %
30.05.2017 11:22 26,3 C 24,4 C 49 % 1012,9 hPa 0,0 l/m 2,9 km/h (1 Bft) W-SW 248 2 min 0,000 mm 5,2 UV-I 819 W/m 14,7 C 26,3 C 9,7 km/h (2 Bft) 94,74 %
30.05.2017 11:24 26,3 C 24,4 C 51 % 1012,8 hPa 0,0 l/m 3,7 km/h (1 Bft) W-SW 248 2 min 0,000 mm 5,2 UV-I 822 W/m 15,3 C 26,3 C 11,3 km/h (2 Bft) 100,00 %
30.05.2017 11:26 26,3 C 24,4 C 51 % 1012,9 hPa 0,0 l/m 7,2 km/h (2 Bft) SW 231 2 min 0,000 mm 5,3 UV-I 824 W/m 15,3 C 26,1 C 14,5 km/h (3 Bft) 98,00 %
30.05.2017 11:28 26,4 C 24,4 C 50 % 1012,8 hPa 0,0 l/m 6,7 km/h (2 Bft) W 267 2 min 0,000 mm 5,3 UV-I 825 W/m 15,1 C 26,3 C 11,3 km/h (2 Bft) 95,12 %
30.05.2017 11:30 26,6 C 24,4 C 50 % 1012,8 hPa 0,0 l/m 9,2 km/h (2 Bft) W-SW 251 2 min 0,000 mm 5,3 UV-I 828 W/m 15,3 C 26,1 C 16,1 km/h (3 Bft) 98,11 %
30.05.2017 11:32 26,6 C 24,4 C 51 % 1012,8 hPa 0,0 l/m 7,3 km/h (2 Bft) W 260 2 min 0,000 mm 5,4 UV-I 828 W/m 15,6 C 26,4 C 12,9 km/h (3 Bft) 96,00 %
30.05.2017 11:34 26,6 C 24,4 C 49 % 1012,8 hPa 0,0 l/m 5,0 km/h (1 Bft) W-SW 256 2 min 0,000 mm 5,4 UV-I 830 W/m 15,0 C 26,6 C 11,3 km/h (2 Bft) 96,00 %
30.05.2017 11:36 26,7 C 24,4 C 51 % 1012,8 hPa 0,0 l/m 4,3 km/h (1 Bft) W 265 2 min 0,000 mm 5,4 UV-I 832 W/m 15,7 C 26,7 C 8,0 km/h (2 Bft) 93,62 %
30.05.2017 11:38 26,8 C 24,4 C 51 % 1012,8 hPa 0,0 l/m 5,8 km/h (2 Bft) W-NW 290 2 min 0,000 mm 5,5 UV-I 832 W/m 15,8 C 26,8 C 11,3 km/h (2 Bft) 97,56 %
30.05.2017 11:40 26,7 C 24,4 C 51 % 1012,8 hPa 0,0 l/m 5,7 km/h (1 Bft) S-SW 194 2 min 0,000 mm 5,5 UV-I 833 W/m 15,7 C 26,7 C 11,3 km/h (2 Bft) 96,00 %
30.05.2017 11:42 26,7 C 24,4 C 50 % 1012,8 hPa 0,0 l/m 2,3 km/h (1 Bft) S-SW 210 2 min 0,000 mm 5,5 UV-I 837 W/m 15,4 C 26,7 C 4,8 km/h (1 Bft) 94,44 %
30.05.2017 11:44 26,8 C 24,4 C 50 % 1012,8 hPa 0,0 l/m 3,4 km/h (1 Bft) W 278 2 min 0,000 mm 5,6 UV-I 837 W/m 15,5 C 26,8 C 6,4 km/h (2 Bft) 96,36 %
30.05.2017 11:46 26,7 C 24,4 C 50 % 1012,8 hPa 0,0 l/m 4,3 km/h (1 Bft) W 267 2 min 0,000 mm 5,6 UV-I 840 W/m 15,4 C 26,7 C 9,7 km/h (2 Bft) 98,00 %
30.05.2017 11:48 26,8 C 24,4 C 51 % 1012,7 hPa 0,0 l/m 8,0 km/h (2 Bft) SW 216 2 min 0,000 mm 5,6 UV-I 845 W/m 15,8 C 26,5 C 12,9 km/h (3 Bft) 97,87 %
30.05.2017 11:50 26,9 C 24,4 C 50 % 1012,7 hPa 0,0 l/m 5,7 km/h (1 Bft) W-SW 254 2 min 0,000 mm 5,7 UV-I 847 W/m 15,6 C 26,9 C 12,9 km/h (3 Bft) 97,92 %
30.05.2017 11:52 27,0 C 24,4 C 48 % 1012,7 hPa 0,0 l/m 2,3 km/h (1 Bft) SW 224 2 min 0,000 mm 5,7 UV-I 847 W/m 15,0 C 27,0 C 9,7 km/h (2 Bft) 100,00 %
30.05.2017 11:54 26,9 C 24,4 C 50 % 1012,6 hPa 0,0 l/m 4,7 km/h (1 Bft) W-SW 242 2 min 0,000 mm 5,7 UV-I 849 W/m 15,6 C 26,9 C 11,3 km/h (2 Bft) 100,00 %
30.05.2017 11:56 27,1 C 24,4 C 51 % 1012,7 hPa 0,0 l/m 3,9 km/h (1 Bft) W-SW 239 2 min 0,000 mm 5,7 UV-I 849 W/m 16,1 C 27,1 C 8,0 km/h (2 Bft) 98,21 %
30.05.2017 11:58 27,2 C 24,4 C 50 % 1012,6 hPa 0,0 l/m 7,2 km/h (2 Bft) S-SW 200 2 min 0,000 mm 5,8 UV-I 848 W/m 15,9 C 27,1 C 11,3 km/h (2 Bft) 98,21 %
30.05.2017 12:00 27,2 C 24,4 C 49 % 1012,6 hPa 0,0 l/m 7,5 km/h (2 Bft) S-SW 209 2 min 0,559 mm 5,8 UV-I 857 W/m 15,5 C 27,0 C 11,3 km/h (2 Bft) 97,56 %
30.05.2017 12:02 27,1 C 24,4 C 48 % 1012,6 hPa 0,0 l/m 6,9 km/h (2 Bft) S 191 2 min 0,000 mm 5,8 UV-I 855 W/m 15,1 C 27,0 C 12,9 km/h (3 Bft) 98,00 %
30.05.2017 12:04 26,9 C 24,4 C 49 % 1012,6 hPa 0,0 l/m 2,7 km/h (1 Bft) S-SW 193 2 min 0,000 mm 5,8 UV-I 858 W/m 15,3 C 26,9 C 9,7 km/h (2 Bft) 96,00 %
30.05.2017 12:06 27,0 C 24,4 C 50 % 1012,6 hPa 0,0 l/m 4,2 km/h (1 Bft) S 189 2 min 0,000 mm 5,9 UV-I 863 W/m 15,7 C 27,0 C 8,0 km/h (2 Bft) 100,00 %
30.05.2017 12:08 27,1 C 24,4 C 50 % 1012,6 hPa 0,0 l/m 3,3 km/h (1 Bft) S-SW 208 2 min 0,000 mm 5,9 UV-I 864 W/m 15,8 C 27,1 C 6,4 km/h (2 Bft) 96,00 %
30.05.2017 12:10 27,3 C 24,4 C 48 % 1012,5 hPa 0,0 l/m 4,4 km/h (1 Bft) S-SO 158 2 min 0,000 mm 5,9 UV-I 866 W/m 15,3 C 27,3 C 11,3 km/h (2 Bft) 98,00 %
30.05.2017 12:12 27,2 C 24,4 C 50 % 1012,5 hPa 0,0 l/m 1,9 km/h (1 Bft) SW 223 2 min 0,000 mm 5,9 UV-I 865 W/m 15,9 C 27,2 C 6,4 km/h (2 Bft) 100,00 %
30.05.2017 12:14 27,3 C 24,4 C 48 % 1012,5 hPa 0,0 l/m 4,2 km/h (1 Bft) S 174 2 min 0,000 mm 6,0 UV-I 870 W/m 15,3 C 27,3 C 8,0 km/h (2 Bft) 94,74 %
30.05.2017 12:16 27,4 C 24,4 C 48 % 1012,5 hPa 0,0 l/m 1,7 km/h (1 Bft) S 182 2 min 0,000 mm 6,0 UV-I 876 W/m 15,4 C 27,4 C 6,4 km/h (2 Bft) 98,11 %
30.05.2017 12:18 27,4 C 24,4 C 48 % 1012,5 hPa 0,0 l/m 3,2 km/h (1 Bft) S 183 2 min 0,000 mm 6,0 UV-I 879 W/m 15,4 C 27,4 C 4,8 km/h (1 Bft) 100,00 %
30.05.2017 12:20 27,4 C 25,0 C 49 % 1012,5 hPa 0,0 l/m 4,6 km/h (1 Bft) S 184 2 min 0,000 mm 6,0 UV-I 876 W/m 15,7 C 27,4 C 8,0 km/h (2 Bft) 96,30 %
30.05.2017 12:22 27,4 C 25,0 C 49 % 1012,5 hPa 0,0 l/m 1,1 km/h (1 Bft) S 184 2 min 0,000 mm 6,0 UV-I 864 W/m 15,7 C 27,4 C 4,8 km/h (1 Bft) 96,88 %
30.05.2017 12:24 27,6 C 25,0 C 46 % 1012,4 hPa 0,0 l/m 4,4 km/h (1 Bft) NW 304 2 min 0,000 mm 6,1 UV-I 873 W/m 14,9 C 27,6 C 9,7 km/h (2 Bft) 98,00 %
30.05.2017 12:26 27,6 C 25,0 C 51 % 1012,4 hPa 0,0 l/m 3,4 km/h (1 Bft) W-SW 249 2 min 0,000 mm 6,1 UV-I 879 W/m 16,5 C 27,6 C 6,4 km/h (2 Bft) 95,45 %
30.05.2017 12:28 27,6 C 25,0 C 46 % 1012,5 hPa 0,0 l/m 5,3 km/h (1 Bft) W 281 2 min 0,000 mm 6,1 UV-I 887 W/m 14,9 C 27,6 C 9,7 km/h (2 Bft) 100,00 %
30.05.2017 12:30 27,4 C 25,0 C 44 % 1012,4 hPa 0,0 l/m 2,5 km/h (1 Bft) W 280 2 min 0,000 mm 6,2 UV-I 886 W/m 14,0 C 27,4 C 4,8 km/h (1 Bft) 100,00 %
30.05.2017 12:32 27,5 C 25,0 C 47 % 1012,5 hPa 0,0 l/m 2,5 km/h (1 Bft) N-NW 336 2 min 0,000 mm 6,2 UV-I 885 W/m 15,2 C 27,5 C 4,8 km/h (1 Bft) 92,31 %
30.05.2017 12:34 27,5 C 25,0 C 49 % 1012,4 hPa 0,0 l/m 2,4 km/h (1 Bft) W-NW 296 2 min 0,000 mm 6,2 UV-I 886 W/m 15,8 C 27,5 C 6,4 km/h (2 Bft) 98,53 %
30.05.2017 12:36 27,6 C 25,0 C 47 % 1012,4 hPa 0,0 l/m 2,8 km/h (1 Bft) W 279 2 min 0,000 mm 6,2 UV-I 883 W/m 15,3 C 27,6 C 4,8 km/h (1 Bft) 100,00 %
30.05.2017 12:38 27,6 C 25,0 C 49 % 1012,4 hPa 0,0 l/m 0,6 km/h (0 Bft) W 281 2 min 0,000 mm 6,2 UV-I 880 W/m 15,9 C 27,6 C 1,6 km/h (1 Bft) 100,00 %
30.05.2017 12:40 27,6 C 25,0 C 46 % 1012,4 hPa 0,0 l/m 1,1 km/h (1 Bft) NW 320 2 min 0,000 mm 6,2 UV-I 872 W/m 14,9 C 27,6 C 4,8 km/h (1 Bft) 94,74 %
30.05.2017 12:42 27,6 C 25,0 C 48 % 1012,4 hPa 0,0 l/m 1,2 km/h (1 Bft) NW 323 2 min 0,000 mm 6,2 UV-I 873 W/m 15,6 C 27,6 C 3,2 km/h (1 Bft) 100,00 %
30.05.2017 12:44 27,7 C 25,0 C 48 % 1012,4 hPa 0,0 l/m 1,0 km/h (0 Bft) W-NW 303 2 min 0,000 mm 6,2 UV-I 878 W/m 15,7 C 27,7 C 4,8 km/h (1 Bft) 97,56 %
30.05.2017 12:46 28,0 C 25,0 C 49 % 1012,4 hPa 0,0 l/m 4,3 km/h (1 Bft) SW 217 2 min 0,000 mm 6,2 UV-I 884 W/m 16,3 C 28,0 C 11,3 km/h (2 Bft) 100,00 %
30.05.2017 12:48 28,2 C 25,0 C 47 % 1012,4 hPa 0,0 l/m 9,9 km/h (2 Bft) S-SW 206 2 min 0,000 mm 6,2 UV-I 889 W/m 15,8 C 27,7 C 14,5 km/h (3 Bft) 97,56 %
30.05.2017 12:50 28,3 C 25,0 C 46 % 1012,5 hPa 0,0 l/m 8,2 km/h (2 Bft) W-SW 239 2 min 0,000 mm 6,3 UV-I 895 W/m 15,6 C 28,0 C 14,5 km/h (3 Bft) 98,00 %
30.05.2017 12:52 28,3 C 25,0 C 44 % 1012,4 hPa 0,0 l/m 4,2 km/h (1 Bft) O-NO 67 2 min 0,000 mm 6,3 UV-I 898 W/m 14,9 C 28,3 C 9,7 km/h (2 Bft) 95,45 %
30.05.2017 12:54 28,4 C 25,0 C 45 % 1012,3 hPa 0,0 l/m 2,7 km/h (1 Bft) S-SO 157 2 min 0,000 mm 6,3 UV-I 897 W/m 15,3 C 28,4 C 6,4 km/h (2 Bft) 95,12 %
30.05.2017 12:56 28,4 C 25,0 C 43 % 1012,3 hPa 0,0 l/m 3,7 km/h (1 Bft) W-SW 241 2 min 0,000 mm 6,3 UV-I 897 W/m 14,6 C 28,4 C 8,0 km/h (2 Bft) 98,31 %
30.05.2017 12:58 28,5 C 25,0 C 46 % 1012,3 hPa 0,0 l/m 6,7 km/h (2 Bft) W-SW 244 2 min 0,000 mm 6,2 UV-I 895 W/m 15,7 C 28,5 C 12,9 km/h (3 Bft) 94,74 %
30.05.2017 13:00 28,4 C 25,0 C 43 % 1012,4 hPa 0,0 l/m 6,3 km/h (2 Bft) S-SW 202 2 min 0,000 mm 6,3 UV-I 894 W/m 14,6 C 28,4 C 9,7 km/h (2 Bft) 100,00 %
30.05.2017 13:02 28,6 C 25,0 C 45 % 1012,4 hPa 0,0 l/m 6,8 km/h (2 Bft) W 279 2 min 0,609 mm 6,2 UV-I 888 W/m 15,5 C 28,5 C 11,3 km/h (2 Bft) 94,00 %
30.05.2017 13:04 28,4 C 25,0 C 45 % 1012,4 hPa 0,0 l/m 4,6 km/h (1 Bft) W-NW 293 2 min 0,000 mm 6,2 UV-I 875 W/m 15,3 C 28,4 C 9,7 km/h (2 Bft) 94,44 %
30.05.2017 13:06 28,3 C 25,0 C 43 % 1012,4 hPa 0,0 l/m 2,9 km/h (1 Bft) W-NW 287 2 min 0,000 mm 6,1 UV-I 870 W/m 14,5 C 28,3 C 4,8 km/h (1 Bft) 98,21 %
30.05.2017 13:08 28,2 C 25,0 C 47 % 1012,3 hPa 0,0 l/m 1,1 km/h (1 Bft) W-NW 290 2 min 0,000 mm 6,1 UV-I 862 W/m 15,8 C 28,2 C 3,2 km/h (1 Bft) 100,00 %
30.05.2017 13:10 28,2 C 25,0 C 48 % 1012,3 hPa 0,0 l/m 2,1 km/h (1 Bft) SW 228 2 min 0,000 mm 6,1 UV-I 866 W/m 16,1 C 28,2 C 6,4 km/h (2 Bft) 90,57 %
30.05.2017 13:12 28,4 C 25,0 C 47 % 1012,2 hPa 0,0 l/m 3,5 km/h (1 Bft) W-SW 252 2 min 0,000 mm 6,1 UV-I 867 W/m 16,0 C 28,4 C 6,4 km/h (2 Bft) 95,12 %
30.05.2017 13:14 28,6 C 25,0 C 46 % 1012,2 hPa 0,0 l/m 2,0 km/h (1 Bft) W-SW 242 2 min 0,000 mm 6,2 UV-I 877 W/m 15,8 C 28,6 C 6,4 km/h (2 Bft) 93,62 %
30.05.2017 13:16 28,6 C 25,0 C 43 % 1012,2 hPa 0,0 l/m 6,0 km/h (2 Bft) W 267 2 min 0,000 mm 6,2 UV-I 881 W/m 14,8 C 28,6 C 11,3 km/h (2 Bft) 92,45 %
30.05.2017 13:18 28,5 C 25,0 C 46 % 1012,2 hPa 0,0 l/m 2,0 km/h (1 Bft) W 278 2 min 0,000 mm 6,2 UV-I 885 W/m 15,7 C 28,5 C 4,8 km/h (1 Bft) 95,74 %
30.05.2017 13:20 28,4 C 25,0 C 44 % 1012,2 hPa 0,0 l/m 1,1 km/h (1 Bft) W 279 2 min 0,000 mm 6,2 UV-I 885 W/m 14,9 C 28,4 C 3,2 km/h (1 Bft) 92,11 %
30.05.2017 13:22 28,3 C 25,0 C 44 % 1012,2 hPa 0,0 l/m 0,4 km/h (0 Bft) W 281 2 min 0,000 mm 6,2 UV-I 881 W/m 14,9 C 28,3 C 3,2 km/h (1 Bft) 93,62 %
30.05.2017 13:24 28,3 C 25,0 C 44 % 1012,2 hPa 0,0 l/m 1,1 km/h (1 Bft) W 280 2 min 0,000 mm 6,2 UV-I 880 W/m 14,9 C 28,3 C 4,8 km/h (1 Bft) 92,45 %
30.05.2017 13:26 28,4 C 25,0 C 51 % 1012,2 hPa 0,0 l/m 4,6 km/h (1 Bft) NW 310 2 min 0,000 mm 6,2 UV-I 887 W/m 17,3 C 28,4 C 12,9 km/h (3 Bft) 92,11 %
30.05.2017 13:28 28,6 C 25,0 C 47 % 1012,2 hPa 0,0 l/m 5,1 km/h (1 Bft) N-NO 15 2 min 0,000 mm 6,2 UV-I 887 W/m 16,2 C 28,6 C 12,9 km/h (3 Bft) 90,91 %
30.05.2017 13:30 28,4 C 25,0 C 46 % 1012,2 hPa 0,0 l/m 3,5 km/h (1 Bft) N 360 2 min 0,000 mm 6,1 UV-I 883 W/m 15,6 C 28,4 C 8,0 km/h (2 Bft) 94,92 %
30.05.2017 13:32 28,3 C 25,0 C 48 % 1012,1 hPa 0,0 l/m 2,4 km/h (1 Bft) NW 310 2 min 0,000 mm 6,1 UV-I 879 W/m 16,2 C 28,3 C 4,8 km/h (1 Bft) 89,36 %
30.05.2017 13:34 28,3 C 25,0 C 47 % 1012,1 hPa 0,0 l/m 2,9 km/h (1 Bft) N 11 2 min 0,000 mm 6,1 UV-I 877 W/m 15,9 C 28,3 C 6,4 km/h (2 Bft) 86,84 %
30.05.2017 13:36 28,4 C 25,0 C 49 % 1012,1 hPa 0,0 l/m 1,0 km/h (0 Bft) N 11 2 min 0,000 mm 6,2 UV-I 879 W/m 16,6 C 28,4 C 3,2 km/h (1 Bft) 89,36 %
30.05.2017 13:38 28,5 C 25,0 C 47 % 1012,1 hPa 0,0 l/m 1,0 km/h (0 Bft) N-NO 12 2 min 0,000 mm 6,1 UV-I 878 W/m 16,1 C 28,5 C 3,2 km/h (1 Bft) 86,79 %
30.05.2017 13:40 28,6 C 25,0 C 51 % 1012,1 hPa 0,0 l/m 4,2 km/h (1 Bft) N-NW 348 2 min 0,000 mm 6,1 UV-I 879 W/m 17,4 C 28,6 C 6,4 km/h (2 Bft) 94,87 %
30.05.2017 13:42 28,6 C 25,0 C 47 % 1012,0 hPa 0,0 l/m 2,2 km/h (1 Bft) N-NO 17 2 min 0,000 mm 6,1 UV-I 876 W/m 16,2 C 28,6 C 6,4 km/h (2 Bft) 94,23 %
30.05.2017 13:44 28,7 C 25,6 C 45 % 1012,0 hPa 0,0 l/m 3,6 km/h (1 Bft) N-NO 26 2 min 0,000 mm 6,1 UV-I 876 W/m 15,6 C 28,7 C 8,0 km/h (2 Bft) 94,34 %
30.05.2017 13:46 28,8 C 25,6 C 49 % 1012,0 hPa 0,0 l/m 1,2 km/h (1 Bft) N-NW 347 2 min 0,000 mm 6,1 UV-I 875 W/m 17,0 C 28,8 C 6,4 km/h (2 Bft) 97,44 %
30.05.2017 13:48 28,9 C 25,6 C 51 % 1012,0 hPa 0,0 l/m 0,7 km/h (0 Bft) N 355 2 min 0,000 mm 6,0 UV-I 873 W/m 17,7 C 28,9 C 3,2 km/h (1 Bft) 98,00 %
30.05.2017 13:50 28,9 C 25,6 C 49 % 1011,9 hPa 0,0 l/m 2,1 km/h (1 Bft) N-NO 23 2 min 0,000 mm 6,0 UV-I 871 W/m 17,1 C 28,9 C 4,8 km/h (1 Bft) 93,62 %
30.05.2017 13:52 28,8 C 25,6 C 46 % 1011,9 hPa 0,0 l/m 1,2 km/h (1 Bft) N-NO 22 2 min 0,000 mm 6,0 UV-I 871 W/m 16,0 C 28,8 C 3,2 km/h (1 Bft) 96,23 %
30.05.2017 13:54 28,8 C 25,6 C 49 % 1011,9 hPa 0,0 l/m 2,9 km/h (1 Bft) N-NO 15 2 min 0,000 mm 6,0 UV-I 873 W/m 17,0 C 28,8 C 6,4 km/h (2 Bft) 94,74 %
30.05.2017 13:56 28,7 C 25,6 C 46 % 1011,9 hPa 0,0 l/m 1,0 km/h (0 Bft) N-NO 13 2 min 0,000 mm 6,0 UV-I 871 W/m 15,9 C 28,7 C 3,2 km/h (1 Bft) 97,87 %
30.05.2017 13:58 28,7 C 25,6 C 46 % 1011,8 hPa 0,0 l/m 1,1 km/h (1 Bft) N 10 2 min 0,000 mm 6,0 UV-I 863 W/m 15,9 C 28,7 C 3,2 km/h (1 Bft) 98,11 %
30.05.2017 14:00 28,7 C 25,6 C 43 % 1011,8 hPa 0,0 l/m 2,8 km/h (1 Bft) W-SW 246 2 min 0,610 mm 5,9 UV-I 862 W/m 14,9 C 28,7 C 8,0 km/h (2 Bft) 93,18 %
30.05.2017 14:02 28,8 C 25,6 C 42 % 1011,7 hPa 0,0 l/m 4,3 km/h (1 Bft) W-NW 286 2 min 0,000 mm 5,9 UV-I 861 W/m 14,6 C 28,8 C 6,4 km/h (2 Bft) 95,74 %
30.05.2017 14:04 29,0 C 25,6 C 40 % 1011,7 hPa 0,0 l/m 2,6 km/h (1 Bft) W-SW 240 2 min 0,000 mm 5,8 UV-I 860 W/m 14,0 C 29,0 C 4,8 km/h (1 Bft) 100,00 %
30.05.2017 14:06 29,1 C 25,6 C 45 % 1011,6 hPa 0,0 l/m 4,4 km/h (1 Bft) W-NW 284 2 min 0,000 mm 5,8 UV-I 859 W/m 15,9 C 29,1 C 11,3 km/h (2 Bft) 100,00 %
30.05.2017 14:08 29,1 C 25,6 C 44 % 1011,6 hPa 0,0 l/m 3,5 km/h (1 Bft) NW 314 2 min 0,000 mm 5,8 UV-I 855 W/m 15,6 C 29,1 C 8,0 km/h (2 Bft) 98,11 %
30.05.2017 14:10 29,0 C 25,6 C 43 % 1011,6 hPa 0,0 l/m 1,1 km/h (1 Bft) N 360 2 min 0,000 mm 5,8 UV-I 856 W/m 15,1 C 29,0 C 4,8 km/h (1 Bft) 95,12 %
30.05.2017 14:12 29,0 C 25,6 C 44 % 1011,6 hPa 0,0 l/m 4,9 km/h (1 Bft) N-NO 20 2 min 0,000 mm 5,8 UV-I 854 W/m 15,5 C 29,0 C 8,0 km/h (2 Bft) 100,00 %
30.05.2017 14:14 29,1 C 25,6 C 47 % 1011,5 hPa 0,0 l/m 2,8 km/h (1 Bft) NO 46 2 min 0,000 mm 5,7 UV-I 847 W/m 16,6 C 29,1 C 4,8 km/h (1 Bft) 98,11 %
30.05.2017 14:16 29,1 C 25,6 C 44 % 1011,5 hPa 0,0 l/m 0,8 km/h (0 Bft) N-NW 336 2 min 0,000 mm 5,7 UV-I 846 W/m 15,6 C 29,1 C 3,2 km/h (1 Bft) 97,87 %
30.05.2017 14:18 29,3 C 25,6 C 42 % 1011,5 hPa 0,0 l/m 2,7 km/h (1 Bft) W-NW 295 2 min 0,000 mm 5,7 UV-I 846 W/m 15,0 C 29,3 C 4,8 km/h (1 Bft) 100,00 %
30.05.2017 14:20 29,4 C 25,6 C 38 % 1011,4 hPa 0,0 l/m 2,0 km/h (1 Bft) N-NW 342 2 min 0,000 mm 5,6 UV-I 841 W/m 13,6 C 29,4 C 4,8 km/h (1 Bft) 100,00 %
30.05.2017 14:22 29,5 C 25,6 C 44 % 1011,4 hPa 0,0 l/m 3,3 km/h (1 Bft) N-NW 333 2 min 0,000 mm 5,6 UV-I 838 W/m 15,9 C 29,5 C 8,0 km/h (2 Bft) 100,00 %
30.05.2017 14:24 29,5 C 25,6 C 42 % 1011,4 hPa 0,0 l/m 3,4 km/h (1 Bft) N-NO 22 2 min 0,000 mm 5,5 UV-I 835 W/m 15,2 C 29,5 C 8,0 km/h (2 Bft) 100,00 %
30.05.2017 14:26 29,4 C 25,6 C 44 % 1011,3 hPa 0,0 l/m 2,8 km/h (1 Bft) N 11 2 min 0,000 mm 5,5 UV-I 832 W/m 15,8 C 29,4 C 11,3 km/h (2 Bft) 100,00 %
30.05.2017 14:28 29,2 C 25,6 C 45 % 1011,3 hPa 0,0 l/m 2,2 km/h (1 Bft) N-NO 12 2 min 0,000 mm 5,5 UV-I 828 W/m 16,0 C 29,2 C 4,8 km/h (1 Bft) 100,00 %
30.05.2017 14:30 29,2 C 25,6 C 45 % 1011,2 hPa 0,0 l/m 2,0 km/h (1 Bft) NW 323 2 min 0,000 mm 5,4 UV-I 829 W/m 16,0 C 29,2 C 6,4 km/h (2 Bft) 100,00 %
30.05.2017 14:32 29,2 C 25,6 C 50 % 1011,2 hPa 0,0 l/m 1,6 km/h (1 Bft) W 265 2 min 0,000 mm 5,4 UV-I 824 W/m 17,7 C 29,2 C 6,4 km/h (2 Bft) 100,00 %
30.05.2017 14:34 29,3 C 25,6 C 43 % 1011,2 hPa 0,0 l/m 6,6 km/h (2 Bft) NW 308 2 min 0,000 mm 5,3 UV-I 822 W/m 15,4 C 29,3 C 11,3 km/h (2 Bft) 100,00 %
30.05.2017 14:36 29,4 C 25,6 C 42 % 1011,2 hPa 0,0 l/m 3,6 km/h (1 Bft) NW 316 2 min 0,000 mm 5,3 UV-I 823 W/m 15,1 C 29,4 C 8,0 km/h (2 Bft) 96,00 %
30.05.2017 14:38 29,3 C 25,6 C 43 % 1011,1 hPa 0,0 l/m 0,6 km/h (0 Bft) NW 316 2 min 0,000 mm 5,3 UV-I 822 W/m 15,4 C 29,3 C 1,6 km/h (1 Bft) 96,00 %
30.05.2017 14:40 29,4 C 25,6 C 47 % 1011,1 hPa 0,0 l/m 0,5 km/h (0 Bft) NW 315 2 min 0,000 mm 5,3 UV-I 819 W/m 16,9 C 29,4 C 3,2 km/h (1 Bft) 97,37 %
30.05.2017 14:42 29,6 C 25,6 C 41 % 1011,0 hPa 0,0 l/m 1,4 km/h (1 Bft) W-NW 286 2 min 0,000 mm 5,2 UV-I 817 W/m 14,9 C 29,6 C 3,2 km/h (1 Bft) 100,00 %
30.05.2017 14:44 29,6 C 25,6 C 45 % 1011,0 hPa 0,0 l/m 1,4 km/h (1 Bft) N 9 2 min 0,000 mm 5,2 UV-I 815 W/m 16,4 C 29,6 C 4,8 km/h (1 Bft) 98,00 %
30.05.2017 14:46 29,6 C 25,6 C 48 % 1010,9 hPa 0,0 l/m 1,4 km/h (1 Bft) N-NW 346 2 min 0,000 mm 5,2 UV-I 811 W/m 17,4 C 29,6 C 3,2 km/h (1 Bft) 97,87 %
30.05.2017 14:48 29,6 C 26,1 C 48 % 1010,9 hPa 0,0 l/m 3,1 km/h (1 Bft) N-NO 19 2 min 0,000 mm 5,1 UV-I 808 W/m 17,4 C 29,6 C 8,0 km/h (2 Bft) 97,37 %
30.05.2017 14:50 29,5 C 26,1 C 47 % 1010,9 hPa 0,0 l/m 4,7 km/h (1 Bft) N-NO 17 2 min 0,000 mm 5,1 UV-I 803 W/m 17,0 C 29,5 C 8,0 km/h (2 Bft) 97,87 %
30.05.2017 14:52 29,3 C 26,1 C 40 % 1010,8 hPa 0,0 l/m 0,9 km/h (0 Bft) N-NO 15 2 min 0,000 mm 5,0 UV-I 803 W/m 14,3 C 29,3 C 4,8 km/h (1 Bft) 100,00 %
30.05.2017 14:54 29,3 C 26,1 C 49 % 1010,8 hPa 0,0 l/m 0,5 km/h (0 Bft) N 350 2 min 0,000 mm 5,0 UV-I 800 W/m 17,5 C 29,3 C 1,6 km/h (1 Bft) 100,00 %
30.05.2017 14:56 29,3 C 26,1 C 50 % 1010,8 hPa 0,0 l/m 1,0 km/h (0 Bft) N 5 2 min 0,000 mm 4,9 UV-I 791 W/m 17,8 C 29,3 C 3,2 km/h (1 Bft) 96,23 %
30.05.2017 14:58 29,4 C 26,1 C 44 % 1010,7 hPa 0,0 l/m 0,8 km/h (0 Bft) N 5 2 min 0,000 mm 4,8 UV-I 787 W/m 15,8 C 29,4 C 3,2 km/h (1 Bft) 98,00 %
30.05.2017 15:00 29,4 C 26,1 C 41 % 1010,7 hPa 0,0 l/m 0,1 km/h (0 Bft) N 5 2 min 0,000 mm 4,8 UV-I 784 W/m 14,7 C 29,4 C 1,6 km/h (1 Bft) 93,62 %
30.05.2017 15:02 29,6 C 26,1 C 42 % 1010,7 hPa 0,0 l/m 1,6 km/h (1 Bft) W-NW 300 2 min 0,584 mm 4,8 UV-I 778 W/m 15,3 C 29,6 C 4,8 km/h (1 Bft) 100,00 %
30.05.2017 15:04 29,6 C 26,1 C 48 % 1010,7 hPa 0,0 l/m 4,5 km/h (1 Bft) NO 34 2 min 0,000 mm 4,7 UV-I 777 W/m 17,4 C 29,6 C 9,7 km/h (2 Bft) 93,10 %
30.05.2017 15:06 29,6 C 26,1 C 48 % 1010,7 hPa 0,0 l/m 3,3 km/h (1 Bft) N 360 2 min 0,000 mm 4,6 UV-I 771 W/m 17,4 C 29,6 C 6,4 km/h (2 Bft) 92,86 %
30.05.2017 15:08 29,6 C 26,1 C 46 % 1010,7 hPa 0,0 l/m 1,1 km/h (1 Bft) N 360 2 min 0,000 mm 4,6 UV-I 766 W/m 16,7 C 29,6 C 3,2 km/h (1 Bft) 94,00 %
30.05.2017 15:10 29,5 C 26,1 C 45 % 1010,5 hPa 0,0 l/m 0,9 km/h (0 Bft) N 360 2 min 0,000 mm 4,6 UV-I 764 W/m 16,3 C 29,5 C 3,2 km/h (1 Bft) 97,56 %
30.05.2017 15:12 29,6 C 26,1 C 46 % 1010,5 hPa 0,0 l/m 0,9 km/h (0 Bft) N 360 2 min 0,000 mm 4,5 UV-I 761 W/m 16,7 C 29,6 C 1,6 km/h (1 Bft) 93,62 %
30.05.2017 15:14 29,7 C 26,1 C 47 % 1010,5 hPa 0,0 l/m 4,2 km/h (1 Bft) N-NW 347 2 min 0,000 mm 4,5 UV-I 758 W/m 17,2 C 29,7 C 8,0 km/h (2 Bft) 97,87 %
30.05.2017 15:16 29,7 C 26,1 C 51 % 1010,5 hPa 0,0 l/m 2,2 km/h (1 Bft) N-NW 332 2 min 0,000 mm 4,5 UV-I 756 W/m 18,5 C 29,7 C 6,4 km/h (2 Bft) 96,43 %
30.05.2017 15:18 29,7 C 26,1 C 42 % 1010,5 hPa 0,0 l/m 4,5 km/h (1 Bft) W-NW 289 2 min 0,000 mm 4,4 UV-I 749 W/m 15,4 C 29,7 C 8,0 km/h (2 Bft) 97,56 %
30.05.2017 15:20 29,7 C 26,1 C 44 % 1010,5 hPa 0,0 l/m 3,3 km/h (1 Bft) W-NW 292 2 min 0,000 mm 4,3 UV-I 745 W/m 16,1 C 29,7 C 6,4 km/h (2 Bft) 97,73 %
30.05.2017 15:22 29,8 C 26,1 C 41 % 1010,5 hPa 0,0 l/m 1,6 km/h (1 Bft) W-NW 288 2 min 0,000 mm 4,3 UV-I 744 W/m 15,1 C 29,8 C 3,2 km/h (1 Bft) 96,00 %
30.05.2017 15:24 29,8 C 26,1 C 51 % 1010,4 hPa 0,0 l/m 1,9 km/h (1 Bft) W-NW 296 2 min 0,000 mm 4,3 UV-I 743 W/m 18,5 C 29,8 C 4,8 km/h (1 Bft) 94,00 %
30.05.2017 15:26 29,7 C 26,1 C 44 % 1010,4 hPa 0,0 l/m 2,3 km/h (1 Bft) N 11 2 min 0,000 mm 4,2 UV-I 738 W/m 16,1 C 29,7 C 4,8 km/h (1 Bft) 100,00 %
30.05.2017 15:28 29,7 C 26,1 C 47 % 1010,4 hPa 0,0 l/m 5,5 km/h (1 Bft) NO 40 2 min 0,000 mm 4,2 UV-I 737 W/m 17,2 C 29,7 C 8,0 km/h (2 Bft) 98,00 %
30.05.2017 15:30 29,8 C 26,1 C 50 % 1010,3 hPa 0,0 l/m 6,0 km/h (2 Bft) NO 52 2 min 0,000 mm 4,2 UV-I 735 W/m 18,2 C 29,8 C 8,0 km/h (2 Bft) 100,00 %
30.05.2017 15:32 29,9 C 26,1 C 45 % 1010,3 hPa 0,0 l/m 4,7 km/h (1 Bft) NO 51 2 min 0,000 mm 4,2 UV-I 730 W/m 16,7 C 29,9 C 6,4 km/h (2 Bft) 96,61 %
30.05.2017 15:34 29,9 C 26,1 C 42 % 1010,3 hPa 0,0 l/m 2,7 km/h (1 Bft) N-NO 25 2 min 0,000 mm 4,1 UV-I 723 W/m 15,6 C 29,9 C 6,4 km/h (2 Bft) 95,74 %
30.05.2017 15:36 29,8 C 26,1 C 42 % 1010,3 hPa 0,0 l/m 1,9 km/h (1 Bft) N-NO 13 2 min 0,000 mm 4,0 UV-I 721 W/m 15,5 C 29,8 C 4,8 km/h (1 Bft) 100,00 %
30.05.2017 15:38 29,7 C 26,1 C 42 % 1010,2 hPa 0,0 l/m 3,8 km/h (1 Bft) N-NO 26 2 min 0,000 mm 4,0 UV-I 716 W/m 15,4 C 29,7 C 8,0 km/h (2 Bft) 96,23 %
30.05.2017 15:40 29,6 C 26,1 C 48 % 1010,2 hPa 0,0 l/m 4,6 km/h (1 Bft) NO 38 2 min 0,000 mm 3,9 UV-I 710 W/m 17,4 C 29,6 C 8,0 km/h (2 Bft) 97,44 %
30.05.2017 15:42 29,7 C 26,1 C 49 % 1010,2 hPa 0,0 l/m 2,4 km/h (1 Bft) N-NO 33 2 min 0,000 mm 3,9 UV-I 708 W/m 17,8 C 29,7 C 6,4 km/h (2 Bft) 95,83 %
30.05.2017 15:44 29,6 C 26,1 C 47 % 1010,1 hPa 0,0 l/m 3,9 km/h (1 Bft) N-NO 30 2 min 0,000 mm 3,9 UV-I 706 W/m 17,1 C 29,6 C 6,4 km/h (2 Bft) 98,00 %
30.05.2017 15:46 29,7 C 26,1 C 48 % 1010,1 hPa 0,0 l/m 1,9 km/h (1 Bft) N-NO 30 2 min 0,000 mm 3,8 UV-I 701 W/m 17,5 C 29,7 C 4,8 km/h (1 Bft) 100,00 %
30.05.2017 15:48 29,7 C 26,1 C 47 % 1010,1 hPa 0,0 l/m 2,7 km/h (1 Bft) N-NO 23 2 min 0,000 mm 3,8 UV-I 693 W/m 17,2 C 29,7 C 9,7 km/h (2 Bft) 97,87 %
30.05.2017 15:50 29,7 C 26,1 C 49 % 1010,1 hPa 0,0 l/m 4,2 km/h (1 Bft) N-NO 26 2 min 0,000 mm 3,7 UV-I 687 W/m 17,8 C 29,7 C 11,3 km/h (2 Bft) 97,87 %
30.05.2017 15:52 29,7 C 26,1 C 47 % 1010,1 hPa 0,0 l/m 0,8 km/h (0 Bft) N-NO 26 2 min 0,000 mm 3,6 UV-I 681 W/m 17,2 C 29,7 C 1,6 km/h (1 Bft) 98,00 %
30.05.2017 15:54 29,8 C 26,1 C 46 % 1010,1 hPa 0,0 l/m 0,4 km/h (0 Bft) N-NO 24 2 min 0,000 mm 3,6 UV-I 679 W/m 16,9 C 29,8 C 1,6 km/h (1 Bft) 93,62 %
30.05.2017 15:56 29,7 C 26,1 C 49 % 1010,0 hPa 0,0 l/m 0,4 km/h (0 Bft) N-NO 23 2 min 0,000 mm 3,5 UV-I 677 W/m 17,8 C 29,7 C 3,2 km/h (1 Bft) 97,87 %
30.05.2017 15:58 29,8 C 26,1 C 44 % 1010,0 hPa 0,0 l/m 1,9 km/h (1 Bft) O-NO 67 2 min 0,000 mm 3,5 UV-I 673 W/m 16,2 C 29,8 C 6,4 km/h (2 Bft) 93,62 %
30.05.2017 16:00 29,9 C 26,1 C 47 % 1010,0 hPa 0,0 l/m 4,7 km/h (1 Bft) O-NO 57 2 min 0,508 mm 3,5 UV-I 669 W/m 17,3 C 29,9 C 8,0 km/h (2 Bft) 92,11 %
30.05.2017 16:02 30,0 C 26,1 C 44 % 1010,0 hPa 0,0 l/m 4,6 km/h (1 Bft) NO 49 2 min 0,000 mm 3,4 UV-I 667 W/m 16,4 C 30,0 C 8,0 km/h (2 Bft) 93,62 %
30.05.2017 16:04 30,1 C 26,1 C 42 % 1010,0 hPa 0,0 l/m 2,1 km/h (1 Bft) O-NO 71 2 min 0,000 mm 3,4 UV-I 661 W/m 15,7 C 30,1 C 6,4 km/h (2 Bft) 92,45 %
30.05.2017 16:06 30,1 C 26,1 C 40 % 1009,9 hPa 0,0 l/m 2,4 km/h (1 Bft) O 92 2 min 0,000 mm 3,3 UV-I 656 W/m 15,0 C 30,1 C 6,4 km/h (2 Bft) 97,37 %
30.05.2017 16:08 30,0 C 26,1 C 41 % 1010,0 hPa 0,0 l/m 1,7 km/h (1 Bft) O-NO 73 2 min 0,000 mm 3,3 UV-I 652 W/m 15,3 C 30,0 C 6,4 km/h (2 Bft) 94,44 %
30.05.2017 16:10 30,2 C 26,1 C 45 % 1009,9 hPa 0,0 l/m 5,4 km/h (1 Bft) NO 46 2 min 0,000 mm 3,2 UV-I 645 W/m 16,9 C 30,2 C 9,7 km/h (2 Bft) 94,55 %
30.05.2017 16:12 30,3 C 26,1 C 41 % 1009,9 hPa 0,0 l/m 7,2 km/h (2 Bft) O 93 2 min 0,000 mm 3,2 UV-I 641 W/m 15,6 C 30,2 C 11,3 km/h (2 Bft) 98,11 %
30.05.2017 16:14 30,3 C 26,1 C 43 % 1009,9 hPa 0,0 l/m 8,0 km/h (2 Bft) NO 50 2 min 0,000 mm 3,1 UV-I 635 W/m 16,3 C 30,2 C 12,9 km/h (3 Bft) 97,87 %
30.05.2017 16:16 30,2 C 26,1 C 47 % 1009,9 hPa 0,0 l/m 4,6 km/h (1 Bft) N-NO 24 2 min 0,000 mm 3,1 UV-I 631 W/m 17,6 C 30,2 C 8,0 km/h (2 Bft) 94,34 %
30.05.2017 16:18 30,0 C 26,1 C 47 % 1009,9 hPa 0,0 l/m 5,0 km/h (1 Bft) NO 37 2 min 0,000 mm 3,1 UV-I 626 W/m 17,4 C 30,0 C 8,0 km/h (2 Bft) 92,68 %
30.05.2017 16:20 30,1 C 26,1 C 44 % 1009,9 hPa 0,0 l/m 4,0 km/h (1 Bft) NO 44 2 min 0,000 mm 3,0 UV-I 620 W/m 16,5 C 30,1 C 6,4 km/h (2 Bft) 98,00 %
30.05.2017 16:22 30,2 C 26,1 C 49 % 1009,9 hPa 0,0 l/m 5,6 km/h (1 Bft) O-NO 58 2 min 0,000 mm 3,0 UV-I 618 W/m 18,3 C 30,2 C 14,5 km/h (3 Bft) 97,62 %
30.05.2017 16:24 30,1 C 26,1 C 42 % 1009,9 hPa 0,0 l/m 5,9 km/h (2 Bft) NO 51 2 min 0,000 mm 2,9 UV-I 609 W/m 15,7 C 30,1 C 12,9 km/h (3 Bft) 98,21 %
30.05.2017 16:26 30,1 C 26,7 C 49 % 1009,9 hPa 0,0 l/m 1,6 km/h (1 Bft) NO 51 2 min 0,000 mm 2,9 UV-I 605 W/m 18,2 C 30,1 C 3,2 km/h (1 Bft) 100,00 %
30.05.2017 16:28 30,0 C 26,7 C 41 % 1009,9 hPa 0,0 l/m 3,4 km/h (1 Bft) O-NO 64 2 min 0,000 mm 2,8 UV-I 599 W/m 15,3 C 30,0 C 4,8 km/h (1 Bft) 100,00 %
30.05.2017 16:30 29,9 C 26,7 C 46 % 1009,8 hPa 0,0 l/m 3,8 km/h (1 Bft) O-NO 74 2 min 0,000 mm 2,7 UV-I 593 W/m 17,0 C 29,9 C 8,0 km/h (2 Bft) 98,00 %
30.05.2017 16:32 30,0 C 26,7 C 44 % 1009,8 hPa 0,0 l/m 4,9 km/h (1 Bft) O-NO 78 2 min 0,000 mm 2,7 UV-I 590 W/m 16,4 C 30,0 C 8,0 km/h (2 Bft) 97,87 %
30.05.2017 16:34 30,1 C 26,7 C 39 % 1009,8 hPa 0,0 l/m 2,8 km/h (1 Bft) O-SO 112 2 min 0,000 mm 2,7 UV-I 583 W/m 14,6 C 30,1 C 4,8 km/h (1 Bft) 92,00 %
30.05.2017 16:36 29,9 C 26,7 C 41 % 1009,8 hPa 0,0 l/m 0,8 km/h (0 Bft) O-SO 112 2 min 0,000 mm 2,6 UV-I 580 W/m 15,2 C 29,9 C 3,2 km/h (1 Bft) 96,55 %
30.05.2017 16:38 29,9 C 26,7 C 42 % 1009,8 hPa 0,0 l/m 0,8 km/h (0 Bft) O-NO 60 2 min 0,000 mm 2,6 UV-I 578 W/m 15,6 C 29,9 C 4,8 km/h (1 Bft) 96,23 %
30.05.2017 16:40 30,1 C 26,7 C 43 % 1009,8 hPa 0,0 l/m 2,2 km/h (1 Bft) O-NO 60 2 min 0,000 mm 2,6 UV-I 573 W/m 16,1 C 30,1 C 4,8 km/h (1 Bft) 92,00 %
30.05.2017 16:42 30,1 C 26,7 C 43 % 1009,8 hPa 0,0 l/m 1,2 km/h (1 Bft) O-NO 60 2 min 0,000 mm 2,5 UV-I 568 W/m 16,1 C 30,1 C 3,2 km/h (1 Bft) 98,21 %
30.05.2017 16:44 30,1 C 26,7 C 40 % 1009,8 hPa 0,0 l/m 1,4 km/h (1 Bft) O-NO 60 2 min 0,000 mm 2,5 UV-I 563 W/m 15,0 C 30,1 C 3,2 km/h (1 Bft) 97,56 %
30.05.2017 16:46 30,1 C 26,7 C 46 % 1009,7 hPa 0,0 l/m 1,9 km/h (1 Bft) O-NO 60 2 min 0,000 mm 2,4 UV-I 556 W/m 17,2 C 30,1 C 3,2 km/h (1 Bft) 96,23 %
30.05.2017 16:48 30,1 C 26,7 C 48 % 1009,7 hPa 0,0 l/m 0,6 km/h (0 Bft) NO 55 2 min 0,000 mm 2,4 UV-I 552 W/m 17,9 C 30,1 C 1,6 km/h (1 Bft) 97,37 %
30.05.2017 16:50 30,1 C 26,7 C 44 % 1009,7 hPa 0,0 l/m 0,3 km/h (0 Bft) NO 55 2 min 0,000 mm 2,3 UV-I 545 W/m 16,5 C 30,1 C 1,6 km/h (1 Bft) 98,00 %
30.05.2017 16:52 30,0 C 26,7 C 41 % 1009,7 hPa 0,0 l/m 2,7 km/h (1 Bft) W 269 2 min 0,000 mm 2,3 UV-I 542 W/m 15,3 C 30,0 C 6,4 km/h (2 Bft) 97,87 %
30.05.2017 16:54 30,0 C 26,7 C 39 % 1009,7 hPa 0,0 l/m 1,9 km/h (1 Bft) NW 318 2 min 0,000 mm 2,2 UV-I 537 W/m 14,5 C 30,0 C 4,8 km/h (1 Bft) 95,45 %
30.05.2017 16:56 29,9 C 26,7 C 45 % 1009,7 hPa 0,0 l/m 1,8 km/h (1 Bft) NW 315 2 min 0,000 mm 2,2 UV-I 532 W/m 16,7 C 29,9 C 4,8 km/h (1 Bft) 98,00 %
30.05.2017 16:58 29,9 C 26,7 C 45 % 1009,7 hPa 0,0 l/m 1,1 km/h (1 Bft) NW 320 2 min 0,000 mm 2,2 UV-I 523 W/m 16,7 C 29,9 C 3,2 km/h (1 Bft) 96,00 %
30.05.2017 17:00 29,8 C 26,7 C 44 % 1009,7 hPa 0,0 l/m 1,6 km/h (1 Bft) NW 320 2 min 0,432 mm 2,1 UV-I 515 W/m 16,2 C 29,8 C 3,2 km/h (1 Bft) 97,44 %
30.05.2017 17:02 29,9 C 26,7 C 48 % 1009,7 hPa 0,0 l/m 4,7 km/h (1 Bft) N-NO 25 2 min 0,000 mm 2,1 UV-I 512 W/m 17,7 C 29,9 C 8,0 km/h (2 Bft) 94,00 %
30.05.2017 17:04 29,8 C 26,7 C 49 % 1009,6 hPa 0,0 l/m 2,2 km/h (1 Bft) N 11 2 min 0,000 mm 2,1 UV-I 512 W/m 17,9 C 29,8 C 6,4 km/h (2 Bft) 93,62 %
30.05.2017 17:06 29,7 C 26,7 C 49 % 1009,6 hPa 0,0 l/m 0,2 km/h (0 Bft) N 9 2 min 0,000 mm 2,0 UV-I 509 W/m 17,8 C 29,7 C 1,6 km/h (1 Bft) 100,00 %
30.05.2017 17:08 29,6 C 26,7 C 44 % 1009,6 hPa 0,0 l/m 0,0 km/h (0 Bft) N 9 2 min 0,000 mm 2,0 UV-I 503 W/m 16,0 C 29,6 C 1,6 km/h (1 Bft) 97,37 %
30.05.2017 17:10 29,6 C 26,7 C 41 % 1009,6 hPa 0,0 l/m 1,5 km/h (1 Bft) N 9 2 min 0,000 mm 1,9 UV-I 497 W/m 14,9 C 29,6 C 4,8 km/h (1 Bft) 100,00 %
30.05.2017 17:12 29,8 C 26,7 C 44 % 1009,6 hPa 0,0 l/m 3,3 km/h (1 Bft) NO 51 2 min 0,000 mm 1,9 UV-I 491 W/m 16,2 C 29,8 C 4,8 km/h (1 Bft) 98,00 %
30.05.2017 17:14 30,0 C 26,7 C 45 % 1009,6 hPa 0,0 l/m 5,6 km/h (1 Bft) NO 37 2 min 0,000 mm 1,9 UV-I 487 W/m 16,7 C 30,0 C 9,7 km/h (2 Bft) 100,00 %
30.05.2017 17:16 29,9 C 26,7 C 44 % 1009,6 hPa 0,0 l/m 5,0 km/h (1 Bft) NO 35 2 min 0,000 mm 1,8 UV-I 482 W/m 16,3 C 29,9 C 6,4 km/h (2 Bft) 98,00 %
30.05.2017 17:18 29,9 C 26,7 C 46 % 1009,6 hPa 0,0 l/m 4,0 km/h (1 Bft) NO 35 2 min 0,000 mm 1,8 UV-I 476 W/m 17,0 C 29,9 C 6,4 km/h (2 Bft) 97,56 %
30.05.2017 17:20 29,9 C 26,7 C 48 % 1009,6 hPa 0,0 l/m 3,3 km/h (1 Bft) NO 35 2 min 0,000 mm 1,7 UV-I 470 W/m 17,7 C 29,9 C 4,8 km/h (1 Bft) 97,87 %
30.05.2017 17:22 29,9 C 26,7 C 47 % 1009,6 hPa 0,0 l/m 2,7 km/h (1 Bft) NO 35 2 min 0,000 mm 1,7 UV-I 465 W/m 17,3 C 29,9 C 4,8 km/h (1 Bft) 100,00 %
30.05.2017 17:24 29,8 C 26,7 C 48 % 1009,5 hPa 0,0 l/m 0,5 km/h (0 Bft) NO 35 2 min 0,000 mm 1,7 UV-I 461 W/m 17,6 C 29,8 C 3,2 km/h (1 Bft) 98,00 %
30.05.2017 17:26 29,8 C 26,7 C 45 % 1009,5 hPa 0,0 l/m 0,1 km/h (0 Bft) NO 35 2 min 0,000 mm 1,6 UV-I 455 W/m 16,6 C 29,8 C 1,6 km/h (1 Bft) 100,00 %
30.05.2017 17:28 30,0 C 26,7 C 41 % 1009,5 hPa 0,0 l/m 0,3 km/h (0 Bft) NO 35 2 min 0,000 mm 1,6 UV-I 449 W/m 15,3 C 30,0 C 1,6 km/h (1 Bft) 97,87 %
30.05.2017 17:30 30,1 C 26,7 C 41 % 1009,5 hPa 0,0 l/m 1,4 km/h (1 Bft) NO 44 2 min 0,000 mm 1,6 UV-I 444 W/m 15,4 C 30,1 C 4,8 km/h (1 Bft) 97,56 %
30.05.2017 17:32 29,9 C 26,7 C 40 % 1009,4 hPa 0,0 l/m 1,6 km/h (1 Bft) O 101 2 min 0,000 mm 1,5 UV-I 439 W/m 14,8 C 29,9 C 3,2 km/h (1 Bft) 98,00 %
30.05.2017 17:34 29,8 C 26,7 C 41 % 1009,4 hPa 0,0 l/m 1,1 km/h (1 Bft) O-SO 103 2 min 0,000 mm 1,5 UV-I 434 W/m 15,1 C 29,8 C 3,2 km/h (1 Bft) 97,87 %
30.05.2017 17:36 29,9 C 26,7 C 40 % 1009,4 hPa 0,0 l/m 1,3 km/h (1 Bft) O-SO 103 2 min 0,000 mm 1,5 UV-I 429 W/m 14,8 C 29,9 C 3,2 km/h (1 Bft) 100,00 %
30.05.2017 17:38 30,0 C 26,7 C 39 % 1009,4 hPa 0,0 l/m 0,0 km/h (0 Bft) O-SO 103 2 min 0,000 mm 1,4 UV-I 422 W/m 14,5 C 30,0 C 0,0 km/h (0 Bft) 100,00 %
30.05.2017 17:40 30,1 C 26,7 C 40 % 1009,3 hPa 0,0 l/m 1,1 km/h (1 Bft) O-SO 103 2 min 0,000 mm 1,4 UV-I 415 W/m 15,0 C 30,1 C 3,2 km/h (1 Bft) 95,74 %
30.05.2017 17:42 30,1 C 26,7 C 41 % 1009,3 hPa 0,0 l/m 1,8 km/h (1 Bft) O-SO 103 2 min 0,000 mm 1,3 UV-I 410 W/m 15,4 C 30,1 C 3,2 km/h (1 Bft) 97,87 %
30.05.2017 17:44 30,1 C 26,7 C 42 % 1009,4 hPa 0,0 l/m 1,8 km/h (1 Bft) S 175 2 min 0,000 mm 1,3 UV-I 406 W/m 15,7 C 30,1 C 4,8 km/h (1 Bft) 96,00 %
30.05.2017 17:46 30,3 C 26,7 C 41 % 1009,4 hPa 0,0 l/m 2,9 km/h (1 Bft) S-SW 200 2 min 0,000 mm 1,3 UV-I 402 W/m 15,6 C 30,3 C 6,4 km/h (2 Bft) 100,00 %
30.05.2017 17:48 30,3 C 26,7 C 40 % 1009,4 hPa 0,0 l/m 4,5 km/h (1 Bft) S-SW 202 2 min 0,000 mm 1,3 UV-I 397 W/m 15,2 C 30,3 C 6,4 km/h (2 Bft) 100,00 %
30.05.2017 17:50 30,3 C 26,7 C 40 % 1009,4 hPa 0,0 l/m 3,7 km/h (1 Bft) S-SW 202 2 min 0,000 mm 1,2 UV-I 394 W/m 15,2 C 30,3 C 4,8 km/h (1 Bft) 97,73 %
30.05.2017 17:52 30,2 C 26,7 C 39 % 1009,4 hPa 0,0 l/m 1,0 km/h (0 Bft) S-SW 202 2 min 0,000 mm 1,2 UV-I 391 W/m 14,7 C 30,2 C 3,2 km/h (1 Bft) 100,00 %
30.05.2017 17:54 30,2 C 26,7 C 42 % 1009,4 hPa 0,0 l/m 0,8 km/h (0 Bft) S-SW 202 2 min 0,000 mm 1,2 UV-I 387 W/m 15,8 C 30,2 C 3,2 km/h (1 Bft) 98,00 %
30.05.2017 17:56 30,2 C 26,7 C 42 % 1009,5 hPa 0,0 l/m 2,0 km/h (1 Bft) SO 140 2 min 0,000 mm 1,1 UV-I 380 W/m 15,8 C 30,2 C 4,8 km/h (1 Bft) 97,73 %
30.05.2017 17:58 30,3 C 26,7 C 44 % 1009,5 hPa 0,0 l/m 3,9 km/h (1 Bft) O-SO 117 2 min 0,000 mm 1,1 UV-I 374 W/m 16,7 C 30,3 C 6,4 km/h (2 Bft) 100,00 %
30.05.2017 18:00 30,2 C 26,7 C 42 % 1009,4 hPa 0,0 l/m 4,9 km/h (1 Bft) O-SO 117 2 min 0,000 mm 1,1 UV-I 369 W/m 15,8 C 30,2 C 6,4 km/h (2 Bft) 97,87 %
30.05.2017 18:02 30,2 C 26,7 C 41 % 1009,5 hPa 0,0 l/m 3,8 km/h (1 Bft) O-SO 117 2 min 0,330 mm 1,1 UV-I 364 W/m 15,5 C 30,2 C 4,8 km/h (1 Bft) 96,00 %
30.05.2017 18:04 30,2 C 26,7 C 42 % 1009,5 hPa 0,0 l/m 5,9 km/h (2 Bft) O-SO 116 2 min 0,000 mm 1,0 UV-I 359 W/m 15,8 C 30,2 C 9,7 km/h (2 Bft) 97,56 %
30.05.2017 18:06 30,1 C 26,7 C 41 % 1009,7 hPa 0,0 l/m 4,2 km/h (1 Bft) S 185 2 min 0,000 mm 1,0 UV-I 355 W/m 15,4 C 30,1 C 6,4 km/h (2 Bft) 96,00 %
30.05.2017 18:08 30,1 C 26,7 C 41 % 1009,7 hPa 0,0 l/m 2,2 km/h (1 Bft) S 186 2 min 0,000 mm 0,9 UV-I 349 W/m 15,4 C 30,1 C 4,8 km/h (1 Bft) 96,43 %
30.05.2017 18:10 30,1 C 26,7 C 40 % 1009,9 hPa 0,0 l/m 3,3 km/h (1 Bft) S-SO 161 2 min 0,000 mm 0,9 UV-I 344 W/m 15,0 C 30,1 C 8,0 km/h (2 Bft) 91,49 %
30.05.2017 18:12 30,1 C 26,7 C 43 % 1009,9 hPa 0,0 l/m 4,3 km/h (1 Bft) S-SW 192 2 min 0,000 mm 0,9 UV-I 337 W/m 16,1 C 30,1 C 6,4 km/h (2 Bft) 95,74 %
30.05.2017 18:14 30,0 C 26,7 C 40 % 1009,9 hPa 0,0 l/m 2,4 km/h (1 Bft) S-SO 163 2 min 0,000 mm 0,8 UV-I 324 W/m 14,9 C 30,0 C 6,4 km/h (2 Bft) 86,11 %
30.05.2017 18:16 29,9 C 26,7 C 41 % 1009,9 hPa 0,0 l/m 2,4 km/h (1 Bft) S 173 2 min 0,000 mm 0,7 UV-I 276 W/m 15,2 C 29,9 C 4,8 km/h (1 Bft) 94,55 %
30.05.2017 18:18 29,8 C 26,7 C 40 % 1010,0 hPa 0,0 l/m 2,8 km/h (1 Bft) S 173 0 min 0,000 mm 0,6 UV-I 111 W/m 14,7 C 29,8 C 8,0 km/h (2 Bft) 97,78 %
30.05.2017 18:20 29,6 C 26,7 C 41 % 1010,1 hPa 0,0 l/m 3,3 km/h (1 Bft) S-SO 150 0 min 0,000 mm 0,6 UV-I 104 W/m 14,9 C 29,6 C 8,0 km/h (2 Bft) 91,43 %
30.05.2017 18:22 29,4 C 26,7 C 41 % 1010,1 hPa 0,0 l/m 2,2 km/h (1 Bft) S-SO 151 0 min 0,000 mm 0,5 UV-I 103 W/m 14,7 C 29,4 C 3,2 km/h (1 Bft) 94,92 %
30.05.2017 18:24 29,3 C 26,7 C 43 % 1010,1 hPa 0,0 l/m 5,2 km/h (1 Bft) S-SW 203 0 min 0,000 mm 0,5 UV-I 106 W/m 15,4 C 29,3 C 8,0 km/h (2 Bft) 87,23 %
30.05.2017 18:26 29,3 C 26,7 C 43 % 1010,1 hPa 0,0 l/m 4,7 km/h (1 Bft) S-SW 203 0 min 0,000 mm 0,5 UV-I 107 W/m 15,4 C 29,3 C 8,0 km/h (2 Bft) 91,49 %
30.05.2017 18:28 29,2 C 26,7 C 44 % 1010,0 hPa 0,0 l/m 2,1 km/h (1 Bft) S-SW 203 0 min 0,000 mm 0,5 UV-I 109 W/m 15,7 C 29,2 C 4,8 km/h (1 Bft) 92,00 %
30.05.2017 18:30 29,2 C 26,7 C 45 % 1010,1 hPa 0,0 l/m 3,0 km/h (1 Bft) W-SW 251 0 min 0,000 mm 0,5 UV-I 108 W/m 16,0 C 29,2 C 6,4 km/h (2 Bft) 94,74 %
30.05.2017 18:32 29,1 C 26,7 C 45 % 1010,1 hPa 0,0 l/m 4,7 km/h (1 Bft) W-SW 251 0 min 0,000 mm 0,0 UV-I 109 W/m 15,9 C 29,1 C 8,0 km/h (2 Bft) 86,79 %
30.05.2017 18:34 29,1 C 26,7 C 44 % 1010,1 hPa 0,0 l/m 1,7 km/h (1 Bft) W-SW 251 0 min 0,000 mm 0,0 UV-I 107 W/m 15,6 C 29,1 C 3,2 km/h (1 Bft) 95,12 %
30.05.2017 18:36 29,0 C 26,7 C 46 % 1010,1 hPa 0,0 l/m 0,1 km/h (0 Bft) W-SW 251 0 min 0,000 mm 0,0 UV-I 109 W/m 16,2 C 29,0 C 1,6 km/h (1 Bft) 90,57 %
30.05.2017 18:38 28,8 C 26,7 C 46 % 1010,1 hPa 0,0 l/m 0,7 km/h (0 Bft) W-SW 251 0 min 0,000 mm 0,0 UV-I 109 W/m 16,0 C 28,8 C 1,6 km/h (1 Bft) 95,74 %
30.05.2017 18:40 28,7 C 26,7 C 45 % 1010,1 hPa 0,0 l/m 0,0 km/h (0 Bft) W-SW 251 0 min 0,000 mm 0,0 UV-I 109 W/m 15,6 C 28,7 C 1,6 km/h (1 Bft) 97,56 %
30.05.2017 18:42 28,7 C 26,7 C 47 % 1010,1 hPa 0,0 l/m 0,2 km/h (0 Bft) W-SW 251 0 min 0,000 mm 0,0 UV-I 109 W/m 16,3 C 28,7 C 1,6 km/h (1 Bft) 94,00 %
30.05.2017 18:44 28,6 C 26,7 C 47 % 1010,1 hPa 0,0 l/m 0,0 km/h (0 Bft) W-SW 251 0 min 0,000 mm 0,0 UV-I 109 W/m 16,2 C 28,6 C 0,0 km/h (0 Bft) 97,87 %
30.05.2017 18:46 28,6 C 26,7 C 46 % 1010,1 hPa 0,0 l/m 0,0 km/h (0 Bft) W-SW 251 0 min 0,000 mm 0,0 UV-I 109 W/m 15,8 C 28,6 C 0,0 km/h (0 Bft) 97,87 %
30.05.2017 18:48 28,6 C 26,7 C 46 % 1010,1 hPa 0,0 l/m 0,0 km/h (0 Bft) W-SW 251 0 min 0,000 mm 0,0 UV-I 106 W/m 15,8 C 28,6 C 0,0 km/h (0 Bft) 93,62 %
30.05.2017 18:50 28,5 C 26,7 C 49 % 1010,1 hPa 0,0 l/m 0,0 km/h (0 Bft) W-SW 251 0 min 0,000 mm 0,0 UV-I 104 W/m 16,7 C 28,5 C 1,6 km/h (1 Bft) 96,00 %
30.05.2017 18:52 28,3 C 26,7 C 49 % 1010,2 hPa 0,0 l/m 0,4 km/h (0 Bft) W-SW 251 0 min 0,000 mm 0,0 UV-I 103 W/m 16,5 C 28,3 C 1,6 km/h (1 Bft) 96,30 %
30.05.2017 18:54 28,3 C 26,7 C 50 % 1010,1 hPa 0,0 l/m 1,4 km/h (1 Bft) W-SW 251 0 min 0,000 mm 0,0 UV-I 102 W/m 16,9 C 28,3 C 3,2 km/h (1 Bft) 94,64 %
30.05.2017 18:56 28,2 C 26,7 C 53 % 1010,2 hPa 0,0 l/m 1,9 km/h (1 Bft) W-SW 251 0 min 0,000 mm 0,0 UV-I 102 W/m 17,7 C 28,2 C 3,2 km/h (1 Bft) 96,23 %
30.05.2017 18:58 28,1 C 26,7 C 52 % 1010,1 hPa 0,0 l/m 1,7 km/h (1 Bft) W-SW 251 0 min 0,000 mm 0,0 UV-I 100 W/m 17,3 C 28,1 C 3,2 km/h (1 Bft) 96,15 %
30.05.2017 19:00 27,9 C 26,7 C 52 % 1010,2 hPa 0,0 l/m 0,1 km/h (0 Bft) W-SW 251 0 min 0,000 mm 0,0 UV-I 98 W/m 17,1 C 27,9 C 1,6 km/h (1 Bft) 91,67 %
30.05.2017 19:02 27,8 C 26,7 C 52 % 1010,2 hPa 0,0 l/m 0,6 km/h (0 Bft) W-SW 251 0 min 0,152 mm 0,0 UV-I 92 W/m 17,0 C 27,8 C 1,6 km/h (1 Bft) 96,00 %
30.05.2017 19:04 27,8 C 26,7 C 53 % 1010,2 hPa 0,0 l/m 1,5 km/h (1 Bft) W-SW 251 0 min 0,000 mm 0,0 UV-I 88 W/m 17,3 C 27,8 C 3,2 km/h (1 Bft) 98,11 %
30.05.2017 19:06 27,8 C 26,7 C 55 % 1010,2 hPa 0,0 l/m 2,1 km/h (1 Bft) W-SW 251 0 min 0,000 mm 0,0 UV-I 84 W/m 17,9 C 27,8 C 4,8 km/h (1 Bft) 93,62 %
30.05.2017 19:08 27,7 C 26,7 C 57 % 1010,3 hPa 0,0 l/m 1,6 km/h (1 Bft) W-SW 243 0 min 0,000 mm 0,0 UV-I 80 W/m 18,4 C 27,7 C 3,2 km/h (1 Bft) 90,91 %
30.05.2017 19:10 27,7 C 26,7 C 52 % 1010,3 hPa 0,0 l/m 2,9 km/h (1 Bft) S-SO 149 0 min 0,000 mm 0,0 UV-I 77 W/m 16,9 C 27,7 C 6,4 km/h (2 Bft) 100,00 %
30.05.2017 19:12 27,7 C 26,7 C 51 % 1010,4 hPa 0,0 l/m 2,5 km/h (1 Bft) S-SO 163 0 min 0,000 mm 0,0 UV-I 69 W/m 16,6 C 27,7 C 6,4 km/h (2 Bft) 100,00 %
30.05.2017 19:14 27,7 C 26,7 C 52 % 1010,5 hPa 0,0 l/m 7,8 km/h (2 Bft) SW 215 0 min 0,000 mm 0,0 UV-I 62 W/m 16,9 C 27,5 C 11,3 km/h (2 Bft) 97,87 %
30.05.2017 19:16 27,6 C 26,7 C 51 % 1010,5 hPa 0,0 l/m 6,3 km/h (2 Bft) S 184 0 min 0,000 mm 0,0 UV-I 60 W/m 16,5 C 27,6 C 11,3 km/h (2 Bft) 97,73 %
30.05.2017 19:18 27,3 C 26,7 C 51 % 1010,4 hPa 0,0 l/m 6,1 km/h (2 Bft) S-SW 198 0 min 0,000 mm 0,0 UV-I 62 W/m 16,3 C 27,3 C 9,7 km/h (2 Bft) 98,00 %
30.05.2017 19:20 27,2 C 26,7 C 51 % 1010,4 hPa 0,0 l/m 5,2 km/h (1 Bft) S-SW 205 0 min 0,000 mm 0,0 UV-I 62 W/m 16,2 C 27,2 C 8,0 km/h (2 Bft) 97,73 %
30.05.2017 19:22 27,0 C 26,7 C 52 % 1010,4 hPa 0,0 l/m 5,4 km/h (1 Bft) S-SW 206 0 min 0,000 mm 0,0 UV-I 62 W/m 16,3 C 27,0 C 11,3 km/h (2 Bft) 98,00 %
30.05.2017 19:24 26,9 C 26,7 C 51 % 1010,4 hPa 0,0 l/m 4,1 km/h (1 Bft) S 186 0 min 0,000 mm 0,0 UV-I 65 W/m 15,9 C 26,9 C 6,4 km/h (2 Bft) 100,00 %
30.05.2017 19:26 26,8 C 26,7 C 52 % 1010,5 hPa 0,0 l/m 5,8 km/h (2 Bft) S-SO 165 0 min 0,000 mm 0,0 UV-I 65 W/m 16,1 C 26,8 C 9,7 km/h (2 Bft) 100,00 %
30.05.2017 19:28 26,8 C 26,7 C 51 % 1010,5 hPa 0,0 l/m 6,2 km/h (2 Bft) S-SO 163 0 min 0,000 mm 0,0 UV-I 58 W/m 15,8 C 26,8 C 11,3 km/h (2 Bft) 100,00 %
30.05.2017 19:30 26,7 C 26,7 C 51 % 1010,5 hPa 0,0 l/m 5,5 km/h (1 Bft) S 172 0 min 0,000 mm 0,0 UV-I 54 W/m 15,7 C 26,7 C 11,3 km/h (2 Bft) 97,56 %
30.05.2017 19:32 26,6 C 26,7 C 52 % 1010,6 hPa 0,0 l/m 4,8 km/h (1 Bft) S 188 0 min 0,000 mm 0,0 UV-I 51 W/m 15,9 C 26,6 C 9,7 km/h (2 Bft) 98,11 %
30.05.2017 19:34 26,5 C 26,7 C 52 % 1010,6 hPa 0,0 l/m 5,5 km/h (1 Bft) S-SO 159 0 min 0,000 mm 0,0 UV-I 47 W/m 15,8 C 26,5 C 8,0 km/h (2 Bft) 97,62 %
30.05.2017 19:36 26,4 C 26,7 C 52 % 1010,7 hPa 0,0 l/m 2,2 km/h (1 Bft) S-SO 162 0 min 0,000 mm 0,0 UV-I 45 W/m 15,7 C 26,4 C 3,2 km/h (1 Bft) 97,87 %
30.05.2017 19:38 26,4 C 26,7 C 53 % 1010,9 hPa 0,0 l/m 4,4 km/h (1 Bft) SW 224 0 min 0,000 mm 0,0 UV-I 44 W/m 16,0 C 26,4 C 12,9 km/h (3 Bft) 98,00 %
30.05.2017 19:40 26,4 C 26,7 C 53 % 1010,9 hPa 0,0 l/m 3,9 km/h (1 Bft) W-SW 240 0 min 0,000 mm 0,0 UV-I 44 W/m 16,0 C 26,4 C 6,4 km/h (2 Bft) 95,74 %
30.05.2017 19:42 26,3 C 26,7 C 54 % 1010,9 hPa 0,0 l/m 0,1 km/h (0 Bft) SW 226 0 min 0,000 mm 0,0 UV-I 45 W/m 16,2 C 26,3 C 1,6 km/h (1 Bft) 97,87 %
30.05.2017 19:44 26,3 C 26,7 C 53 % 1010,9 hPa 0,0 l/m 1,7 km/h (1 Bft) S-SW 202 0 min 0,000 mm 0,0 UV-I 44 W/m 15,9 C 26,3 C 4,8 km/h (1 Bft) 98,00 %
30.05.2017 19:46 26,2 C 26,7 C 53 % 1010,9 hPa 0,0 l/m 5,2 km/h (1 Bft) S-SW 201 0 min 0,000 mm 0,0 UV-I 43 W/m 15,8 C 26,2 C 9,7 km/h (2 Bft) 100,00 %
30.05.2017 19:48 26,2 C 26,7 C 53 % 1011,0 hPa 0,0 l/m 6,9 km/h (2 Bft) S-SW 209 0 min 0,000 mm 0,0 UV-I 35 W/m 15,8 C 26,1 C 11,3 km/h (2 Bft) 100,00 %
30.05.2017 19:50 26,2 C 26,7 C 53 % 1011,0 hPa 0,0 l/m 7,1 km/h (2 Bft) S-SW 210 0 min 0,000 mm 0,0 UV-I 29 W/m 15,8 C 26,1 C 11,3 km/h (2 Bft) 95,74 %
30.05.2017 19:52 26,1 C 26,7 C 54 % 1011,1 hPa 0,0 l/m 10,6 km/h (2 Bft) S-SW 211 0 min 0,000 mm 0,0 UV-I 23 W/m 16,0 C 25,3 C 22,5 km/h (4 Bft) 92,68 %
30.05.2017 19:54 26,0 C 26,7 C 54 % 1011,1 hPa 0,0 l/m 11,5 km/h (2 Bft) S-SW 195 0 min 0,000 mm 0,0 UV-I 19 W/m 16,0 C 25,0 C 20,9 km/h (4 Bft) 96,23 %
30.05.2017 19:56 25,9 C 26,7 C 54 % 1011,3 hPa 0,0 l/m 9,2 km/h (2 Bft) S-SW 204 0 min 0,000 mm 0,0 UV-I 17 W/m 15,9 C 25,3 C 16,1 km/h (3 Bft) 95,45 %
30.05.2017 19:58 25,8 C 26,7 C 55 % 1011,2 hPa 0,0 l/m 9,1 km/h (2 Bft) W-SW 242 0 min 0,000 mm 0,0 UV-I 14 W/m 16,1 C 25,2 C 17,7 km/h (3 Bft) 97,87 %
30.05.2017 20:00 25,6 C 26,7 C 54 % 1011,2 hPa 0,0 l/m 20,9 km/h (4 Bft) SW 221 0 min 0,077 mm 0,0 UV-I 13 W/m 15,6 C 23,3 C 35,4 km/h (5 Bft) 96,00 %
30.05.2017 20:02 25,4 C 26,7 C 55 % 1011,3 hPa 0,0 l/m 21,1 km/h (4 Bft) S 175 0 min 0,000 mm 0,0 UV-I 12 W/m 15,7 C 23,1 C 35,4 km/h (5 Bft) 95,45 %
30.05.2017 20:04 25,3 C 26,7 C 55 % 1011,5 hPa 0,0 l/m 19,6 km/h (3 Bft) SW 236 0 min 0,000 mm 0,0 UV-I 11 W/m 15,6 C 23,1 C 38,6 km/h (5 Bft) 95,74 %
30.05.2017 20:06 25,1 C 26,7 C 56 % 1011,5 hPa 0,0 l/m 18,4 km/h (3 Bft) S-SW 211 0 min 0,000 mm 0,0 UV-I 9 W/m 15,7 C 23,0 C 29,0 km/h (5 Bft) 95,74 %
30.05.2017 20:08 24,8 C 26,7 C 57 % 1011,5 hPa 0,0 l/m 23,0 km/h (4 Bft) S 184 0 min 0,000 mm 0,0 UV-I 8 W/m 15,7 C 22,1 C 38,6 km/h (5 Bft) 97,73 %
30.05.2017 20:10 24,4 C 26,7 C 58 % 1011,6 hPa 0,0 l/m 22,0 km/h (4 Bft) S-SW 194 0 min 0,000 mm 0,0 UV-I 7 W/m 15,6 C 21,7 C 35,4 km/h (5 Bft) 92,86 %
30.05.2017 20:12 24,3 C 26,7 C 58 % 1011,8 hPa 0,0 l/m 19,5 km/h (3 Bft) S-SW 200 0 min 0,000 mm 0,0 UV-I 7 W/m 15,5 C 21,8 C 32,2 km/h (5 Bft) 93,10 %
30.05.2017 20:14 24,1 C 26,7 C 59 % 1011,6 hPa 0,0 l/m 18,7 km/h (3 Bft) S 190 0 min 0,000 mm 0,0 UV-I 7 W/m 15,6 C 21,7 C 40,2 km/h (6 Bft) 94,87 %
30.05.2017 20:16 23,9 C 26,7 C 60 % 1011,6 hPa 0,0 l/m 16,8 km/h (3 Bft) S-SO 161 0 min 0,000 mm 0,0 UV-I 7 W/m 15,7 C 21,7 C 29,0 km/h (5 Bft) 96,43 %
30.05.2017 20:18 23,8 C 26,7 C 61 % 1011,6 hPa 0,0 l/m 12,7 km/h (3 Bft) SO 134 0 min 0,000 mm 0,0 UV-I 7 W/m 15,8 C 22,3 C 19,3 km/h (3 Bft) 97,37 %
30.05.2017 20:20 23,8 C 26,7 C 61 % 1011,7 hPa 0,0 l/m 12,2 km/h (2 Bft) S 173 0 min 0,000 mm 0,0 UV-I 7 W/m 15,8 C 22,4 C 25,7 km/h (4 Bft) 100,00 %
30.05.2017 20:22 23,7 C 26,7 C 62 % 1011,6 hPa 0,0 l/m 12,6 km/h (3 Bft) S-SO 150 0 min 0,000 mm 0,0 UV-I 6 W/m 16,0 C 22,2 C 25,7 km/h (4 Bft) 98,00 %
30.05.2017 20:24 23,5 C 26,7 C 62 % 1011,8 hPa 0,0 l/m 9,9 km/h (2 Bft) S-SW 213 0 min 0,000 mm 0,0 UV-I 5 W/m 15,8 C 22,5 C 16,1 km/h (3 Bft) 100,00 %
30.05.2017 20:26 23,4 C 26,7 C 63 % 1011,9 hPa 0,0 l/m 13,6 km/h (3 Bft) S 190 0 min 0,000 mm 0,0 UV-I 5 W/m 15,9 C 21,6 C 22,5 km/h (4 Bft) 100,00 %
30.05.2017 20:28 23,3 C 26,7 C 63 % 1011,9 hPa 0,0 l/m 11,3 km/h (2 Bft) SW 214 0 min 0,000 mm 0,0 UV-I 5 W/m 15,9 C 22,0 C 16,1 km/h (3 Bft) 98,21 %
30.05.2017 20:30 23,2 C 26,7 C 64 % 1012,0 hPa 0,0 l/m 9,0 km/h (2 Bft) S 186 0 min 0,000 mm 0,0 UV-I 5 W/m 16,0 C 22,4 C 16,1 km/h (3 Bft) 100,00 %
30.05.2017 20:32 23,1 C 26,7 C 65 % 1012,0 hPa 0,0 l/m 12,1 km/h (2 Bft) W-SW 240 0 min 0,000 mm 0,0 UV-I 5 W/m 16,2 C 21,6 C 20,9 km/h (4 Bft) 100,00 %
30.05.2017 20:34 23,1 C 26,7 C 65 % 1012,1 hPa 0,0 l/m 12,9 km/h (3 Bft) W-SW 248 0 min 0,000 mm 0,0 UV-I 5 W/m 16,2 C 21,4 C 17,7 km/h (3 Bft) 97,37 %
30.05.2017 20:36 22,9 C 26,7 C 66 % 1012,3 hPa 0,0 l/m 15,2 km/h (3 Bft) W-SW 243 0 min 0,000 mm 0,0 UV-I 5 W/m 16,2 C 20,7 C 24,1 km/h (4 Bft) 100,00 %
30.05.2017 20:38 22,8 C 26,7 C 67 % 1012,4 hPa 0,0 l/m 20,2 km/h (4 Bft) SW 236 0 min 0,000 mm 0,0 UV-I 5 W/m 16,3 C 19,8 C 32,2 km/h (5 Bft) 95,74 %
30.05.2017 20:40 22,7 C 26,7 C 66 % 1012,7 hPa 0,0 l/m 28,3 km/h (4 Bft) S-SW 212 0 min 0,000 mm 0,0 UV-I 1 W/m 16,0 C 18,7 C 46,7 km/h (6 Bft) 97,73 %
30.05.2017 20:42 22,5 C 26,7 C 65 % 1012,8 hPa 0,0 l/m 28,8 km/h (4 Bft) S-SW 197 0 min 0,000 mm 0,0 UV-I 0 W/m 15,6 C 18,4 C 51,5 km/h (7 Bft) 96,43 %
30.05.2017 20:44 22,3 C 26,7 C 64 % 1012,6 hPa 0,0 l/m 23,8 km/h (4 Bft) SW 215 0 min 0,000 mm 0,0 UV-I 0 W/m 15,2 C 18,6 C 38,6 km/h (5 Bft) 96,30 %
30.05.2017 20:46 22,1 C 26,7 C 64 % 1012,7 hPa 0,0 l/m 22,6 km/h (4 Bft) SW 230 0 min 0,000 mm 0,0 UV-I 0 W/m 15,0 C 18,5 C 40,2 km/h (6 Bft) 98,21 %
30.05.2017 20:48 21,8 C 26,7 C 64 % 1012,8 hPa 0,0 l/m 25,8 km/h (4 Bft) SW 218 0 min 0,000 mm 0,0 UV-I 0 W/m 14,7 C 17,7 C 37,0 km/h (5 Bft) 98,18 %
30.05.2017 20:50 21,6 C 26,7 C 65 % 1012,6 hPa 0,0 l/m 20,4 km/h (4 Bft) S-SO 153 0 min 0,000 mm 0,0 UV-I 0 W/m 14,7 C 18,2 C 35,4 km/h (5 Bft) 97,96 %
30.05.2017 20:52 21,3 C 26,7 C 67 % 1012,6 hPa 0,0 l/m 17,1 km/h (3 Bft) SW 215 0 min 0,000 mm 0,0 UV-I 0 W/m 14,9 C 18,4 C 33,8 km/h (5 Bft) 100,00 %
30.05.2017 20:54 21,1 C 26,7 C 67 % 1012,6 hPa 0,0 l/m 19,0 km/h (3 Bft) W-SW 250 0 min 0,000 mm 0,0 UV-I 0 W/m 14,7 C 17,8 C 41,8 km/h (6 Bft) 94,23 %
30.05.2017 20:56 20,9 C 26,7 C 68 % 1012,7 hPa 0,0 l/m 22,3 km/h (4 Bft) SW 219 0 min 0,000 mm 0,0 UV-I 0 W/m 14,8 C 17,0 C 40,2 km/h (6 Bft) 100,00 %
30.05.2017 20:58 20,8 C 26,7 C 69 % 1012,7 hPa 0,0 l/m 17,8 km/h (3 Bft) S-SW 194 0 min 0,000 mm 0,0 UV-I 0 W/m 14,9 C 17,6 C 29,0 km/h (5 Bft) 100,00 %
30.05.2017 21:00 20,6 C 26,7 C 70 % 1012,7 hPa 0,0 l/m 22,8 km/h (4 Bft) SO 143 0 min 0,000 mm 0,0 UV-I 0 W/m 14,9 C 16,5 C 37,0 km/h (5 Bft) 97,37 %
30.05.2017 21:02 20,4 C 26,7 C 70 % 1012,6 hPa 0,0 l/m 17,2 km/h (3 Bft) S-SW 200 0 min 0,101 mm 0,0 UV-I 0 W/m 14,7 C 17,3 C 27,4 km/h (4 Bft) 100,00 %
30.05.2017 21:04 20,3 C 26,7 C 71 % 1012,7 hPa 0,0 l/m 16,1 km/h (3 Bft) S-SW 207 0 min 0,000 mm 0,0 UV-I 0 W/m 14,9 C 17,4 C 29,0 km/h (5 Bft) 100,00 %
30.05.2017 21:06 20,3 C 26,7 C 71 % 1012,7 hPa 0,0 l/m 17,4 km/h (3 Bft) SW 234 0 min 0,000 mm 0,0 UV-I 0 W/m 14,9 C 17,1 C 32,2 km/h (5 Bft) 100,00 %
30.05.2017 21:08 20,2 C 26,7 C 71 % 1012,7 hPa 0,0 l/m 15,4 km/h (3 Bft) SW 227 0 min 0,000 mm 0,0 UV-I 0 W/m 14,8 C 17,4 C 22,5 km/h (4 Bft) 100,00 %
30.05.2017 21:10 20,2 C 26,7 C 72 % 1012,8 hPa 0,0 l/m 15,4 km/h (3 Bft) S-SW 209 0 min 0,000 mm 0,0 UV-I 0 W/m 15,0 C 17,4 C 25,7 km/h (4 Bft) 100,00 %
30.05.2017 21:12 20,1 C 26,7 C 72 % 1012,8 hPa 0,0 l/m 15,3 km/h (3 Bft) SW 233 0 min 0,000 mm 0,0 UV-I 0 W/m 14,9 C 17,3 C 22,5 km/h (4 Bft) 97,37 %
30.05.2017 21:14 20,1 C 26,7 C 73 % 1012,9 hPa 0,0 l/m 16,9 km/h (3 Bft) S-SW 198 0 min 0,000 mm 0,0 UV-I 0 W/m 15,1 C 16,9 C 30,6 km/h (5 Bft) 100,00 %
30.05.2017 21:16 20,0 C 26,7 C 74 % 1013,0 hPa 0,0 l/m 15,6 km/h (3 Bft) W-SW 245 0 min 0,000 mm 0,0 UV-I 0 W/m 15,2 C 17,1 C 20,9 km/h (4 Bft) 98,21 %
30.05.2017 21:18 19,9 C 26,7 C 74 % 1013,1 hPa 0,0 l/m 20,6 km/h (4 Bft) W-SW 240 0 min 0,000 mm 0,0 UV-I 0 W/m 15,1 C 16,0 C 27,4 km/h (4 Bft) 100,00 %
30.05.2017 21:20 19,8 C 26,7 C 75 % 1013,3 hPa 0,0 l/m 20,8 km/h (4 Bft) W-SW 246 0 min 0,000 mm 0,0 UV-I 0 W/m 15,2 C 15,8 C 29,0 km/h (5 Bft) 97,14 %
30.05.2017 21:22 19,7 C 26,7 C 76 % 1013,3 hPa 0,0 l/m 18,7 km/h (3 Bft) W-SW 255 0 min 0,000 mm 0,0 UV-I 0 W/m 15,3 C 16,1 C 24,1 km/h (4 Bft) 100,00 %
30.05.2017 21:24 19,6 C 26,7 C 77 % 1013,4 hPa 0,0 l/m 18,3 km/h (3 Bft) W-SW 238 0 min 0,000 mm 0,0 UV-I 0 W/m 15,5 C 16,0 C 25,7 km/h (4 Bft) 100,00 %
30.05.2017 21:26 19,4 C 26,7 C 78 % 1013,4 hPa 0,0 l/m 13,6 km/h (3 Bft) W-SW 255 0 min 0,000 mm 0,0 UV-I 0 W/m 15,5 C 16,9 C 24,1 km/h (4 Bft) 98,11 %
30.05.2017 21:28 19,2 C 26,7 C 79 % 1013,5 hPa 0,0 l/m 17,2 km/h (3 Bft) W 268 0 min 0,000 mm 0,0 UV-I 0 W/m 15,5 C 15,8 C 24,1 km/h (4 Bft) 100,00 %
30.05.2017 21:30 19,1 C 26,7 C 79 % 1013,6 hPa 0,0 l/m 17,4 km/h (3 Bft) W-SW 252 0 min 0,000 mm 0,0 UV-I 0 W/m 15,4 C 15,6 C 27,4 km/h (4 Bft) 96,23 %
30.05.2017 21:32 19,0 C 26,7 C 80 % 1013,6 hPa 0,0 l/m 13,9 km/h (3 Bft) W-SW 239 0 min 0,000 mm 0,0 UV-I 0 W/m 15,5 C 16,3 C 19,3 km/h (3 Bft) 100,00 %
30.05.2017 21:34 18,9 C 26,7 C 81 % 1013,6 hPa 0,0 l/m 15,9 km/h (3 Bft) W-SW 242 0 min 0,000 mm 0,0 UV-I 0 W/m 15,6 C 15,7 C 24,1 km/h (4 Bft) 94,44 %
30.05.2017 21:36 18,8 C 26,7 C 81 % 1013,6 hPa 0,2 l/m 16,5 km/h (3 Bft) W-SW 238 0 min 0,000 mm 0,0 UV-I 0 W/m 15,5 C 15,4 C 27,4 km/h (4 Bft) 100,00 %
30.05.2017 21:38 18,8 C 26,7 C 82 % 1013,6 hPa 0,0 l/m 19,5 km/h (3 Bft) W-SW 240 0 min 0,000 mm 0,0 UV-I 0 W/m 15,7 C 14,8 C 30,6 km/h (5 Bft) 96,23 %
30.05.2017 21:40 18,7 C 26,7 C 83 % 1013,6 hPa 0,0 l/m 15,2 km/h (3 Bft) W-SW 244 0 min 0,000 mm 0,0 UV-I 0 W/m 15,8 C 15,6 C 22,5 km/h (4 Bft) 97,56 %
30.05.2017 21:42 18,7 C 26,7 C 83 % 1013,7 hPa 0,0 l/m 19,7 km/h (3 Bft) SW 216 0 min 0,000 mm 0,0 UV-I 0 W/m 15,8 C 14,6 C 33,8 km/h (5 Bft) 97,62 %
30.05.2017 21:44 18,6 C 26,1 C 83 % 1013,7 hPa 0,2 l/m 17,8 km/h (3 Bft) SW 221 0 min 0,000 mm 0,0 UV-I 0 W/m 15,7 C 14,9 C 25,7 km/h (4 Bft) 96,77 %
30.05.2017 21:46 18,6 C 26,1 C 84 % 1013,8 hPa 0,0 l/m 14,3 km/h (3 Bft) W-SW 254 0 min 0,000 mm 0,0 UV-I 0 W/m 15,8 C 15,7 C 22,5 km/h (4 Bft) 95,12 %
30.05.2017 21:48 18,5 C 26,7 C 85 % 1014,0 hPa 0,0 l/m 16,6 km/h (3 Bft) W-SW 247 0 min 0,000 mm 0,0 UV-I 0 W/m 15,9 C 15,0 C 25,7 km/h (4 Bft) 97,87 %
30.05.2017 21:50 18,5 C 26,1 C 85 % 1014,1 hPa 0,2 l/m 20,6 km/h (4 Bft) S-SW 207 0 min 0,000 mm 0,0 UV-I 0 W/m 15,9 C 14,1 C 29,0 km/h (5 Bft) 96,23 %
30.05.2017 21:52 18,4 C 26,1 C 85 % 1014,2 hPa 0,0 l/m 19,7 km/h (3 Bft) W-SW 247 0 min 0,000 mm 0,0 UV-I 0 W/m 15,8 C 14,2 C 25,7 km/h (4 Bft) 95,56 %
30.05.2017 21:54 18,3 C 26,1 C 86 % 1014,4 hPa 0,2 l/m 18,8 km/h (3 Bft) W-SW 256 0 min 0,000 mm 0,0 UV-I 0 W/m 15,9 C 14,3 C 25,7 km/h (4 Bft) 95,12 %
30.05.2017 21:56 18,3 C 26,1 C 87 % 1014,7 hPa 0,2 l/m 21,8 km/h (4 Bft) W-SW 248 0 min 0,000 mm 0,0 UV-I 0 W/m 16,1 C 13,7 C 30,6 km/h (5 Bft) 92,45 %
30.05.2017 21:58 18,2 C 26,1 C 87 % 1014,8 hPa 0,0 l/m 18,8 km/h (3 Bft) W-SW 251 0 min 0,000 mm 0,0 UV-I 0 W/m 16,0 C 14,1 C 35,4 km/h (5 Bft) 89,47 %
30.05.2017 22:00 18,1 C 26,1 C 87 % 1014,6 hPa 0,0 l/m 15,5 km/h (3 Bft) W 266 0 min 0,051 mm 0,0 UV-I 0 W/m 15,9 C 14,8 C 25,7 km/h (4 Bft) 94,34 %
30.05.2017 22:02 18,1 C 26,1 C 87 % 1014,3 hPa 0,0 l/m 20,9 km/h (4 Bft) W 261 0 min 0,000 mm 0,0 UV-I 0 W/m 15,9 C 13,6 C 30,6 km/h (5 Bft) 96,00 %
30.05.2017 22:04 18,0 C 26,1 C 87 % 1014,2 hPa 0,2 l/m 19,1 km/h (3 Bft) W 263 0 min 0,000 mm 0,0 UV-I 0 W/m 15,8 C 13,8 C 30,6 km/h (5 Bft) 88,57 %
30.05.2017 22:06 18,0 C 26,1 C 87 % 1014,2 hPa 0,0 l/m 18,0 km/h (3 Bft) W-NW 301 0 min 0,000 mm 0,0 UV-I 0 W/m 15,8 C 14,1 C 24,1 km/h (4 Bft) 95,83 %
30.05.2017 22:08 17,9 C 26,1 C 87 % 1014,3 hPa 0,0 l/m 16,2 km/h (3 Bft) W-SW 257 0 min 0,000 mm 0,0 UV-I 0 W/m 15,7 C 14,4 C 24,1 km/h (4 Bft) 92,73 %
30.05.2017 22:10 17,9 C 26,1 C 87 % 1014,3 hPa 0,0 l/m 14,6 km/h (3 Bft) W-SW 252 0 min 0,000 mm 0,0 UV-I 0 W/m 15,7 C 14,8 C 20,9 km/h (4 Bft) 92,86 %
30.05.2017 22:12 17,9 C 26,1 C 88 % 1014,2 hPa 0,0 l/m 14,3 km/h (3 Bft) W-SW 243 0 min 0,000 mm 0,0 UV-I 0 W/m 15,9 C 14,9 C 22,5 km/h (4 Bft) 96,23 %
30.05.2017 22:14 17,9 C 26,1 C 87 % 1014,1 hPa 0,0 l/m 13,0 km/h (3 Bft) SW 220 0 min 0,000 mm 0,0 UV-I 0 W/m 15,7 C 15,3 C 20,9 km/h (4 Bft) 95,12 %
30.05.2017 22:16 17,9 C 26,1 C 86 % 1014,0 hPa 0,2 l/m 15,0 km/h (3 Bft) SW 226 0 min 0,000 mm 0,0 UV-I 0 W/m 15,5 C 14,7 C 20,9 km/h (4 Bft) 93,62 %
30.05.2017 22:18 18,0 C 26,1 C 86 % 1014,0 hPa 0,0 l/m 13,0 km/h (3 Bft) S-SW 204 0 min 0,000 mm 0,0 UV-I 0 W/m 15,6 C 15,4 C 19,3 km/h (3 Bft) 96,23 %
30.05.2017 22:20 18,1 C 26,1 C 86 % 1013,9 hPa 0,0 l/m 10,6 km/h (2 Bft) S-SW 196 0 min 0,000 mm 0,0 UV-I 0 W/m 15,7 C 16,3 C 17,7 km/h (3 Bft) 97,73 %
30.05.2017 22:22 18,1 C 26,1 C 86 % 1013,8 hPa 0,0 l/m 13,0 km/h (3 Bft) S-SW 210 0 min 0,000 mm 0,0 UV-I 0 W/m 15,7 C 15,5 C 19,3 km/h (3 Bft) 97,37 %
30.05.2017 22:24 18,1 C 26,1 C 86 % 1013,7 hPa 0,0 l/m 11,9 km/h (2 Bft) S-SW 213 0 min 0,000 mm 0,0 UV-I 0 W/m 15,7 C 15,9 C 19,3 km/h (3 Bft) 96,23 %
30.05.2017 22:26 18,1 C 26,1 C 86 % 1013,7 hPa 0,0 l/m 16,2 km/h (3 Bft) SW 220 0 min 0,000 mm 0,0 UV-I 0 W/m 15,7 C 14,6 C 24,1 km/h (4 Bft) 96,00 %
30.05.2017 22:28 18,2 C 26,1 C 86 % 1013,6 hPa 0,0 l/m 12,9 km/h (3 Bft) SW 233 0 min 0,000 mm 0,0 UV-I 0 W/m 15,8 C 15,7 C 17,7 km/h (3 Bft) 95,12 %
30.05.2017 22:30 18,2 C 26,1 C 86 % 1013,7 hPa 0,0 l/m 11,4 km/h (2 Bft) SW 231 0 min 0,000 mm 0,0 UV-I 0 W/m 15,8 C 16,2 C 17,7 km/h (3 Bft) 92,00 %
30.05.2017 22:32 18,1 C 26,1 C 86 % 1013,6 hPa 0,0 l/m 8,2 km/h (2 Bft) SW 226 0 min 0,000 mm 0,0 UV-I 0 W/m 15,7 C 17,3 C 12,9 km/h (3 Bft) 100,00 %
30.05.2017 22:34 18,1 C 26,1 C 87 % 1013,7 hPa 0,0 l/m 11,0 km/h (2 Bft) W-SW 246 0 min 0,000 mm 0,0 UV-I 0 W/m 15,9 C 16,2 C 17,7 km/h (3 Bft) 94,64 %
30.05.2017 22:36 18,0 C 26,1 C 87 % 1013,7 hPa 0,0 l/m 11,9 km/h (2 Bft) S-SW 213 0 min 0,000 mm 0,0 UV-I 0 W/m 15,8 C 15,8 C 19,3 km/h (3 Bft) 95,74 %
30.05.2017 22:38 17,9 C 26,1 C 87 % 1013,6 hPa 0,0 l/m 12,7 km/h (3 Bft) SW 226 0 min 0,000 mm 0,0 UV-I 0 W/m 15,7 C 15,4 C 20,9 km/h (4 Bft) 98,00 %
30.05.2017 22:40 17,9 C 26,1 C 88 % 1013,6 hPa 0,0 l/m 13,1 km/h (3 Bft) S-SW 202 0 min 0,000 mm 0,0 UV-I 0 W/m 15,9 C 15,3 C 19,3 km/h (3 Bft) 95,12 %
30.05.2017 22:42 17,9 C 26,1 C 88 % 1013,6 hPa 0,2 l/m 12,7 km/h (3 Bft) S 181 0 min 0,000 mm 0,0 UV-I 0 W/m 15,9 C 15,4 C 17,7 km/h (3 Bft) 95,74 %
30.05.2017 22:44 17,9 C 26,1 C 88 % 1013,6 hPa 0,0 l/m 9,9 km/h (2 Bft) W-SW 257 0 min 0,000 mm 0,0 UV-I 0 W/m 15,9 C 16,4 C 17,7 km/h (3 Bft) 96,00 %
30.05.2017 22:46 17,9 C 26,1 C 88 % 1013,6 hPa 0,0 l/m 11,0 km/h (2 Bft) W-SW 257 0 min 0,000 mm 0,0 UV-I 0 W/m 15,9 C 16,0 C 19,3 km/h (3 Bft) 94,87 %
30.05.2017 22:48 17,9 C 26,1 C 88 % 1013,7 hPa 0,0 l/m 8,6 km/h (2 Bft) W-SW 243 0 min 0,000 mm 0,0 UV-I 0 W/m 15,9 C 16,9 C 12,9 km/h (3 Bft) 98,00 %
30.05.2017 22:50 17,9 C 26,1 C 88 % 1013,7 hPa 0,0 l/m 9,4 km/h (2 Bft) S-SW 203 0 min 0,000 mm 0,0 UV-I 0 W/m 15,9 C 16,6 C 16,1 km/h (3 Bft) 96,00 %
30.05.2017 22:52 17,8 C 26,1 C 88 % 1013,7 hPa 0,0 l/m 10,9 km/h (2 Bft) W-SW 242 0 min 0,000 mm 0,0 UV-I 0 W/m 15,8 C 15,9 C 16,1 km/h (3 Bft) 94,74 %
30.05.2017 22:54 17,8 C 26,1 C 89 % 1013,8 hPa 0,0 l/m 11,3 km/h (2 Bft) W-SW 257 0 min 0,000 mm 0,0 UV-I 0 W/m 16,0 C 15,7 C 17,7 km/h (3 Bft) 96,61 %
30.05.2017 22:56 17,8 C 26,1 C 89 % 1013,8 hPa 0,2 l/m 13,8 km/h (3 Bft) SW 236 0 min 0,000 mm 0,0 UV-I 0 W/m 16,0 C 14,9 C 17,7 km/h (3 Bft) 97,56 %
30.05.2017 22:58 17,8 C 26,1 C 89 % 1013,8 hPa 0,0 l/m 16,7 km/h (3 Bft) SW 219 0 min 0,000 mm 0,0 UV-I 0 W/m 16,0 C 14,1 C 25,7 km/h (4 Bft) 100,00 %
30.05.2017 23:00 17,7 C 26,1 C 89 % 1013,7 hPa 0,0 l/m 12,8 km/h (3 Bft) W-SW 250 0 min 0,000 mm 0,0 UV-I 0 W/m 15,9 C 15,1 C 19,3 km/h (3 Bft) 100,00 %
30.05.2017 23:02 17,7 C 26,1 C 89 % 1013,7 hPa 0,0 l/m 13,6 km/h (3 Bft) W-SW 240 0 min 0,025 mm 0,0 UV-I 0 W/m 15,9 C 14,9 C 20,9 km/h (4 Bft) 100,00 %
30.05.2017 23:04 17,7 C 26,1 C 89 % 1013,7 hPa 0,0 l/m 12,3 km/h (3 Bft) SW 233 0 min 0,000 mm 0,0 UV-I 0 W/m 15,9 C 15,3 C 19,3 km/h (3 Bft) 97,87 %
30.05.2017 23:06 17,7 C 26,1 C 89 % 1013,6 hPa 0,0 l/m 12,3 km/h (3 Bft) SW 224 0 min 0,000 mm 0,0 UV-I 0 W/m 15,9 C 15,3 C 19,3 km/h (3 Bft) 100,00 %
30.05.2017 23:08 17,7 C 26,1 C 90 % 1013,6 hPa 0,0 l/m 11,9 km/h (2 Bft) W-SW 253 0 min 0,000 mm 0,0 UV-I 0 W/m 16,0 C 15,4 C 20,9 km/h (4 Bft) 97,56 %
30.05.2017 23:10 17,7 C 26,1 C 89 % 1013,7 hPa 0,0 l/m 10,7 km/h (2 Bft) W-SW 244 0 min 0,000 mm 0,0 UV-I 0 W/m 15,9 C 15,8 C 14,5 km/h (3 Bft) 100,00 %
30.05.2017 23:12 17,7 C 26,1 C 90 % 1013,7 hPa 0,0 l/m 9,4 km/h (2 Bft) SW 227 0 min 0,000 mm 0,0 UV-I 0 W/m 16,0 C 16,3 C 17,7 km/h (3 Bft) 96,23 %
30.05.2017 23:14 17,7 C 26,1 C 89 % 1013,7 hPa 0,0 l/m 10,3 km/h (2 Bft) W-SW 249 0 min 0,000 mm 0,0 UV-I 0 W/m 15,9 C 16,0 C 17,7 km/h (3 Bft) 97,87 %
30.05.2017 23:16 17,7 C 26,1 C 89 % 1013,7 hPa 0,0 l/m 10,8 km/h (2 Bft) W 262 0 min 0,000 mm 0,0 UV-I 0 W/m 15,9 C 15,8 C 16,1 km/h (3 Bft) 97,56 %
30.05.2017 23:18 17,7 C 26,1 C 89 % 1013,7 hPa 0,0 l/m 8,1 km/h (2 Bft) S-SW 205 0 min 0,000 mm 0,0 UV-I 0 W/m 15,9 C 16,9 C 14,5 km/h (3 Bft) 97,73 %
30.05.2017 23:20 17,7 C 26,1 C 90 % 1013,6 hPa 0,0 l/m 6,1 km/h (2 Bft) S-SW 199 0 min 0,000 mm 0,0 UV-I 0 W/m 16,0 C 17,7 C 9,7 km/h (2 Bft) 100,00 %
30.05.2017 23:22 17,7 C 26,1 C 90 % 1013,6 hPa 0,0 l/m 7,3 km/h (2 Bft) SW 215 0 min 0,000 mm 0,0 UV-I 0 W/m 16,0 C 17,3 C 9,7 km/h (2 Bft) 97,44 %
30.05.2017 23:24 17,7 C 26,1 C 89 % 1013,6 hPa 0,0 l/m 7,5 km/h (2 Bft) SW 219 0 min 0,000 mm 0,0 UV-I 0 W/m 15,9 C 17,2 C 11,3 km/h (2 Bft) 100,00 %
30.05.2017 23:26 17,8 C 26,1 C 89 % 1013,7 hPa 0,2 l/m 5,7 km/h (1 Bft) SW 236 0 min 0,000 mm 0,0 UV-I 0 W/m 16,0 C 17,8 C 8,0 km/h (2 Bft) 97,44 %
30.05.2017 23:28 17,8 C 26,1 C 89 % 1013,8 hPa 0,0 l/m 7,7 km/h (2 Bft) S-SW 210 0 min 0,000 mm 0,0 UV-I 0 W/m 16,0 C 17,2 C 9,7 km/h (2 Bft) 100,00 %
30.05.2017 23:30 17,8 C 26,1 C 90 % 1013,9 hPa 0,0 l/m 6,1 km/h (2 Bft) SW 223 0 min 0,000 mm 0,0 UV-I 0 W/m 16,1 C 17,8 C 8,0 km/h (2 Bft) 95,74 %
30.05.2017 23:32 17,8 C 26,1 C 90 % 1013,9 hPa 0,0 l/m 7,5 km/h (2 Bft) W-SW 240 0 min 0,000 mm 0,0 UV-I 0 W/m 16,1 C 17,3 C 16,1 km/h (3 Bft) 100,00 %
30.05.2017 23:34 17,8 C 26,1 C 90 % 1013,9 hPa 0,0 l/m 5,7 km/h (1 Bft) SW 223 0 min 0,000 mm 0,0 UV-I 0 W/m 16,1 C 17,8 C 11,3 km/h (2 Bft) 98,00 %
30.05.2017 23:36 17,7 C 26,1 C 90 % 1013,9 hPa 0,0 l/m 5,5 km/h (1 Bft) W-SW 238 0 min 0,000 mm 0,0 UV-I 0 W/m 16,0 C 17,7 C 8,0 km/h (2 Bft) 97,56 %
30.05.2017 23:38 17,8 C 26,1 C 90 % 1013,9 hPa 0,0 l/m 2,5 km/h (1 Bft) SW 229 0 min 0,000 mm 0,0 UV-I 0 W/m 16,1 C 17,8 C 4,8 km/h (1 Bft) 98,00 %
30.05.2017 23:40 17,7 C 26,1 C 90 % 1013,9 hPa 0,0 l/m 0,1 km/h (0 Bft) SW 229 0 min 0,000 mm 0,0 UV-I 0 W/m 16,0 C 17,7 C 1,6 km/h (1 Bft) 100,00 %
30.05.2017 23:42 17,7 C 26,1 C 90 % 1014,0 hPa 0,0 l/m 0,5 km/h (0 Bft) SW 229 0 min 0,000 mm 0,0 UV-I 0 W/m 16,0 C 17,7 C 1,6 km/h (1 Bft) 97,14 %
30.05.2017 23:44 17,7 C 26,1 C 90 % 1013,9 hPa 0,0 l/m 0,9 km/h (0 Bft) SW 229 0 min 0,000 mm 0,0 UV-I 0 W/m 16,0 C 17,7 C 3,2 km/h (1 Bft) 96,23 %
30.05.2017 23:46 17,7 C 26,1 C 90 % 1014,0 hPa 0,0 l/m 0,2 km/h (0 Bft) SW 229 0 min 0,000 mm 0,0 UV-I 0 W/m 16,0 C 17,7 C 1,6 km/h (1 Bft) 100,00 %
30.05.2017 23:48 17,7 C 26,1 C 90 % 1014,1 hPa 0,0 l/m 1,0 km/h (0 Bft) SW 230 0 min 0,000 mm 0,0 UV-I 0 W/m 16,0 C 17,7 C 3,2 km/h (1 Bft) 92,11 %
30.05.2017 23:50 17,6 C 26,1 C 90 % 1014,2 hPa 0,0 l/m 1,3 km/h (1 Bft) SW 232 0 min 0,000 mm 0,0 UV-I 0 W/m 15,9 C 17,6 C 3,2 km/h (1 Bft) 97,37 %
30.05.2017 23:52 17,6 C 26,1 C 90 % 1014,2 hPa 0,0 l/m 0,3 km/h (0 Bft) SW 232 0 min 0,000 mm 0,0 UV-I 0 W/m 15,9 C 17,6 C 3,2 km/h (1 Bft) 96,43 %
30.05.2017 23:54 17,5 C 26,1 C 91 % 1014,2 hPa 0,0 l/m 0,6 km/h (0 Bft) SW 232 0 min 0,000 mm 0,0 UV-I 0 W/m 16,0 C 17,5 C 3,2 km/h (1 Bft) 95,45 %
30.05.2017 23:56 17,4 C 26,1 C 91 % 1014,2 hPa 0,0 l/m 0,5 km/h (0 Bft) SW 232 0 min 0,000 mm 0,0 UV-I 0 W/m 15,9 C 17,4 C 4,8 km/h (1 Bft) 95,74 %
30.05.2017 23:58 17,6 C 26,1 C 91 % 1014,3 hPa 0,0 l/m 3,3 km/h (1 Bft) SW 232 0 min 0,000 mm 0,0 UV-I 0 W/m 16,1 C 17,6 C 4,8 km/h (1 Bft) 92,00 %
_ Min-Zeit 06:18 04:06 14:20 17:40 - 00:02 - - - - - - 04:28 22:02 00:02 18:14
Minimum _ 14,8 C 23,9 C 38 % 1009,3 hPa - 0,0 km/h (0 Bft) - - - - - - 10,7 C 13,6 C 0,0 km/h (0 Bft) 86,11 %
_ Max-Zeit 16:12 16:26 23:54 21:58 21:36 20:42 - - 05:22 14:00 12:50 12:52 15:24 17:46 20:42 00:04
Maximum _ 30,3 C 26,7 C 91 % 1014,8 hPa 0,2 l/m 28,8 km/h
S-SW (4 Bft)
- - 2 min 0,610 mm 6,3 UV-I 898 W/m 18,5 C 30,3 C 51,5 km/h
W-SW (7 Bft)
100,00 %
Durchschnitt _ 22,4 C 25,2 C 63 % 1012,0 hPa #2,0 l/m 4,9 km/h (1 Bft) W-SW - #10:44 h #5,486 mm 3,6 UV-I 470 W/m 14,4 C 22,0 C 8,8 km/h (2 Bft) 96,77 %